<?xml version="1.0" encoding="UTF-8" standalone="no" ?>
<gpx xmlns="http://www.topografix.com/GPX/1/1" xmlns:xsi="http://www.w3.org/2001/XMLSchema-instance" xsi:schemaLocation="http://www.topografix.com/GPX/1/1 http://www.topografix.com/GPX/1/1/gpx.xsd" version="1.1" creator="VisuGPX - https://www.visugpx.com">
  <metadata>
    <name>1114890-Les voiron +saxel+moises</name>
  </metadata>
  <trk>
    <name><![CDATA[1114890-Les voiron +saxel+moises]]></name>
    <trkseg>
      <trkpt lat="46.30492" lon="6.31067">
        <ele>430</ele>
        <time>2022-04-27T19:30:24Z</time>
      </trkpt>
      <trkpt lat="46.3045" lon="6.3099">
        <ele>429</ele>
        <time>2022-04-27T19:30:40Z</time>
      </trkpt>
      <trkpt lat="46.3045" lon="6.3099">
        <ele>429</ele>
        <time>2022-04-27T19:30:40Z</time>
      </trkpt>
      <trkpt lat="46.30286" lon="6.3123">
        <ele>435</ele>
        <time>2022-04-27T19:31:34Z</time>
      </trkpt>
      <trkpt lat="46.30263" lon="6.31284">
        <ele>437</ele>
        <time>2022-04-27T19:31:45Z</time>
      </trkpt>
      <trkpt lat="46.30221" lon="6.31336">
        <ele>442</ele>
        <time>2022-04-27T19:31:57Z</time>
      </trkpt>
      <trkpt lat="46.30184" lon="6.31364">
        <ele>444</ele>
        <time>2022-04-27T19:32:07Z</time>
      </trkpt>
      <trkpt lat="46.30184" lon="6.31364">
        <ele>444</ele>
        <time>2022-04-27T19:32:07Z</time>
      </trkpt>
      <trkpt lat="46.30168" lon="6.31364">
        <ele>445</ele>
        <time>2022-04-27T19:32:11Z</time>
      </trkpt>
      <trkpt lat="46.30168" lon="6.31364">
        <ele>445</ele>
        <time>2022-04-27T19:32:11Z</time>
      </trkpt>
      <trkpt lat="46.30173" lon="6.31365">
        <ele>445</ele>
        <time>2022-04-27T19:32:12Z</time>
      </trkpt>
      <trkpt lat="46.30173" lon="6.31365">
        <ele>445</ele>
        <time>2022-04-27T19:32:12Z</time>
      </trkpt>
      <trkpt lat="46.30153" lon="6.31416">
        <ele>447</ele>
        <time>2022-04-27T19:32:22Z</time>
      </trkpt>
      <trkpt lat="46.3014" lon="6.31439">
        <ele>447</ele>
        <time>2022-04-27T19:32:26Z</time>
      </trkpt>
      <trkpt lat="46.30096" lon="6.31494">
        <ele>448</ele>
        <time>2022-04-27T19:32:40Z</time>
      </trkpt>
      <trkpt lat="46.30096" lon="6.31494">
        <ele>448</ele>
        <time>2022-04-27T19:32:40Z</time>
      </trkpt>
      <trkpt lat="46.30086" lon="6.31493">
        <ele>448</ele>
        <time>2022-04-27T19:32:42Z</time>
      </trkpt>
      <trkpt lat="46.30086" lon="6.31493">
        <ele>448</ele>
        <time>2022-04-27T19:32:42Z</time>
      </trkpt>
      <trkpt lat="46.30074" lon="6.3149">
        <ele>449</ele>
        <time>2022-04-27T19:32:45Z</time>
      </trkpt>
      <trkpt lat="46.30066" lon="6.31482">
        <ele>449</ele>
        <time>2022-04-27T19:32:47Z</time>
      </trkpt>
      <trkpt lat="46.30027" lon="6.3143">
        <ele>450</ele>
        <time>2022-04-27T19:33:00Z</time>
      </trkpt>
      <trkpt lat="46.30013" lon="6.31418">
        <ele>450</ele>
        <time>2022-04-27T19:33:04Z</time>
      </trkpt>
      <trkpt lat="46.29993" lon="6.31411">
        <ele>451</ele>
        <time>2022-04-27T19:33:08Z</time>
      </trkpt>
      <trkpt lat="46.29993" lon="6.31411">
        <ele>451</ele>
        <time>2022-04-27T19:33:08Z</time>
      </trkpt>
      <trkpt lat="46.29975" lon="6.31433">
        <ele>453</ele>
        <time>2022-04-27T19:33:14Z</time>
      </trkpt>
      <trkpt lat="46.29937" lon="6.31503">
        <ele>460</ele>
        <time>2022-04-27T19:33:28Z</time>
      </trkpt>
      <trkpt lat="46.29911" lon="6.31588">
        <ele>469</ele>
        <time>2022-04-27T19:33:43Z</time>
      </trkpt>
      <trkpt lat="46.29911" lon="6.31588">
        <ele>469</ele>
        <time>2022-04-27T19:33:43Z</time>
      </trkpt>
      <trkpt lat="46.2991" lon="6.31591">
        <ele>469</ele>
        <time>2022-04-27T19:33:44Z</time>
      </trkpt>
      <trkpt lat="46.2991" lon="6.31591">
        <ele>469</ele>
        <time>2022-04-27T19:33:44Z</time>
      </trkpt>
      <trkpt lat="46.29807" lon="6.31515">
        <ele>468</ele>
        <time>2022-04-27T19:34:11Z</time>
      </trkpt>
      <trkpt lat="46.29807" lon="6.31515">
        <ele>468</ele>
        <time>2022-04-27T19:34:11Z</time>
      </trkpt>
      <trkpt lat="46.29804" lon="6.31552">
        <ele>471</ele>
        <time>2022-04-27T19:34:17Z</time>
      </trkpt>
      <trkpt lat="46.29799" lon="6.31567">
        <ele>473</ele>
        <time>2022-04-27T19:34:19Z</time>
      </trkpt>
      <trkpt lat="46.29799" lon="6.31567">
        <ele>473</ele>
        <time>2022-04-27T19:34:19Z</time>
      </trkpt>
      <trkpt lat="46.29717" lon="6.31818">
        <ele>504</ele>
        <time>2022-04-27T19:35:04Z</time>
      </trkpt>
      <trkpt lat="46.29717" lon="6.31818">
        <ele>504</ele>
        <time>2022-04-27T19:35:04Z</time>
      </trkpt>
      <trkpt lat="46.29716" lon="6.31821">
        <ele>505</ele>
        <time>2022-04-27T19:35:05Z</time>
      </trkpt>
      <trkpt lat="46.29716" lon="6.31821">
        <ele>505</ele>
        <time>2022-04-27T19:35:05Z</time>
      </trkpt>
      <trkpt lat="46.29727" lon="6.31844">
        <ele>507</ele>
        <time>2022-04-27T19:35:09Z</time>
      </trkpt>
      <trkpt lat="46.29727" lon="6.31844">
        <ele>507</ele>
        <time>2022-04-27T19:35:09Z</time>
      </trkpt>
      <trkpt lat="46.29744" lon="6.3186">
        <ele>508</ele>
        <time>2022-04-27T19:35:14Z</time>
      </trkpt>
      <trkpt lat="46.29793" lon="6.31877">
        <ele>510</ele>
        <time>2022-04-27T19:35:26Z</time>
      </trkpt>
      <trkpt lat="46.29875" lon="6.31917">
        <ele>515</ele>
        <time>2022-04-27T19:35:46Z</time>
      </trkpt>
      <trkpt lat="46.29907" lon="6.31949">
        <ele>517</ele>
        <time>2022-04-27T19:35:55Z</time>
      </trkpt>
      <trkpt lat="46.29938" lon="6.3201">
        <ele>522</ele>
        <time>2022-04-27T19:36:07Z</time>
      </trkpt>
      <trkpt lat="46.29938" lon="6.3201">
        <ele>522</ele>
        <time>2022-04-27T19:36:07Z</time>
      </trkpt>
      <trkpt lat="46.29956" lon="6.32051">
        <ele>526</ele>
        <time>2022-04-27T19:36:15Z</time>
      </trkpt>
      <trkpt lat="46.29952" lon="6.3207">
        <ele>529</ele>
        <time>2022-04-27T19:36:18Z</time>
      </trkpt>
      <trkpt lat="46.29941" lon="6.3208">
        <ele>531</ele>
        <time>2022-04-27T19:36:21Z</time>
      </trkpt>
      <trkpt lat="46.29871" lon="6.32101">
        <ele>535</ele>
        <time>2022-04-27T19:36:38Z</time>
      </trkpt>
      <trkpt lat="46.29727" lon="6.32133">
        <ele>543</ele>
        <time>2022-04-27T19:37:12Z</time>
      </trkpt>
      <trkpt lat="46.29727" lon="6.32133">
        <ele>543</ele>
        <time>2022-04-27T19:37:12Z</time>
      </trkpt>
      <trkpt lat="46.29724" lon="6.32131">
        <ele>543</ele>
        <time>2022-04-27T19:37:13Z</time>
      </trkpt>
      <trkpt lat="46.29724" lon="6.32131">
        <ele>543</ele>
        <time>2022-04-27T19:37:13Z</time>
      </trkpt>
      <trkpt lat="46.29727" lon="6.32133">
        <ele>543</ele>
        <time>2022-04-27T19:37:14Z</time>
      </trkpt>
      <trkpt lat="46.29727" lon="6.32133">
        <ele>543</ele>
        <time>2022-04-27T19:37:14Z</time>
      </trkpt>
      <trkpt lat="46.29679" lon="6.32152">
        <ele>547</ele>
        <time>2022-04-27T19:37:25Z</time>
      </trkpt>
      <trkpt lat="46.29672" lon="6.32163">
        <ele>548</ele>
        <time>2022-04-27T19:37:28Z</time>
      </trkpt>
      <trkpt lat="46.29672" lon="6.32163">
        <ele>548</ele>
        <time>2022-04-27T19:37:28Z</time>
      </trkpt>
      <trkpt lat="46.2966" lon="6.32173">
        <ele>549</ele>
        <time>2022-04-27T19:37:31Z</time>
      </trkpt>
      <trkpt lat="46.29622" lon="6.3223">
        <ele>552</ele>
        <time>2022-04-27T19:37:44Z</time>
      </trkpt>
      <trkpt lat="46.29594" lon="6.32284">
        <ele>555</ele>
        <time>2022-04-27T19:37:55Z</time>
      </trkpt>
      <trkpt lat="46.29594" lon="6.32284">
        <ele>555</ele>
        <time>2022-04-27T19:37:55Z</time>
      </trkpt>
      <trkpt lat="46.29622" lon="6.3223">
        <ele>552</ele>
        <time>2022-04-27T19:38:06Z</time>
      </trkpt>
      <trkpt lat="46.2966" lon="6.32173">
        <ele>549</ele>
        <time>2022-04-27T19:38:18Z</time>
      </trkpt>
      <trkpt lat="46.29672" lon="6.32163">
        <ele>548</ele>
        <time>2022-04-27T19:38:22Z</time>
      </trkpt>
      <trkpt lat="46.29673" lon="6.32157">
        <ele>548</ele>
        <time>2022-04-27T19:38:23Z</time>
      </trkpt>
      <trkpt lat="46.29727" lon="6.32133">
        <ele>543</ele>
        <time>2022-04-27T19:38:36Z</time>
      </trkpt>
      <trkpt lat="46.29727" lon="6.32133">
        <ele>543</ele>
        <time>2022-04-27T19:38:36Z</time>
      </trkpt>
      <trkpt lat="46.29899" lon="6.32251">
        <ele>554</ele>
        <time>2022-04-27T19:39:20Z</time>
      </trkpt>
      <trkpt lat="46.29926" lon="6.32287">
        <ele>557</ele>
        <time>2022-04-27T19:39:29Z</time>
      </trkpt>
      <trkpt lat="46.29977" lon="6.32393">
        <ele>561</ele>
        <time>2022-04-27T19:39:50Z</time>
      </trkpt>
      <trkpt lat="46.29998" lon="6.32419">
        <ele>562</ele>
        <time>2022-04-27T19:39:56Z</time>
      </trkpt>
      <trkpt lat="46.30029" lon="6.32432">
        <ele>564</ele>
        <time>2022-04-27T19:40:04Z</time>
      </trkpt>
      <trkpt lat="46.30084" lon="6.32436">
        <ele>566</ele>
        <time>2022-04-27T19:40:16Z</time>
      </trkpt>
      <trkpt lat="46.30104" lon="6.32453">
        <ele>568</ele>
        <time>2022-04-27T19:40:22Z</time>
      </trkpt>
      <trkpt lat="46.30116" lon="6.32482">
        <ele>571</ele>
        <time>2022-04-27T19:40:27Z</time>
      </trkpt>
      <trkpt lat="46.30117" lon="6.32514">
        <ele>573</ele>
        <time>2022-04-27T19:40:33Z</time>
      </trkpt>
      <trkpt lat="46.3011" lon="6.32536">
        <ele>574</ele>
        <time>2022-04-27T19:40:36Z</time>
      </trkpt>
      <trkpt lat="46.30086" lon="6.32577">
        <ele>577</ele>
        <time>2022-04-27T19:40:45Z</time>
      </trkpt>
      <trkpt lat="46.30062" lon="6.32607">
        <ele>579</ele>
        <time>2022-04-27T19:40:53Z</time>
      </trkpt>
      <trkpt lat="46.30033" lon="6.32628">
        <ele>580</ele>
        <time>2022-04-27T19:41:00Z</time>
      </trkpt>
      <trkpt lat="46.29945" lon="6.32655">
        <ele>583</ele>
        <time>2022-04-27T19:41:21Z</time>
      </trkpt>
      <trkpt lat="46.29911" lon="6.32675">
        <ele>585</ele>
        <time>2022-04-27T19:41:30Z</time>
      </trkpt>
      <trkpt lat="46.29899" lon="6.32689">
        <ele>585</ele>
        <time>2022-04-27T19:41:33Z</time>
      </trkpt>
      <trkpt lat="46.29883" lon="6.3272">
        <ele>587</ele>
        <time>2022-04-27T19:41:40Z</time>
      </trkpt>
      <trkpt lat="46.29876" lon="6.32763">
        <ele>590</ele>
        <time>2022-04-27T19:41:47Z</time>
      </trkpt>
      <trkpt lat="46.29876" lon="6.32763">
        <ele>590</ele>
        <time>2022-04-27T19:41:47Z</time>
      </trkpt>
      <trkpt lat="46.29646" lon="6.32688">
        <ele>577</ele>
        <time>2022-04-27T19:42:42Z</time>
      </trkpt>
      <trkpt lat="46.29579" lon="6.32682">
        <ele>576</ele>
        <time>2022-04-27T19:42:57Z</time>
      </trkpt>
      <trkpt lat="46.29579" lon="6.32682">
        <ele>576</ele>
        <time>2022-04-27T19:42:57Z</time>
      </trkpt>
      <trkpt lat="46.29563" lon="6.32667">
        <ele>575</ele>
        <time>2022-04-27T19:43:02Z</time>
      </trkpt>
      <trkpt lat="46.29563" lon="6.32667">
        <ele>575</ele>
        <time>2022-04-27T19:43:02Z</time>
      </trkpt>
      <trkpt lat="46.29579" lon="6.32682">
        <ele>576</ele>
        <time>2022-04-27T19:43:06Z</time>
      </trkpt>
      <trkpt lat="46.29579" lon="6.32682">
        <ele>576</ele>
        <time>2022-04-27T19:43:06Z</time>
      </trkpt>
      <trkpt lat="46.29397" lon="6.32684">
        <ele>577</ele>
        <time>2022-04-27T19:43:49Z</time>
      </trkpt>
      <trkpt lat="46.2937" lon="6.32673">
        <ele>577</ele>
        <time>2022-04-27T19:43:55Z</time>
      </trkpt>
      <trkpt lat="46.29258" lon="6.32609">
        <ele>577</ele>
        <time>2022-04-27T19:44:23Z</time>
      </trkpt>
      <trkpt lat="46.29209" lon="6.32596">
        <ele>577</ele>
        <time>2022-04-27T19:44:35Z</time>
      </trkpt>
      <trkpt lat="46.29152" lon="6.32591">
        <ele>579</ele>
        <time>2022-04-27T19:44:48Z</time>
      </trkpt>
      <trkpt lat="46.29055" lon="6.32559">
        <ele>582</ele>
        <time>2022-04-27T19:45:12Z</time>
      </trkpt>
      <trkpt lat="46.29005" lon="6.32556">
        <ele>584</ele>
        <time>2022-04-27T19:45:23Z</time>
      </trkpt>
      <trkpt lat="46.28911" lon="6.32576">
        <ele>591</ele>
        <time>2022-04-27T19:45:46Z</time>
      </trkpt>
      <trkpt lat="46.28893" lon="6.32573">
        <ele>591</ele>
        <time>2022-04-27T19:45:50Z</time>
      </trkpt>
      <trkpt lat="46.28881" lon="6.32565">
        <ele>591</ele>
        <time>2022-04-27T19:45:53Z</time>
      </trkpt>
      <trkpt lat="46.28881" lon="6.32565">
        <ele>591</ele>
        <time>2022-04-27T19:45:53Z</time>
      </trkpt>
      <trkpt lat="46.28867" lon="6.32574">
        <ele>592</ele>
        <time>2022-04-27T19:45:56Z</time>
      </trkpt>
      <trkpt lat="46.28851" lon="6.32572">
        <ele>592</ele>
        <time>2022-04-27T19:46:00Z</time>
      </trkpt>
      <trkpt lat="46.28715" lon="6.3252">
        <ele>591</ele>
        <time>2022-04-27T19:46:33Z</time>
      </trkpt>
      <trkpt lat="46.2865" lon="6.32516">
        <ele>591</ele>
        <time>2022-04-27T19:46:48Z</time>
      </trkpt>
      <trkpt lat="46.2865" lon="6.32516">
        <ele>591</ele>
        <time>2022-04-27T19:46:48Z</time>
      </trkpt>
      <trkpt lat="46.28644" lon="6.32515">
        <ele>591</ele>
        <time>2022-04-27T19:46:50Z</time>
      </trkpt>
      <trkpt lat="46.28644" lon="6.32515">
        <ele>591</ele>
        <time>2022-04-27T19:46:50Z</time>
      </trkpt>
      <trkpt lat="46.2861" lon="6.32689">
        <ele>595</ele>
        <time>2022-04-27T19:47:19Z</time>
      </trkpt>
      <trkpt lat="46.28597" lon="6.32722">
        <ele>595</ele>
        <time>2022-04-27T19:47:25Z</time>
      </trkpt>
      <trkpt lat="46.28389" lon="6.32972">
        <ele>598</ele>
        <time>2022-04-27T19:48:28Z</time>
      </trkpt>
      <trkpt lat="46.28389" lon="6.32972">
        <ele>598</ele>
        <time>2022-04-27T19:48:28Z</time>
      </trkpt>
      <trkpt lat="46.27969" lon="6.33475">
        <ele>582</ele>
        <time>2022-04-27T19:50:35Z</time>
      </trkpt>
      <trkpt lat="46.27969" lon="6.33475">
        <ele>582</ele>
        <time>2022-04-27T19:50:35Z</time>
      </trkpt>
      <trkpt lat="46.2736" lon="6.34123">
        <ele>561</ele>
        <time>2022-04-27T19:53:32Z</time>
      </trkpt>
      <trkpt lat="46.2736" lon="6.34123">
        <ele>561</ele>
        <time>2022-04-27T19:53:32Z</time>
      </trkpt>
      <trkpt lat="46.27298" lon="6.34191">
        <ele>561</ele>
        <time>2022-04-27T19:53:50Z</time>
      </trkpt>
      <trkpt lat="46.27298" lon="6.34191">
        <ele>561</ele>
        <time>2022-04-27T19:53:50Z</time>
      </trkpt>
      <trkpt lat="46.27206" lon="6.34289">
        <ele>554</ele>
        <time>2022-04-27T19:54:17Z</time>
      </trkpt>
      <trkpt lat="46.27156" lon="6.3432">
        <ele>550</ele>
        <time>2022-04-27T19:54:30Z</time>
      </trkpt>
      <trkpt lat="46.27082" lon="6.34353">
        <ele>552</ele>
        <time>2022-04-27T19:54:48Z</time>
      </trkpt>
      <trkpt lat="46.26981" lon="6.34452">
        <ele>550</ele>
        <time>2022-04-27T19:55:16Z</time>
      </trkpt>
      <trkpt lat="46.26959" lon="6.34456">
        <ele>551</ele>
        <time>2022-04-27T19:55:21Z</time>
      </trkpt>
      <trkpt lat="46.2695" lon="6.34451">
        <ele>552</ele>
        <time>2022-04-27T19:55:24Z</time>
      </trkpt>
      <trkpt lat="46.26912" lon="6.34392">
        <ele>556</ele>
        <time>2022-04-27T19:55:37Z</time>
      </trkpt>
      <trkpt lat="46.26905" lon="6.34386">
        <ele>556</ele>
        <time>2022-04-27T19:55:39Z</time>
      </trkpt>
      <trkpt lat="46.26896" lon="6.34386">
        <ele>557</ele>
        <time>2022-04-27T19:55:41Z</time>
      </trkpt>
      <trkpt lat="46.26846" lon="6.34437">
        <ele>560</ele>
        <time>2022-04-27T19:55:55Z</time>
      </trkpt>
      <trkpt lat="46.26825" lon="6.34441">
        <ele>561</ele>
        <time>2022-04-27T19:56:00Z</time>
      </trkpt>
      <trkpt lat="46.26806" lon="6.34434">
        <ele>562</ele>
        <time>2022-04-27T19:56:04Z</time>
      </trkpt>
      <trkpt lat="46.26788" lon="6.34435">
        <ele>563</ele>
        <time>2022-04-27T19:56:09Z</time>
      </trkpt>
      <trkpt lat="46.26724" lon="6.34511">
        <ele>564</ele>
        <time>2022-04-27T19:56:28Z</time>
      </trkpt>
      <trkpt lat="46.2672" lon="6.34521">
        <ele>564</ele>
        <time>2022-04-27T19:56:30Z</time>
      </trkpt>
      <trkpt lat="46.2672" lon="6.34521">
        <ele>564</ele>
        <time>2022-04-27T19:56:30Z</time>
      </trkpt>
      <trkpt lat="46.267" lon="6.34518">
        <ele>565</ele>
        <time>2022-04-27T19:56:35Z</time>
      </trkpt>
      <trkpt lat="46.267" lon="6.34518">
        <ele>565</ele>
        <time>2022-04-27T19:56:35Z</time>
      </trkpt>
      <trkpt lat="46.26682" lon="6.34516">
        <ele>566</ele>
        <time>2022-04-27T19:56:39Z</time>
      </trkpt>
      <trkpt lat="46.26669" lon="6.34508">
        <ele>567</ele>
        <time>2022-04-27T19:56:42Z</time>
      </trkpt>
      <trkpt lat="46.26625" lon="6.34398">
        <ele>572</ele>
        <time>2022-04-27T19:57:03Z</time>
      </trkpt>
      <trkpt lat="46.26552" lon="6.34304">
        <ele>572</ele>
        <time>2022-04-27T19:57:25Z</time>
      </trkpt>
      <trkpt lat="46.26542" lon="6.34278">
        <ele>573</ele>
        <time>2022-04-27T19:57:30Z</time>
      </trkpt>
      <trkpt lat="46.26527" lon="6.34208">
        <ele>574</ele>
        <time>2022-04-27T19:57:42Z</time>
      </trkpt>
      <trkpt lat="46.26515" lon="6.34177">
        <ele>575</ele>
        <time>2022-04-27T19:57:48Z</time>
      </trkpt>
      <trkpt lat="46.26476" lon="6.34097">
        <ele>575</ele>
        <time>2022-04-27T19:58:04Z</time>
      </trkpt>
      <trkpt lat="46.26408" lon="6.33999">
        <ele>573</ele>
        <time>2022-04-27T19:58:26Z</time>
      </trkpt>
      <trkpt lat="46.26386" lon="6.33955">
        <ele>571</ele>
        <time>2022-04-27T19:58:35Z</time>
      </trkpt>
      <trkpt lat="46.26383" lon="6.33933">
        <ele>570</ele>
        <time>2022-04-27T19:58:38Z</time>
      </trkpt>
      <trkpt lat="46.26385" lon="6.33898">
        <ele>570</ele>
        <time>2022-04-27T19:58:44Z</time>
      </trkpt>
      <trkpt lat="46.26462" lon="6.33434">
        <ele>568</ele>
        <time>2022-04-27T20:00:01Z</time>
      </trkpt>
      <trkpt lat="46.26462" lon="6.33434">
        <ele>568</ele>
        <time>2022-04-27T20:00:01Z</time>
      </trkpt>
      <trkpt lat="46.26469" lon="6.33382">
        <ele>568</ele>
        <time>2022-04-27T20:00:10Z</time>
      </trkpt>
      <trkpt lat="46.26469" lon="6.33382">
        <ele>568</ele>
        <time>2022-04-27T20:00:10Z</time>
      </trkpt>
      <trkpt lat="46.26439" lon="6.33295">
        <ele>566</ele>
        <time>2022-04-27T20:00:25Z</time>
      </trkpt>
      <trkpt lat="46.26414" lon="6.33246">
        <ele>567</ele>
        <time>2022-04-27T20:00:35Z</time>
      </trkpt>
      <trkpt lat="46.26296" lon="6.33087">
        <ele>565</ele>
        <time>2022-04-27T20:01:13Z</time>
      </trkpt>
      <trkpt lat="46.26272" lon="6.33061">
        <ele>563</ele>
        <time>2022-04-27T20:01:20Z</time>
      </trkpt>
      <trkpt lat="46.26272" lon="6.33061">
        <ele>563</ele>
        <time>2022-04-27T20:01:20Z</time>
      </trkpt>
      <trkpt lat="46.26239" lon="6.33039">
        <ele>562</ele>
        <time>2022-04-27T20:01:28Z</time>
      </trkpt>
      <trkpt lat="46.26124" lon="6.32986">
        <ele>558</ele>
        <time>2022-04-27T20:01:57Z</time>
      </trkpt>
      <trkpt lat="46.26076" lon="6.32955">
        <ele>557</ele>
        <time>2022-04-27T20:02:09Z</time>
      </trkpt>
      <trkpt lat="46.26035" lon="6.3292">
        <ele>556</ele>
        <time>2022-04-27T20:02:20Z</time>
      </trkpt>
      <trkpt lat="46.25988" lon="6.32868">
        <ele>554</ele>
        <time>2022-04-27T20:02:34Z</time>
      </trkpt>
      <trkpt lat="46.25968" lon="6.32836">
        <ele>553</ele>
        <time>2022-04-27T20:02:41Z</time>
      </trkpt>
      <trkpt lat="46.25954" lon="6.32797">
        <ele>552</ele>
        <time>2022-04-27T20:02:48Z</time>
      </trkpt>
      <trkpt lat="46.25947" lon="6.32755">
        <ele>552</ele>
        <time>2022-04-27T20:02:55Z</time>
      </trkpt>
      <trkpt lat="46.25947" lon="6.32755">
        <ele>552</ele>
        <time>2022-04-27T20:02:55Z</time>
      </trkpt>
      <trkpt lat="46.25958" lon="6.32746">
        <ele>552</ele>
        <time>2022-04-27T20:02:58Z</time>
      </trkpt>
      <trkpt lat="46.2598" lon="6.32705">
        <ele>552</ele>
        <time>2022-04-27T20:03:06Z</time>
      </trkpt>
      <trkpt lat="46.2599" lon="6.32701">
        <ele>552</ele>
        <time>2022-04-27T20:03:09Z</time>
      </trkpt>
      <trkpt lat="46.26056" lon="6.32724">
        <ele>555</ele>
        <time>2022-04-27T20:03:24Z</time>
      </trkpt>
      <trkpt lat="46.26119" lon="6.32732">
        <ele>556</ele>
        <time>2022-04-27T20:03:39Z</time>
      </trkpt>
      <trkpt lat="46.26119" lon="6.32732">
        <ele>556</ele>
        <time>2022-04-27T20:03:39Z</time>
      </trkpt>
      <trkpt lat="46.26088" lon="6.32728">
        <ele>556</ele>
        <time>2022-04-27T20:03:46Z</time>
      </trkpt>
      <trkpt lat="46.26088" lon="6.32728">
        <ele>556</ele>
        <time>2022-04-27T20:03:46Z</time>
      </trkpt>
      <trkpt lat="46.26092" lon="6.3269">
        <ele>555</ele>
        <time>2022-04-27T20:03:53Z</time>
      </trkpt>
      <trkpt lat="46.26091" lon="6.3263">
        <ele>553</ele>
        <time>2022-04-27T20:04:02Z</time>
      </trkpt>
      <trkpt lat="46.2603" lon="6.3244">
        <ele>546</ele>
        <time>2022-04-27T20:04:36Z</time>
      </trkpt>
      <trkpt lat="46.26008" lon="6.32398">
        <ele>544</ele>
        <time>2022-04-27T20:04:45Z</time>
      </trkpt>
      <trkpt lat="46.26003" lon="6.32355">
        <ele>542</ele>
        <time>2022-04-27T20:04:52Z</time>
      </trkpt>
      <trkpt lat="46.25976" lon="6.32303">
        <ele>540</ele>
        <time>2022-04-27T20:05:02Z</time>
      </trkpt>
      <trkpt lat="46.25949" lon="6.32279">
        <ele>539</ele>
        <time>2022-04-27T20:05:10Z</time>
      </trkpt>
      <trkpt lat="46.25949" lon="6.32279">
        <ele>539</ele>
        <time>2022-04-27T20:05:10Z</time>
      </trkpt>
      <trkpt lat="46.25903" lon="6.32212">
        <ele>537</ele>
        <time>2022-04-27T20:05:25Z</time>
      </trkpt>
      <trkpt lat="46.25903" lon="6.32212">
        <ele>537</ele>
        <time>2022-04-27T20:05:25Z</time>
      </trkpt>
      <trkpt lat="46.25874" lon="6.32225">
        <ele>537</ele>
        <time>2022-04-27T20:05:32Z</time>
      </trkpt>
      <trkpt lat="46.25874" lon="6.32225">
        <ele>537</ele>
        <time>2022-04-27T20:05:32Z</time>
      </trkpt>
      <trkpt lat="46.25877" lon="6.32202">
        <ele>537</ele>
        <time>2022-04-27T20:05:36Z</time>
      </trkpt>
      <trkpt lat="46.25874" lon="6.32189">
        <ele>536</ele>
        <time>2022-04-27T20:05:38Z</time>
      </trkpt>
      <trkpt lat="46.25842" lon="6.32098">
        <ele>533</ele>
        <time>2022-04-27T20:05:54Z</time>
      </trkpt>
      <trkpt lat="46.25838" lon="6.3207">
        <ele>533</ele>
        <time>2022-04-27T20:05:59Z</time>
      </trkpt>
      <trkpt lat="46.25838" lon="6.3207">
        <ele>533</ele>
        <time>2022-04-27T20:05:59Z</time>
      </trkpt>
      <trkpt lat="46.25839" lon="6.32075">
        <ele>533</ele>
        <time>2022-04-27T20:06:00Z</time>
      </trkpt>
      <trkpt lat="46.25839" lon="6.32075">
        <ele>533</ele>
        <time>2022-04-27T20:06:00Z</time>
      </trkpt>
      <trkpt lat="46.25833" lon="6.32085">
        <ele>533</ele>
        <time>2022-04-27T20:06:02Z</time>
      </trkpt>
      <trkpt lat="46.25846" lon="6.32141">
        <ele>534</ele>
        <time>2022-04-27T20:06:12Z</time>
      </trkpt>
      <trkpt lat="46.25845" lon="6.32159">
        <ele>535</ele>
        <time>2022-04-27T20:06:15Z</time>
      </trkpt>
      <trkpt lat="46.25651" lon="6.32304">
        <ele>535</ele>
        <time>2022-04-27T20:07:06Z</time>
      </trkpt>
      <trkpt lat="46.25651" lon="6.32304">
        <ele>535</ele>
        <time>2022-04-27T20:07:06Z</time>
      </trkpt>
      <trkpt lat="46.25543" lon="6.32375">
        <ele>538</ele>
        <time>2022-04-27T20:07:33Z</time>
      </trkpt>
      <trkpt lat="46.25444" lon="6.32422">
        <ele>538</ele>
        <time>2022-04-27T20:07:58Z</time>
      </trkpt>
      <trkpt lat="46.25398" lon="6.32436">
        <ele>537</ele>
        <time>2022-04-27T20:08:09Z</time>
      </trkpt>
      <trkpt lat="46.25398" lon="6.32436">
        <ele>537</ele>
        <time>2022-04-27T20:08:09Z</time>
      </trkpt>
      <trkpt lat="46.25388" lon="6.3244">
        <ele>537</ele>
        <time>2022-04-27T20:08:11Z</time>
      </trkpt>
      <trkpt lat="46.25309" lon="6.32412">
        <ele>536</ele>
        <time>2022-04-27T20:08:30Z</time>
      </trkpt>
      <trkpt lat="46.25296" lon="6.32414">
        <ele>536</ele>
        <time>2022-04-27T20:08:33Z</time>
      </trkpt>
      <trkpt lat="46.25296" lon="6.32414">
        <ele>536</ele>
        <time>2022-04-27T20:08:33Z</time>
      </trkpt>
      <trkpt lat="46.25234" lon="6.32352">
        <ele>536</ele>
        <time>2022-04-27T20:08:51Z</time>
      </trkpt>
      <trkpt lat="46.25234" lon="6.32352">
        <ele>536</ele>
        <time>2022-04-27T20:08:51Z</time>
      </trkpt>
      <trkpt lat="46.252" lon="6.32323">
        <ele>535</ele>
        <time>2022-04-27T20:09:00Z</time>
      </trkpt>
      <trkpt lat="46.25161" lon="6.3231">
        <ele>535</ele>
        <time>2022-04-27T20:09:09Z</time>
      </trkpt>
      <trkpt lat="46.25122" lon="6.32307">
        <ele>535</ele>
        <time>2022-04-27T20:09:18Z</time>
      </trkpt>
      <trkpt lat="46.25096" lon="6.3232">
        <ele>535</ele>
        <time>2022-04-27T20:09:25Z</time>
      </trkpt>
      <trkpt lat="46.25096" lon="6.3232">
        <ele>535</ele>
        <time>2022-04-27T20:09:25Z</time>
      </trkpt>
      <trkpt lat="46.25081" lon="6.32346">
        <ele>535</ele>
        <time>2022-04-27T20:09:30Z</time>
      </trkpt>
      <trkpt lat="46.25045" lon="6.32433">
        <ele>536</ele>
        <time>2022-04-27T20:09:47Z</time>
      </trkpt>
      <trkpt lat="46.25035" lon="6.32442">
        <ele>535</ele>
        <time>2022-04-27T20:09:49Z</time>
      </trkpt>
      <trkpt lat="46.24988" lon="6.32448">
        <ele>532</ele>
        <time>2022-04-27T20:10:00Z</time>
      </trkpt>
      <trkpt lat="46.24988" lon="6.32448">
        <ele>532</ele>
        <time>2022-04-27T20:10:00Z</time>
      </trkpt>
      <trkpt lat="46.24993" lon="6.3248">
        <ele>531</ele>
        <time>2022-04-27T20:10:06Z</time>
      </trkpt>
      <trkpt lat="46.24991" lon="6.32519">
        <ele>530</ele>
        <time>2022-04-27T20:10:12Z</time>
      </trkpt>
      <trkpt lat="46.24991" lon="6.32519">
        <ele>530</ele>
        <time>2022-04-27T20:10:12Z</time>
      </trkpt>
      <trkpt lat="46.24978" lon="6.32573">
        <ele>527</ele>
        <time>2022-04-27T20:10:21Z</time>
      </trkpt>
      <trkpt lat="46.24978" lon="6.32573">
        <ele>527</ele>
        <time>2022-04-27T20:10:21Z</time>
      </trkpt>
      <trkpt lat="46.24921" lon="6.32587">
        <ele>522</ele>
        <time>2022-04-27T20:10:35Z</time>
      </trkpt>
      <trkpt lat="46.24908" lon="6.32585">
        <ele>522</ele>
        <time>2022-04-27T20:10:38Z</time>
      </trkpt>
      <trkpt lat="46.2487" lon="6.32471">
        <ele>522</ele>
        <time>2022-04-27T20:10:58Z</time>
      </trkpt>
      <trkpt lat="46.2487" lon="6.32471">
        <ele>522</ele>
        <time>2022-04-27T20:10:58Z</time>
      </trkpt>
      <trkpt lat="46.24864" lon="6.32459">
        <ele>522</ele>
        <time>2022-04-27T20:11:01Z</time>
      </trkpt>
      <trkpt lat="46.24819" lon="6.32424">
        <ele>519</ele>
        <time>2022-04-27T20:11:12Z</time>
      </trkpt>
      <trkpt lat="46.24801" lon="6.324">
        <ele>520</ele>
        <time>2022-04-27T20:11:18Z</time>
      </trkpt>
      <trkpt lat="46.24774" lon="6.32336">
        <ele>518</ele>
        <time>2022-04-27T20:11:30Z</time>
      </trkpt>
      <trkpt lat="46.24714" lon="6.32233">
        <ele>515</ele>
        <time>2022-04-27T20:11:52Z</time>
      </trkpt>
      <trkpt lat="46.24697" lon="6.32176">
        <ele>514</ele>
        <time>2022-04-27T20:12:02Z</time>
      </trkpt>
      <trkpt lat="46.24633" lon="6.3205">
        <ele>514</ele>
        <time>2022-04-27T20:12:27Z</time>
      </trkpt>
      <trkpt lat="46.24633" lon="6.3205">
        <ele>514</ele>
        <time>2022-04-27T20:12:27Z</time>
      </trkpt>
      <trkpt lat="46.24576" lon="6.32119">
        <ele>514</ele>
        <time>2022-04-27T20:12:45Z</time>
      </trkpt>
      <trkpt lat="46.2457" lon="6.32145">
        <ele>515</ele>
        <time>2022-04-27T20:12:49Z</time>
      </trkpt>
      <trkpt lat="46.24578" lon="6.32171">
        <ele>516</ele>
        <time>2022-04-27T20:12:54Z</time>
      </trkpt>
      <trkpt lat="46.24578" lon="6.32171">
        <ele>516</ele>
        <time>2022-04-27T20:12:54Z</time>
      </trkpt>
      <trkpt lat="46.24592" lon="6.32197">
        <ele>517</ele>
        <time>2022-04-27T20:12:59Z</time>
      </trkpt>
      <trkpt lat="46.24606" lon="6.32255">
        <ele>520</ele>
        <time>2022-04-27T20:13:09Z</time>
      </trkpt>
      <trkpt lat="46.24602" lon="6.32273">
        <ele>521</ele>
        <time>2022-04-27T20:13:12Z</time>
      </trkpt>
      <trkpt lat="46.24578" lon="6.32311">
        <ele>525</ele>
        <time>2022-04-27T20:13:20Z</time>
      </trkpt>
      <trkpt lat="46.24579" lon="6.32333">
        <ele>526</ele>
        <time>2022-04-27T20:13:24Z</time>
      </trkpt>
      <trkpt lat="46.2456" lon="6.32387">
        <ele>530</ele>
        <time>2022-04-27T20:13:34Z</time>
      </trkpt>
      <trkpt lat="46.24541" lon="6.32457">
        <ele>534</ele>
        <time>2022-04-27T20:13:46Z</time>
      </trkpt>
      <trkpt lat="46.24515" lon="6.32466">
        <ele>536</ele>
        <time>2022-04-27T20:13:52Z</time>
      </trkpt>
      <trkpt lat="46.24448" lon="6.32454">
        <ele>539</ele>
        <time>2022-04-27T20:14:08Z</time>
      </trkpt>
      <trkpt lat="46.24418" lon="6.32432">
        <ele>538</ele>
        <time>2022-04-27T20:14:16Z</time>
      </trkpt>
      <trkpt lat="46.24388" lon="6.32454">
        <ele>542</ele>
        <time>2022-04-27T20:14:24Z</time>
      </trkpt>
      <trkpt lat="46.24388" lon="6.32454">
        <ele>542</ele>
        <time>2022-04-27T20:14:24Z</time>
      </trkpt>
      <trkpt lat="46.2438" lon="6.32456">
        <ele>542</ele>
        <time>2022-04-27T20:14:25Z</time>
      </trkpt>
      <trkpt lat="46.24348" lon="6.32443">
        <ele>543</ele>
        <time>2022-04-27T20:14:33Z</time>
      </trkpt>
      <trkpt lat="46.24317" lon="6.32456">
        <ele>545</ele>
        <time>2022-04-27T20:14:41Z</time>
      </trkpt>
      <trkpt lat="46.24317" lon="6.32456">
        <ele>545</ele>
        <time>2022-04-27T20:14:41Z</time>
      </trkpt>
      <trkpt lat="46.24294" lon="6.32462">
        <ele>546</ele>
        <time>2022-04-27T20:14:46Z</time>
      </trkpt>
      <trkpt lat="46.24265" lon="6.32454">
        <ele>547</ele>
        <time>2022-04-27T20:14:53Z</time>
      </trkpt>
      <trkpt lat="46.24175" lon="6.32371">
        <ele>546</ele>
        <time>2022-04-27T20:15:18Z</time>
      </trkpt>
      <trkpt lat="46.24165" lon="6.32353">
        <ele>545</ele>
        <time>2022-04-27T20:15:22Z</time>
      </trkpt>
      <trkpt lat="46.24165" lon="6.32353">
        <ele>545</ele>
        <time>2022-04-27T20:15:22Z</time>
      </trkpt>
      <trkpt lat="46.24151" lon="6.32355">
        <ele>546</ele>
        <time>2022-04-27T20:15:25Z</time>
      </trkpt>
      <trkpt lat="46.23914" lon="6.32103">
        <ele>541</ele>
        <time>2022-04-27T20:16:34Z</time>
      </trkpt>
      <trkpt lat="46.23914" lon="6.32103">
        <ele>541</ele>
        <time>2022-04-27T20:16:34Z</time>
      </trkpt>
      <trkpt lat="46.23782" lon="6.31964">
        <ele>540</ele>
        <time>2022-04-27T20:17:12Z</time>
      </trkpt>
      <trkpt lat="46.23718" lon="6.31909">
        <ele>540</ele>
        <time>2022-04-27T20:17:29Z</time>
      </trkpt>
      <trkpt lat="46.23608" lon="6.31831">
        <ele>536</ele>
        <time>2022-04-27T20:17:58Z</time>
      </trkpt>
      <trkpt lat="46.23535" lon="6.31771">
        <ele>534</ele>
        <time>2022-04-27T20:18:17Z</time>
      </trkpt>
      <trkpt lat="46.23428" lon="6.31698">
        <ele>537</ele>
        <time>2022-04-27T20:18:45Z</time>
      </trkpt>
      <trkpt lat="46.23428" lon="6.31698">
        <ele>537</ele>
        <time>2022-04-27T20:18:45Z</time>
      </trkpt>
      <trkpt lat="46.23419" lon="6.31692">
        <ele>537</ele>
        <time>2022-04-27T20:18:47Z</time>
      </trkpt>
      <trkpt lat="46.23419" lon="6.31692">
        <ele>537</ele>
        <time>2022-04-27T20:18:47Z</time>
      </trkpt>
      <trkpt lat="46.23372" lon="6.31743">
        <ele>539</ele>
        <time>2022-04-27T20:19:01Z</time>
      </trkpt>
      <trkpt lat="46.23317" lon="6.31785">
        <ele>543</ele>
        <time>2022-04-27T20:19:16Z</time>
      </trkpt>
      <trkpt lat="46.23305" lon="6.31803">
        <ele>544</ele>
        <time>2022-04-27T20:19:20Z</time>
      </trkpt>
      <trkpt lat="46.23305" lon="6.31803">
        <ele>544</ele>
        <time>2022-04-27T20:19:20Z</time>
      </trkpt>
      <trkpt lat="46.2326" lon="6.31887">
        <ele>549</ele>
        <time>2022-04-27T20:19:37Z</time>
      </trkpt>
      <trkpt lat="46.23248" lon="6.31917">
        <ele>551</ele>
        <time>2022-04-27T20:19:42Z</time>
      </trkpt>
      <trkpt lat="46.23248" lon="6.31917">
        <ele>551</ele>
        <time>2022-04-27T20:19:42Z</time>
      </trkpt>
      <trkpt lat="46.23194" lon="6.31878">
        <ele>552</ele>
        <time>2022-04-27T20:19:57Z</time>
      </trkpt>
      <trkpt lat="46.23142" lon="6.31849">
        <ele>551</ele>
        <time>2022-04-27T20:20:10Z</time>
      </trkpt>
      <trkpt lat="46.23142" lon="6.31849">
        <ele>551</ele>
        <time>2022-04-27T20:20:10Z</time>
      </trkpt>
      <trkpt lat="46.23099" lon="6.31927">
        <ele>555</ele>
        <time>2022-04-27T20:20:26Z</time>
      </trkpt>
      <trkpt lat="46.23099" lon="6.31927">
        <ele>555</ele>
        <time>2022-04-27T20:20:26Z</time>
      </trkpt>
      <trkpt lat="46.23076" lon="6.31996">
        <ele>562</ele>
        <time>2022-04-27T20:20:38Z</time>
      </trkpt>
      <trkpt lat="46.2304" lon="6.32085">
        <ele>569</ele>
        <time>2022-04-27T20:20:55Z</time>
      </trkpt>
      <trkpt lat="46.23035" lon="6.32129">
        <ele>573</ele>
        <time>2022-04-27T20:21:02Z</time>
      </trkpt>
      <trkpt lat="46.23035" lon="6.32129">
        <ele>573</ele>
        <time>2022-04-27T20:21:02Z</time>
      </trkpt>
      <trkpt lat="46.22986" lon="6.32254">
        <ele>585</ele>
        <time>2022-04-27T20:21:25Z</time>
      </trkpt>
      <trkpt lat="46.22953" lon="6.3232">
        <ele>595</ele>
        <time>2022-04-27T20:21:38Z</time>
      </trkpt>
      <trkpt lat="46.22948" lon="6.32325">
        <ele>596</ele>
        <time>2022-04-27T20:21:40Z</time>
      </trkpt>
      <trkpt lat="46.22925" lon="6.32316">
        <ele>596</ele>
        <time>2022-04-27T20:21:45Z</time>
      </trkpt>
      <trkpt lat="46.22909" lon="6.32318">
        <ele>598</ele>
        <time>2022-04-27T20:21:49Z</time>
      </trkpt>
      <trkpt lat="46.22909" lon="6.32318">
        <ele>598</ele>
        <time>2022-04-27T20:21:49Z</time>
      </trkpt>
      <trkpt lat="46.22942" lon="6.32335">
        <ele>597</ele>
        <time>2022-04-27T20:21:57Z</time>
      </trkpt>
      <trkpt lat="46.22942" lon="6.32335">
        <ele>597</ele>
        <time>2022-04-27T20:21:57Z</time>
      </trkpt>
      <trkpt lat="46.22833" lon="6.32277">
        <ele>604</ele>
        <time>2022-04-27T20:22:24Z</time>
      </trkpt>
      <trkpt lat="46.22798" lon="6.32209">
        <ele>605</ele>
        <time>2022-04-27T20:22:38Z</time>
      </trkpt>
      <trkpt lat="46.22778" lon="6.32191">
        <ele>607</ele>
        <time>2022-04-27T20:22:44Z</time>
      </trkpt>
      <trkpt lat="46.22741" lon="6.32169">
        <ele>609</ele>
        <time>2022-04-27T20:22:53Z</time>
      </trkpt>
      <trkpt lat="46.22724" lon="6.32164">
        <ele>608</ele>
        <time>2022-04-27T20:22:57Z</time>
      </trkpt>
      <trkpt lat="46.22697" lon="6.32175">
        <ele>609</ele>
        <time>2022-04-27T20:23:04Z</time>
      </trkpt>
      <trkpt lat="46.22672" lon="6.32211">
        <ele>614</ele>
        <time>2022-04-27T20:23:12Z</time>
      </trkpt>
      <trkpt lat="46.22644" lon="6.32264">
        <ele>623</ele>
        <time>2022-04-27T20:23:23Z</time>
      </trkpt>
      <trkpt lat="46.22606" lon="6.32361">
        <ele>637</ele>
        <time>2022-04-27T20:23:41Z</time>
      </trkpt>
      <trkpt lat="46.226" lon="6.32368">
        <ele>638</ele>
        <time>2022-04-27T20:23:42Z</time>
      </trkpt>
      <trkpt lat="46.22573" lon="6.32367">
        <ele>641</ele>
        <time>2022-04-27T20:23:49Z</time>
      </trkpt>
      <trkpt lat="46.22573" lon="6.32367">
        <ele>641</ele>
        <time>2022-04-27T20:23:49Z</time>
      </trkpt>
      <trkpt lat="46.22509" lon="6.32183">
        <ele>637</ele>
        <time>2022-04-27T20:24:22Z</time>
      </trkpt>
      <trkpt lat="46.22494" lon="6.32172">
        <ele>639</ele>
        <time>2022-04-27T20:24:26Z</time>
      </trkpt>
      <trkpt lat="46.22488" lon="6.32173">
        <ele>640</ele>
        <time>2022-04-27T20:24:27Z</time>
      </trkpt>
      <trkpt lat="46.22458" lon="6.32193">
        <ele>647</ele>
        <time>2022-04-27T20:24:35Z</time>
      </trkpt>
      <trkpt lat="46.22439" lon="6.32198">
        <ele>650</ele>
        <time>2022-04-27T20:24:39Z</time>
      </trkpt>
      <trkpt lat="46.22407" lon="6.32179">
        <ele>652</ele>
        <time>2022-04-27T20:24:48Z</time>
      </trkpt>
      <trkpt lat="46.22397" lon="6.32183">
        <ele>654</ele>
        <time>2022-04-27T20:24:50Z</time>
      </trkpt>
      <trkpt lat="46.22397" lon="6.32183">
        <ele>654</ele>
        <time>2022-04-27T20:24:50Z</time>
      </trkpt>
      <trkpt lat="46.22393" lon="6.32193">
        <ele>655</ele>
        <time>2022-04-27T20:24:52Z</time>
      </trkpt>
      <trkpt lat="46.22397" lon="6.32216">
        <ele>657</ele>
        <time>2022-04-27T20:24:56Z</time>
      </trkpt>
      <trkpt lat="46.22457" lon="6.32347">
        <ele>665</ele>
        <time>2022-04-27T20:25:21Z</time>
      </trkpt>
      <trkpt lat="46.22456" lon="6.32359">
        <ele>667</ele>
        <time>2022-04-27T20:25:23Z</time>
      </trkpt>
      <trkpt lat="46.22445" lon="6.32371">
        <ele>670</ele>
        <time>2022-04-27T20:25:26Z</time>
      </trkpt>
      <trkpt lat="46.22429" lon="6.3237">
        <ele>672</ele>
        <time>2022-04-27T20:25:30Z</time>
      </trkpt>
      <trkpt lat="46.22409" lon="6.32353">
        <ele>672</ele>
        <time>2022-04-27T20:25:35Z</time>
      </trkpt>
      <trkpt lat="46.22365" lon="6.32357">
        <ele>676</ele>
        <time>2022-04-27T20:25:46Z</time>
      </trkpt>
      <trkpt lat="46.22352" lon="6.32354">
        <ele>677</ele>
        <time>2022-04-27T20:25:49Z</time>
      </trkpt>
      <trkpt lat="46.2229" lon="6.32312">
        <ele>678</ele>
        <time>2022-04-27T20:26:05Z</time>
      </trkpt>
      <trkpt lat="46.22231" lon="6.32312">
        <ele>687</ele>
        <time>2022-04-27T20:26:19Z</time>
      </trkpt>
      <trkpt lat="46.22217" lon="6.32307">
        <ele>689</ele>
        <time>2022-04-27T20:26:22Z</time>
      </trkpt>
      <trkpt lat="46.22195" lon="6.32289">
        <ele>691</ele>
        <time>2022-04-27T20:26:28Z</time>
      </trkpt>
      <trkpt lat="46.22195" lon="6.32289">
        <ele>691</ele>
        <time>2022-04-27T20:26:28Z</time>
      </trkpt>
      <trkpt lat="46.22148" lon="6.32248">
        <ele>694</ele>
        <time>2022-04-27T20:26:41Z</time>
      </trkpt>
      <trkpt lat="46.22022" lon="6.3223">
        <ele>704</ele>
        <time>2022-04-27T20:27:10Z</time>
      </trkpt>
      <trkpt lat="46.21979" lon="6.32215">
        <ele>706</ele>
        <time>2022-04-27T20:27:21Z</time>
      </trkpt>
      <trkpt lat="46.21887" lon="6.32166">
        <ele>707</ele>
        <time>2022-04-27T20:27:43Z</time>
      </trkpt>
      <trkpt lat="46.21847" lon="6.32156">
        <ele>714</ele>
        <time>2022-04-27T20:27:53Z</time>
      </trkpt>
      <trkpt lat="46.21782" lon="6.3211">
        <ele>720</ele>
        <time>2022-04-27T20:28:10Z</time>
      </trkpt>
      <trkpt lat="46.21752" lon="6.321">
        <ele>727</ele>
        <time>2022-04-27T20:28:17Z</time>
      </trkpt>
      <trkpt lat="46.21702" lon="6.32095">
        <ele>735</ele>
        <time>2022-04-27T20:28:29Z</time>
      </trkpt>
      <trkpt lat="46.21687" lon="6.32088">
        <ele>735</ele>
        <time>2022-04-27T20:28:32Z</time>
      </trkpt>
      <trkpt lat="46.21663" lon="6.32067">
        <ele>735</ele>
        <time>2022-04-27T20:28:39Z</time>
      </trkpt>
      <trkpt lat="46.21658" lon="6.32071">
        <ele>737</ele>
        <time>2022-04-27T20:28:40Z</time>
      </trkpt>
      <trkpt lat="46.21656" lon="6.32082">
        <ele>739</ele>
        <time>2022-04-27T20:28:42Z</time>
      </trkpt>
      <trkpt lat="46.21656" lon="6.32082">
        <ele>739</ele>
        <time>2022-04-27T20:28:42Z</time>
      </trkpt>
      <trkpt lat="46.21657" lon="6.32092">
        <ele>742</ele>
        <time>2022-04-27T20:28:44Z</time>
      </trkpt>
      <trkpt lat="46.21673" lon="6.321">
        <ele>741</ele>
        <time>2022-04-27T20:28:48Z</time>
      </trkpt>
      <trkpt lat="46.21697" lon="6.32131">
        <ele>746</ele>
        <time>2022-04-27T20:28:55Z</time>
      </trkpt>
      <trkpt lat="46.2176" lon="6.32191">
        <ele>752</ele>
        <time>2022-04-27T20:29:13Z</time>
      </trkpt>
      <trkpt lat="46.21784" lon="6.32221">
        <ele>757</ele>
        <time>2022-04-27T20:29:20Z</time>
      </trkpt>
      <trkpt lat="46.21904" lon="6.32335">
        <ele>767</ele>
        <time>2022-04-27T20:29:54Z</time>
      </trkpt>
      <trkpt lat="46.21937" lon="6.32387">
        <ele>773</ele>
        <time>2022-04-27T20:30:05Z</time>
      </trkpt>
      <trkpt lat="46.21958" lon="6.32436">
        <ele>783</ele>
        <time>2022-04-27T20:30:14Z</time>
      </trkpt>
      <trkpt lat="46.2201" lon="6.32509">
        <ele>792</ele>
        <time>2022-04-27T20:30:31Z</time>
      </trkpt>
      <trkpt lat="46.2203" lon="6.32525">
        <ele>793</ele>
        <time>2022-04-27T20:30:37Z</time>
      </trkpt>
      <trkpt lat="46.22035" lon="6.32544">
        <ele>800</ele>
        <time>2022-04-27T20:30:40Z</time>
      </trkpt>
      <trkpt lat="46.22031" lon="6.32548">
        <ele>803</ele>
        <time>2022-04-27T20:30:41Z</time>
      </trkpt>
      <trkpt lat="46.22024" lon="6.32546">
        <ele>804</ele>
        <time>2022-04-27T20:30:43Z</time>
      </trkpt>
      <trkpt lat="46.21969" lon="6.32491">
        <ele>799</ele>
        <time>2022-04-27T20:30:58Z</time>
      </trkpt>
      <trkpt lat="46.21858" lon="6.32415">
        <ele>810</ele>
        <time>2022-04-27T20:31:27Z</time>
      </trkpt>
      <trkpt lat="46.21795" lon="6.3238">
        <ele>817</ele>
        <time>2022-04-27T20:31:43Z</time>
      </trkpt>
      <trkpt lat="46.21662" lon="6.32348">
        <ele>835</ele>
        <time>2022-04-27T20:32:14Z</time>
      </trkpt>
      <trkpt lat="46.21653" lon="6.32351">
        <ele>840</ele>
        <time>2022-04-27T20:32:17Z</time>
      </trkpt>
      <trkpt lat="46.21652" lon="6.32361">
        <ele>845</ele>
        <time>2022-04-27T20:32:18Z</time>
      </trkpt>
      <trkpt lat="46.21692" lon="6.32379">
        <ele>844</ele>
        <time>2022-04-27T20:32:28Z</time>
      </trkpt>
      <trkpt lat="46.21748" lon="6.3242">
        <ele>847</ele>
        <time>2022-04-27T20:32:43Z</time>
      </trkpt>
      <trkpt lat="46.21909" lon="6.32564">
        <ele>860</ele>
        <time>2022-04-27T20:33:27Z</time>
      </trkpt>
      <trkpt lat="46.21948" lon="6.32624">
        <ele>868</ele>
        <time>2022-04-27T20:33:40Z</time>
      </trkpt>
      <trkpt lat="46.21966" lon="6.32665">
        <ele>879</ele>
        <time>2022-04-27T20:33:48Z</time>
      </trkpt>
      <trkpt lat="46.2198" lon="6.32678">
        <ele>879</ele>
        <time>2022-04-27T20:33:52Z</time>
      </trkpt>
      <trkpt lat="46.21991" lon="6.3268">
        <ele>876</ele>
        <time>2022-04-27T20:33:54Z</time>
      </trkpt>
      <trkpt lat="46.21999" lon="6.3269">
        <ele>877</ele>
        <time>2022-04-27T20:33:57Z</time>
      </trkpt>
      <trkpt lat="46.22094" lon="6.32843">
        <ele>894</ele>
        <time>2022-04-27T20:34:30Z</time>
      </trkpt>
      <trkpt lat="46.22138" lon="6.32924">
        <ele>894</ele>
        <time>2022-04-27T20:34:47Z</time>
      </trkpt>
      <trkpt lat="46.22139" lon="6.3294">
        <ele>895</ele>
        <time>2022-04-27T20:34:49Z</time>
      </trkpt>
      <trkpt lat="46.22126" lon="6.32942">
        <ele>898</ele>
        <time>2022-04-27T20:34:52Z</time>
      </trkpt>
      <trkpt lat="46.22103" lon="6.32911">
        <ele>902</ele>
        <time>2022-04-27T20:35:00Z</time>
      </trkpt>
      <trkpt lat="46.2207" lon="6.32884">
        <ele>906</ele>
        <time>2022-04-27T20:35:09Z</time>
      </trkpt>
      <trkpt lat="46.2207" lon="6.32884">
        <ele>906</ele>
        <time>2022-04-27T20:35:09Z</time>
      </trkpt>
      <trkpt lat="46.2196" lon="6.32804">
        <ele>916</ele>
        <time>2022-04-27T20:35:37Z</time>
      </trkpt>
      <trkpt lat="46.21775" lon="6.32636">
        <ele>922</ele>
        <time>2022-04-27T20:36:28Z</time>
      </trkpt>
      <trkpt lat="46.21722" lon="6.326">
        <ele>922</ele>
        <time>2022-04-27T20:36:42Z</time>
      </trkpt>
      <trkpt lat="46.21674" lon="6.3259">
        <ele>925</ele>
        <time>2022-04-27T20:36:53Z</time>
      </trkpt>
      <trkpt lat="46.2165" lon="6.3259">
        <ele>924</ele>
        <time>2022-04-27T20:36:59Z</time>
      </trkpt>
      <trkpt lat="46.21615" lon="6.32599">
        <ele>923</ele>
        <time>2022-04-27T20:37:07Z</time>
      </trkpt>
      <trkpt lat="46.21588" lon="6.32616">
        <ele>923</ele>
        <time>2022-04-27T20:37:14Z</time>
      </trkpt>
      <trkpt lat="46.21528" lon="6.32677">
        <ele>928</ele>
        <time>2022-04-27T20:37:31Z</time>
      </trkpt>
      <trkpt lat="46.21522" lon="6.32686">
        <ele>928</ele>
        <time>2022-04-27T20:37:33Z</time>
      </trkpt>
      <trkpt lat="46.2152" lon="6.32706">
        <ele>927</ele>
        <time>2022-04-27T20:37:37Z</time>
      </trkpt>
      <trkpt lat="46.21526" lon="6.32723">
        <ele>927</ele>
        <time>2022-04-27T20:37:40Z</time>
      </trkpt>
      <trkpt lat="46.21533" lon="6.32729">
        <ele>928</ele>
        <time>2022-04-27T20:37:42Z</time>
      </trkpt>
      <trkpt lat="46.21582" lon="6.32748">
        <ele>937</ele>
        <time>2022-04-27T20:37:53Z</time>
      </trkpt>
      <trkpt lat="46.21612" lon="6.32778">
        <ele>938</ele>
        <time>2022-04-27T20:38:02Z</time>
      </trkpt>
      <trkpt lat="46.21627" lon="6.32787">
        <ele>940</ele>
        <time>2022-04-27T20:38:06Z</time>
      </trkpt>
      <trkpt lat="46.21675" lon="6.32794">
        <ele>946</ele>
        <time>2022-04-27T20:38:17Z</time>
      </trkpt>
      <trkpt lat="46.21702" lon="6.32785">
        <ele>945</ele>
        <time>2022-04-27T20:38:23Z</time>
      </trkpt>
      <trkpt lat="46.21713" lon="6.32795">
        <ele>946</ele>
        <time>2022-04-27T20:38:27Z</time>
      </trkpt>
      <trkpt lat="46.21715" lon="6.32809">
        <ele>949</ele>
        <time>2022-04-27T20:38:29Z</time>
      </trkpt>
      <trkpt lat="46.21712" lon="6.32818">
        <ele>951</ele>
        <time>2022-04-27T20:38:30Z</time>
      </trkpt>
      <trkpt lat="46.21674" lon="6.32835">
        <ele>952</ele>
        <time>2022-04-27T20:38:40Z</time>
      </trkpt>
      <trkpt lat="46.21667" lon="6.32846">
        <ele>951</ele>
        <time>2022-04-27T20:38:42Z</time>
      </trkpt>
      <trkpt lat="46.21666" lon="6.32855">
        <ele>952</ele>
        <time>2022-04-27T20:38:44Z</time>
      </trkpt>
      <trkpt lat="46.21672" lon="6.32915">
        <ele>955</ele>
        <time>2022-04-27T20:38:53Z</time>
      </trkpt>
      <trkpt lat="46.21724" lon="6.32976">
        <ele>962</ele>
        <time>2022-04-27T20:39:09Z</time>
      </trkpt>
      <trkpt lat="46.21755" lon="6.33038">
        <ele>964</ele>
        <time>2022-04-27T20:39:21Z</time>
      </trkpt>
      <trkpt lat="46.21755" lon="6.33095">
        <ele>961</ele>
        <time>2022-04-27T20:39:31Z</time>
      </trkpt>
      <trkpt lat="46.21745" lon="6.33162">
        <ele>959</ele>
        <time>2022-04-27T20:39:42Z</time>
      </trkpt>
      <trkpt lat="46.21727" lon="6.33258">
        <ele>963</ele>
        <time>2022-04-27T20:39:58Z</time>
      </trkpt>
      <trkpt lat="46.21712" lon="6.33316">
        <ele>969</ele>
        <time>2022-04-27T20:40:08Z</time>
      </trkpt>
      <trkpt lat="46.21712" lon="6.33316">
        <ele>969</ele>
        <time>2022-04-27T20:40:08Z</time>
      </trkpt>
      <trkpt lat="46.21708" lon="6.33318">
        <ele>969</ele>
        <time>2022-04-27T20:40:09Z</time>
      </trkpt>
      <trkpt lat="46.21708" lon="6.33318">
        <ele>969</ele>
        <time>2022-04-27T20:40:09Z</time>
      </trkpt>
      <trkpt lat="46.21712" lon="6.33316">
        <ele>969</ele>
        <time>2022-04-27T20:40:10Z</time>
      </trkpt>
      <trkpt lat="46.21712" lon="6.33316">
        <ele>969</ele>
        <time>2022-04-27T20:40:10Z</time>
      </trkpt>
      <trkpt lat="46.21796" lon="6.33374">
        <ele>969</ele>
        <time>2022-04-27T20:40:32Z</time>
      </trkpt>
      <trkpt lat="46.21907" lon="6.33362">
        <ele>968</ele>
        <time>2022-04-27T20:40:58Z</time>
      </trkpt>
      <trkpt lat="46.21997" lon="6.33374">
        <ele>968</ele>
        <time>2022-04-27T20:41:19Z</time>
      </trkpt>
      <trkpt lat="46.22044" lon="6.33404">
        <ele>971</ele>
        <time>2022-04-27T20:41:31Z</time>
      </trkpt>
      <trkpt lat="46.22082" lon="6.33391">
        <ele>964</ele>
        <time>2022-04-27T20:41:40Z</time>
      </trkpt>
      <trkpt lat="46.22093" lon="6.33393">
        <ele>964</ele>
        <time>2022-04-27T20:41:42Z</time>
      </trkpt>
      <trkpt lat="46.22199" lon="6.33459">
        <ele>982</ele>
        <time>2022-04-27T20:42:09Z</time>
      </trkpt>
      <trkpt lat="46.22266" lon="6.33467">
        <ele>986</ele>
        <time>2022-04-27T20:42:25Z</time>
      </trkpt>
      <trkpt lat="46.22289" lon="6.33484">
        <ele>992</ele>
        <time>2022-04-27T20:42:31Z</time>
      </trkpt>
      <trkpt lat="46.22331" lon="6.33499">
        <ele>996</ele>
        <time>2022-04-27T20:42:41Z</time>
      </trkpt>
      <trkpt lat="46.22331" lon="6.33499">
        <ele>996</ele>
        <time>2022-04-27T20:42:41Z</time>
      </trkpt>
      <trkpt lat="46.22326" lon="6.33498">
        <ele>996</ele>
        <time>2022-04-27T20:42:42Z</time>
      </trkpt>
      <trkpt lat="46.22326" lon="6.33498">
        <ele>996</ele>
        <time>2022-04-27T20:42:42Z</time>
      </trkpt>
      <trkpt lat="46.22323" lon="6.33518">
        <ele>1001</ele>
        <time>2022-04-27T20:42:46Z</time>
      </trkpt>
      <trkpt lat="46.22365" lon="6.33513">
        <ele>1001</ele>
        <time>2022-04-27T20:42:55Z</time>
      </trkpt>
      <trkpt lat="46.22407" lon="6.33519">
        <ele>1006</ele>
        <time>2022-04-27T20:43:05Z</time>
      </trkpt>
      <trkpt lat="46.2243" lon="6.33538">
        <ele>1010</ele>
        <time>2022-04-27T20:43:11Z</time>
      </trkpt>
      <trkpt lat="46.22491" lon="6.33632">
        <ele>1028</ele>
        <time>2022-04-27T20:43:32Z</time>
      </trkpt>
      <trkpt lat="46.22526" lon="6.33695">
        <ele>1037</ele>
        <time>2022-04-27T20:43:45Z</time>
      </trkpt>
      <trkpt lat="46.22541" lon="6.33754">
        <ele>1048</ele>
        <time>2022-04-27T20:43:56Z</time>
      </trkpt>
      <trkpt lat="46.22543" lon="6.33777">
        <ele>1052</ele>
        <time>2022-04-27T20:43:59Z</time>
      </trkpt>
      <trkpt lat="46.22543" lon="6.33777">
        <ele>1052</ele>
        <time>2022-04-27T20:43:59Z</time>
      </trkpt>
      <trkpt lat="46.2249" lon="6.33772">
        <ele>1056</ele>
        <time>2022-04-27T20:44:12Z</time>
      </trkpt>
      <trkpt lat="46.22469" lon="6.33785">
        <ele>1060</ele>
        <time>2022-04-27T20:44:17Z</time>
      </trkpt>
      <trkpt lat="46.22469" lon="6.33785">
        <ele>1060</ele>
        <time>2022-04-27T20:44:17Z</time>
      </trkpt>
      <trkpt lat="46.2248" lon="6.33798">
        <ele>1062</ele>
        <time>2022-04-27T20:44:20Z</time>
      </trkpt>
      <trkpt lat="46.22521" lon="6.33827">
        <ele>1065</ele>
        <time>2022-04-27T20:44:31Z</time>
      </trkpt>
      <trkpt lat="46.22541" lon="6.33853">
        <ele>1069</ele>
        <time>2022-04-27T20:44:37Z</time>
      </trkpt>
      <trkpt lat="46.22592" lon="6.339">
        <ele>1078</ele>
        <time>2022-04-27T20:44:51Z</time>
      </trkpt>
      <trkpt lat="46.22603" lon="6.339">
        <ele>1076</ele>
        <time>2022-04-27T20:44:54Z</time>
      </trkpt>
      <trkpt lat="46.22615" lon="6.33882">
        <ele>1070</ele>
        <time>2022-04-27T20:44:58Z</time>
      </trkpt>
      <trkpt lat="46.22623" lon="6.33879">
        <ele>1068</ele>
        <time>2022-04-27T20:45:00Z</time>
      </trkpt>
      <trkpt lat="46.22653" lon="6.33898">
        <ele>1070</ele>
        <time>2022-04-27T20:45:08Z</time>
      </trkpt>
      <trkpt lat="46.22664" lon="6.3392">
        <ele>1074</ele>
        <time>2022-04-27T20:45:12Z</time>
      </trkpt>
      <trkpt lat="46.2268" lon="6.33929">
        <ele>1075</ele>
        <time>2022-04-27T20:45:16Z</time>
      </trkpt>
      <trkpt lat="46.22693" lon="6.33961">
        <ele>1081</ele>
        <time>2022-04-27T20:45:22Z</time>
      </trkpt>
      <trkpt lat="46.2269" lon="6.33991">
        <ele>1087</ele>
        <time>2022-04-27T20:45:27Z</time>
      </trkpt>
      <trkpt lat="46.22692" lon="6.34015">
        <ele>1091</ele>
        <time>2022-04-27T20:45:31Z</time>
      </trkpt>
      <trkpt lat="46.22739" lon="6.34074">
        <ele>1094</ele>
        <time>2022-04-27T20:45:45Z</time>
      </trkpt>
      <trkpt lat="46.22754" lon="6.34104">
        <ele>1095</ele>
        <time>2022-04-27T20:45:51Z</time>
      </trkpt>
      <trkpt lat="46.22757" lon="6.34134">
        <ele>1097</ele>
        <time>2022-04-27T20:45:56Z</time>
      </trkpt>
      <trkpt lat="46.22765" lon="6.34163">
        <ele>1098</ele>
        <time>2022-04-27T20:46:01Z</time>
      </trkpt>
      <trkpt lat="46.22762" lon="6.34202">
        <ele>1104</ele>
        <time>2022-04-27T20:46:08Z</time>
      </trkpt>
      <trkpt lat="46.22762" lon="6.34202">
        <ele>1104</ele>
        <time>2022-04-27T20:46:08Z</time>
      </trkpt>
      <trkpt lat="46.22691" lon="6.34171">
        <ele>1108</ele>
        <time>2022-04-27T20:46:25Z</time>
      </trkpt>
      <trkpt lat="46.22672" lon="6.3418">
        <ele>1112</ele>
        <time>2022-04-27T20:46:30Z</time>
      </trkpt>
      <trkpt lat="46.22662" lon="6.34195">
        <ele>1116</ele>
        <time>2022-04-27T20:46:33Z</time>
      </trkpt>
      <trkpt lat="46.22662" lon="6.34195">
        <ele>1116</ele>
        <time>2022-04-27T20:46:33Z</time>
      </trkpt>
      <trkpt lat="46.22688" lon="6.34253">
        <ele>1121</ele>
        <time>2022-04-27T20:46:44Z</time>
      </trkpt>
      <trkpt lat="46.22701" lon="6.34297">
        <ele>1126</ele>
        <time>2022-04-27T20:46:52Z</time>
      </trkpt>
      <trkpt lat="46.22701" lon="6.34297">
        <ele>1126</ele>
        <time>2022-04-27T20:46:52Z</time>
      </trkpt>
      <trkpt lat="46.22715" lon="6.34342">
        <ele>1131</ele>
        <time>2022-04-27T20:47:00Z</time>
      </trkpt>
      <trkpt lat="46.22733" lon="6.34372">
        <ele>1133</ele>
        <time>2022-04-27T20:47:06Z</time>
      </trkpt>
      <trkpt lat="46.22775" lon="6.3441">
        <ele>1131</ele>
        <time>2022-04-27T20:47:18Z</time>
      </trkpt>
      <trkpt lat="46.22811" lon="6.34468">
        <ele>1137</ele>
        <time>2022-04-27T20:47:30Z</time>
      </trkpt>
      <trkpt lat="46.22837" lon="6.34496">
        <ele>1140</ele>
        <time>2022-04-27T20:47:38Z</time>
      </trkpt>
      <trkpt lat="46.22851" lon="6.345">
        <ele>1141</ele>
        <time>2022-04-27T20:47:41Z</time>
      </trkpt>
      <trkpt lat="46.22881" lon="6.34492">
        <ele>1138</ele>
        <time>2022-04-27T20:47:48Z</time>
      </trkpt>
      <trkpt lat="46.22887" lon="6.34495">
        <ele>1139</ele>
        <time>2022-04-27T20:47:50Z</time>
      </trkpt>
      <trkpt lat="46.22891" lon="6.34507">
        <ele>1142</ele>
        <time>2022-04-27T20:47:52Z</time>
      </trkpt>
      <trkpt lat="46.22936" lon="6.34526">
        <ele>1144</ele>
        <time>2022-04-27T20:48:03Z</time>
      </trkpt>
      <trkpt lat="46.22978" lon="6.34552">
        <ele>1147</ele>
        <time>2022-04-27T20:48:14Z</time>
      </trkpt>
      <trkpt lat="46.23032" lon="6.34568">
        <ele>1148</ele>
        <time>2022-04-27T20:48:27Z</time>
      </trkpt>
      <trkpt lat="46.23064" lon="6.34593">
        <ele>1153</ele>
        <time>2022-04-27T20:48:35Z</time>
      </trkpt>
      <trkpt lat="46.23122" lon="6.34616">
        <ele>1157</ele>
        <time>2022-04-27T20:48:49Z</time>
      </trkpt>
      <trkpt lat="46.23169" lon="6.34646">
        <ele>1162</ele>
        <time>2022-04-27T20:49:01Z</time>
      </trkpt>
      <trkpt lat="46.23208" lon="6.34678">
        <ele>1163</ele>
        <time>2022-04-27T20:49:12Z</time>
      </trkpt>
      <trkpt lat="46.23418" lon="6.3488">
        <ele>1164</ele>
        <time>2022-04-27T20:50:10Z</time>
      </trkpt>
      <trkpt lat="46.23446" lon="6.34923">
        <ele>1168</ele>
        <time>2022-04-27T20:50:20Z</time>
      </trkpt>
      <trkpt lat="46.23459" lon="6.34954">
        <ele>1170</ele>
        <time>2022-04-27T20:50:26Z</time>
      </trkpt>
      <trkpt lat="46.23465" lon="6.35007">
        <ele>1175</ele>
        <time>2022-04-27T20:50:34Z</time>
      </trkpt>
      <trkpt lat="46.23465" lon="6.35007">
        <ele>1175</ele>
        <time>2022-04-27T20:50:34Z</time>
      </trkpt>
      <trkpt lat="46.23476" lon="6.35108">
        <ele>1180</ele>
        <time>2022-04-27T20:50:51Z</time>
      </trkpt>
      <trkpt lat="46.23514" lon="6.35162">
        <ele>1179</ele>
        <time>2022-04-27T20:51:03Z</time>
      </trkpt>
      <trkpt lat="46.23511" lon="6.35183">
        <ele>1180</ele>
        <time>2022-04-27T20:51:07Z</time>
      </trkpt>
      <trkpt lat="46.23484" lon="6.35211">
        <ele>1187</ele>
        <time>2022-04-27T20:51:15Z</time>
      </trkpt>
      <trkpt lat="46.23474" lon="6.35234">
        <ele>1190</ele>
        <time>2022-04-27T20:51:19Z</time>
      </trkpt>
      <trkpt lat="46.23471" lon="6.35273">
        <ele>1195</ele>
        <time>2022-04-27T20:51:25Z</time>
      </trkpt>
      <trkpt lat="46.23478" lon="6.35318">
        <ele>1198</ele>
        <time>2022-04-27T20:51:33Z</time>
      </trkpt>
      <trkpt lat="46.23486" lon="6.35344">
        <ele>1200</ele>
        <time>2022-04-27T20:51:37Z</time>
      </trkpt>
      <trkpt lat="46.23501" lon="6.35364">
        <ele>1199</ele>
        <time>2022-04-27T20:51:42Z</time>
      </trkpt>
      <trkpt lat="46.23542" lon="6.354">
        <ele>1198</ele>
        <time>2022-04-27T20:51:53Z</time>
      </trkpt>
      <trkpt lat="46.23583" lon="6.35453">
        <ele>1201</ele>
        <time>2022-04-27T20:52:06Z</time>
      </trkpt>
      <trkpt lat="46.23623" lon="6.35521">
        <ele>1207</ele>
        <time>2022-04-27T20:52:21Z</time>
      </trkpt>
      <trkpt lat="46.23746" lon="6.35675">
        <ele>1202</ele>
        <time>2022-04-27T20:52:59Z</time>
      </trkpt>
      <trkpt lat="46.23799" lon="6.35768">
        <ele>1204</ele>
        <time>2022-04-27T20:53:18Z</time>
      </trkpt>
      <trkpt lat="46.23813" lon="6.35812">
        <ele>1206</ele>
        <time>2022-04-27T20:53:26Z</time>
      </trkpt>
      <trkpt lat="46.23835" lon="6.36037">
        <ele>1223</ele>
        <time>2022-04-27T20:54:03Z</time>
      </trkpt>
      <trkpt lat="46.23845" lon="6.36073">
        <ele>1221</ele>
        <time>2022-04-27T20:54:09Z</time>
      </trkpt>
      <trkpt lat="46.23848" lon="6.36107">
        <ele>1220</ele>
        <time>2022-04-27T20:54:14Z</time>
      </trkpt>
      <trkpt lat="46.23845" lon="6.36183">
        <ele>1221</ele>
        <time>2022-04-27T20:54:27Z</time>
      </trkpt>
      <trkpt lat="46.23842" lon="6.36208">
        <ele>1221</ele>
        <time>2022-04-27T20:54:31Z</time>
      </trkpt>
      <trkpt lat="46.23836" lon="6.36223">
        <ele>1224</ele>
        <time>2022-04-27T20:54:34Z</time>
      </trkpt>
      <trkpt lat="46.23821" lon="6.3624">
        <ele>1227</ele>
        <time>2022-04-27T20:54:38Z</time>
      </trkpt>
      <trkpt lat="46.23793" lon="6.36246">
        <ele>1233</ele>
        <time>2022-04-27T20:54:45Z</time>
      </trkpt>
      <trkpt lat="46.23744" lon="6.36274">
        <ele>1239</ele>
        <time>2022-04-27T20:54:57Z</time>
      </trkpt>
      <trkpt lat="46.23697" lon="6.36262">
        <ele>1247</ele>
        <time>2022-04-27T20:55:08Z</time>
      </trkpt>
      <trkpt lat="46.23597" lon="6.36262">
        <ele>1259</ele>
        <time>2022-04-27T20:55:32Z</time>
      </trkpt>
      <trkpt lat="46.23486" lon="6.36236">
        <ele>1267</ele>
        <time>2022-04-27T20:55:58Z</time>
      </trkpt>
      <trkpt lat="46.23486" lon="6.36236">
        <ele>1267</ele>
        <time>2022-04-27T20:55:58Z</time>
      </trkpt>
      <trkpt lat="46.23454" lon="6.36256">
        <ele>1269</ele>
        <time>2022-04-27T20:56:06Z</time>
      </trkpt>
      <trkpt lat="46.23396" lon="6.36315">
        <ele>1264</ele>
        <time>2022-04-27T20:56:22Z</time>
      </trkpt>
      <trkpt lat="46.23374" lon="6.36345">
        <ele>1257</ele>
        <time>2022-04-27T20:56:30Z</time>
      </trkpt>
      <trkpt lat="46.23349" lon="6.36365">
        <ele>1250</ele>
        <time>2022-04-27T20:56:36Z</time>
      </trkpt>
      <trkpt lat="46.23328" lon="6.3637">
        <ele>1248</ele>
        <time>2022-04-27T20:56:41Z</time>
      </trkpt>
      <trkpt lat="46.23296" lon="6.36365">
        <ele>1250</ele>
        <time>2022-04-27T20:56:49Z</time>
      </trkpt>
      <trkpt lat="46.23279" lon="6.36368">
        <ele>1249</ele>
        <time>2022-04-27T20:56:53Z</time>
      </trkpt>
      <trkpt lat="46.23232" lon="6.36386">
        <ele>1244</ele>
        <time>2022-04-27T20:57:04Z</time>
      </trkpt>
      <trkpt lat="46.23232" lon="6.36386">
        <ele>1244</ele>
        <time>2022-04-27T20:57:04Z</time>
      </trkpt>
      <trkpt lat="46.23198" lon="6.36417">
        <ele>1237</ele>
        <time>2022-04-27T20:57:13Z</time>
      </trkpt>
      <trkpt lat="46.23153" lon="6.36483">
        <ele>1228</ele>
        <time>2022-04-27T20:57:28Z</time>
      </trkpt>
      <trkpt lat="46.2311" lon="6.36534">
        <ele>1227</ele>
        <time>2022-04-27T20:57:41Z</time>
      </trkpt>
      <trkpt lat="46.23079" lon="6.36583">
        <ele>1226</ele>
        <time>2022-04-27T20:57:52Z</time>
      </trkpt>
      <trkpt lat="46.23036" lon="6.36637">
        <ele>1218</ele>
        <time>2022-04-27T20:58:05Z</time>
      </trkpt>
      <trkpt lat="46.2303" lon="6.36648">
        <ele>1217</ele>
        <time>2022-04-27T20:58:08Z</time>
      </trkpt>
      <trkpt lat="46.23031" lon="6.36665">
        <ele>1214</ele>
        <time>2022-04-27T20:58:10Z</time>
      </trkpt>
      <trkpt lat="46.23036" lon="6.36675">
        <ele>1212</ele>
        <time>2022-04-27T20:58:12Z</time>
      </trkpt>
      <trkpt lat="46.2305" lon="6.36682">
        <ele>1210</ele>
        <time>2022-04-27T20:58:16Z</time>
      </trkpt>
      <trkpt lat="46.23062" lon="6.3668">
        <ele>1210</ele>
        <time>2022-04-27T20:58:19Z</time>
      </trkpt>
      <trkpt lat="46.23082" lon="6.36667">
        <ele>1209</ele>
        <time>2022-04-27T20:58:24Z</time>
      </trkpt>
      <trkpt lat="46.23133" lon="6.36603">
        <ele>1207</ele>
        <time>2022-04-27T20:58:40Z</time>
      </trkpt>
      <trkpt lat="46.23198" lon="6.36548">
        <ele>1205</ele>
        <time>2022-04-27T20:58:57Z</time>
      </trkpt>
      <trkpt lat="46.23207" lon="6.36544">
        <ele>1205</ele>
        <time>2022-04-27T20:58:59Z</time>
      </trkpt>
      <trkpt lat="46.23246" lon="6.36547">
        <ele>1199</ele>
        <time>2022-04-27T20:59:09Z</time>
      </trkpt>
      <trkpt lat="46.23283" lon="6.36563">
        <ele>1193</ele>
        <time>2022-04-27T20:59:18Z</time>
      </trkpt>
      <trkpt lat="46.23455" lon="6.36704">
        <ele>1177</ele>
        <time>2022-04-27T21:00:04Z</time>
      </trkpt>
      <trkpt lat="46.23478" lon="6.36734">
        <ele>1172</ele>
        <time>2022-04-27T21:00:11Z</time>
      </trkpt>
      <trkpt lat="46.23505" lon="6.36831">
        <ele>1161</ele>
        <time>2022-04-27T21:00:28Z</time>
      </trkpt>
      <trkpt lat="46.23516" lon="6.36858">
        <ele>1158</ele>
        <time>2022-04-27T21:00:33Z</time>
      </trkpt>
      <trkpt lat="46.23534" lon="6.36876">
        <ele>1155</ele>
        <time>2022-04-27T21:00:38Z</time>
      </trkpt>
      <trkpt lat="46.23565" lon="6.36894">
        <ele>1152</ele>
        <time>2022-04-27T21:00:46Z</time>
      </trkpt>
      <trkpt lat="46.23685" lon="6.37014">
        <ele>1139</ele>
        <time>2022-04-27T21:01:20Z</time>
      </trkpt>
      <trkpt lat="46.23722" lon="6.37039">
        <ele>1137</ele>
        <time>2022-04-27T21:01:29Z</time>
      </trkpt>
      <trkpt lat="46.23728" lon="6.37056">
        <ele>1135</ele>
        <time>2022-04-27T21:01:33Z</time>
      </trkpt>
      <trkpt lat="46.23729" lon="6.37074">
        <ele>1133</ele>
        <time>2022-04-27T21:01:35Z</time>
      </trkpt>
      <trkpt lat="46.23719" lon="6.37137">
        <ele>1127</ele>
        <time>2022-04-27T21:01:46Z</time>
      </trkpt>
      <trkpt lat="46.23719" lon="6.37137">
        <ele>1127</ele>
        <time>2022-04-27T21:01:46Z</time>
      </trkpt>
      <trkpt lat="46.23703" lon="6.37211">
        <ele>1121</ele>
        <time>2022-04-27T21:01:58Z</time>
      </trkpt>
      <trkpt lat="46.23678" lon="6.37284">
        <ele>1113</ele>
        <time>2022-04-27T21:02:12Z</time>
      </trkpt>
      <trkpt lat="46.23677" lon="6.37305">
        <ele>1111</ele>
        <time>2022-04-27T21:02:15Z</time>
      </trkpt>
      <trkpt lat="46.23708" lon="6.3742">
        <ele>1105</ele>
        <time>2022-04-27T21:02:35Z</time>
      </trkpt>
      <trkpt lat="46.23743" lon="6.37595">
        <ele>1096</ele>
        <time>2022-04-27T21:03:04Z</time>
      </trkpt>
      <trkpt lat="46.23786" lon="6.37677">
        <ele>1085</ele>
        <time>2022-04-27T21:03:21Z</time>
      </trkpt>
      <trkpt lat="46.23804" lon="6.37753">
        <ele>1081</ele>
        <time>2022-04-27T21:03:34Z</time>
      </trkpt>
      <trkpt lat="46.23839" lon="6.37843">
        <ele>1080</ele>
        <time>2022-04-27T21:03:51Z</time>
      </trkpt>
      <trkpt lat="46.23863" lon="6.37874">
        <ele>1077</ele>
        <time>2022-04-27T21:03:58Z</time>
      </trkpt>
      <trkpt lat="46.23893" lon="6.37896">
        <ele>1074</ele>
        <time>2022-04-27T21:04:06Z</time>
      </trkpt>
      <trkpt lat="46.23935" lon="6.37917">
        <ele>1072</ele>
        <time>2022-04-27T21:04:16Z</time>
      </trkpt>
      <trkpt lat="46.24065" lon="6.38025">
        <ele>1058</ele>
        <time>2022-04-27T21:04:51Z</time>
      </trkpt>
      <trkpt lat="46.24093" lon="6.38064">
        <ele>1056</ele>
        <time>2022-04-27T21:05:00Z</time>
      </trkpt>
      <trkpt lat="46.24104" lon="6.38101">
        <ele>1054</ele>
        <time>2022-04-27T21:05:07Z</time>
      </trkpt>
      <trkpt lat="46.24118" lon="6.38125">
        <ele>1053</ele>
        <time>2022-04-27T21:05:12Z</time>
      </trkpt>
      <trkpt lat="46.24138" lon="6.38137">
        <ele>1052</ele>
        <time>2022-04-27T21:05:17Z</time>
      </trkpt>
      <trkpt lat="46.24165" lon="6.38143">
        <ele>1051</ele>
        <time>2022-04-27T21:05:23Z</time>
      </trkpt>
      <trkpt lat="46.24223" lon="6.38143">
        <ele>1045</ele>
        <time>2022-04-27T21:05:37Z</time>
      </trkpt>
      <trkpt lat="46.2423" lon="6.38157">
        <ele>1043</ele>
        <time>2022-04-27T21:05:40Z</time>
      </trkpt>
      <trkpt lat="46.2423" lon="6.38169">
        <ele>1042</ele>
        <time>2022-04-27T21:05:42Z</time>
      </trkpt>
      <trkpt lat="46.24205" lon="6.38211">
        <ele>1044</ele>
        <time>2022-04-27T21:05:51Z</time>
      </trkpt>
      <trkpt lat="46.24205" lon="6.38232">
        <ele>1043</ele>
        <time>2022-04-27T21:05:54Z</time>
      </trkpt>
      <trkpt lat="46.24303" lon="6.38345">
        <ele>1023</ele>
        <time>2022-04-27T21:06:23Z</time>
      </trkpt>
      <trkpt lat="46.24318" lon="6.38391">
        <ele>1017</ele>
        <time>2022-04-27T21:06:32Z</time>
      </trkpt>
      <trkpt lat="46.24318" lon="6.38391">
        <ele>1017</ele>
        <time>2022-04-27T21:06:32Z</time>
      </trkpt>
      <trkpt lat="46.24315" lon="6.38414">
        <ele>1017</ele>
        <time>2022-04-27T21:06:35Z</time>
      </trkpt>
      <trkpt lat="46.2432" lon="6.3844">
        <ele>1014</ele>
        <time>2022-04-27T21:06:40Z</time>
      </trkpt>
      <trkpt lat="46.24334" lon="6.38467">
        <ele>1010</ele>
        <time>2022-04-27T21:06:45Z</time>
      </trkpt>
      <trkpt lat="46.24362" lon="6.38497">
        <ele>1007</ele>
        <time>2022-04-27T21:06:53Z</time>
      </trkpt>
      <trkpt lat="46.24394" lon="6.38515">
        <ele>1006</ele>
        <time>2022-04-27T21:07:01Z</time>
      </trkpt>
      <trkpt lat="46.24399" lon="6.38523">
        <ele>1006</ele>
        <time>2022-04-27T21:07:03Z</time>
      </trkpt>
      <trkpt lat="46.24428" lon="6.38527">
        <ele>1003</ele>
        <time>2022-04-27T21:07:10Z</time>
      </trkpt>
      <trkpt lat="46.24455" lon="6.38539">
        <ele>1000</ele>
        <time>2022-04-27T21:07:16Z</time>
      </trkpt>
      <trkpt lat="46.24479" lon="6.38555">
        <ele>996</ele>
        <time>2022-04-27T21:07:23Z</time>
      </trkpt>
      <trkpt lat="46.24508" lon="6.3859">
        <ele>992</ele>
        <time>2022-04-27T21:07:31Z</time>
      </trkpt>
      <trkpt lat="46.24514" lon="6.38588">
        <ele>992</ele>
        <time>2022-04-27T21:07:33Z</time>
      </trkpt>
      <trkpt lat="46.24514" lon="6.38588">
        <ele>992</ele>
        <time>2022-04-27T21:07:33Z</time>
      </trkpt>
      <trkpt lat="46.24614" lon="6.38733">
        <ele>981</ele>
        <time>2022-04-27T21:08:06Z</time>
      </trkpt>
      <trkpt lat="46.24638" lon="6.38815">
        <ele>985</ele>
        <time>2022-04-27T21:08:20Z</time>
      </trkpt>
      <trkpt lat="46.24645" lon="6.38829">
        <ele>987</ele>
        <time>2022-04-27T21:08:23Z</time>
      </trkpt>
      <trkpt lat="46.24678" lon="6.38864">
        <ele>992</ele>
        <time>2022-04-27T21:08:33Z</time>
      </trkpt>
      <trkpt lat="46.24729" lon="6.38908">
        <ele>990</ele>
        <time>2022-04-27T21:08:47Z</time>
      </trkpt>
      <trkpt lat="46.24746" lon="6.38931">
        <ele>988</ele>
        <time>2022-04-27T21:08:52Z</time>
      </trkpt>
      <trkpt lat="46.24769" lon="6.39023">
        <ele>982</ele>
        <time>2022-04-27T21:09:08Z</time>
      </trkpt>
      <trkpt lat="46.24784" lon="6.3905">
        <ele>978</ele>
        <time>2022-04-27T21:09:13Z</time>
      </trkpt>
      <trkpt lat="46.24821" lon="6.39099">
        <ele>978</ele>
        <time>2022-04-27T21:09:25Z</time>
      </trkpt>
      <trkpt lat="46.24833" lon="6.3913">
        <ele>979</ele>
        <time>2022-04-27T21:09:31Z</time>
      </trkpt>
      <trkpt lat="46.24834" lon="6.39155">
        <ele>980</ele>
        <time>2022-04-27T21:09:35Z</time>
      </trkpt>
      <trkpt lat="46.2483" lon="6.3919">
        <ele>979</ele>
        <time>2022-04-27T21:09:41Z</time>
      </trkpt>
      <trkpt lat="46.24805" lon="6.39245">
        <ele>973</ele>
        <time>2022-04-27T21:09:51Z</time>
      </trkpt>
      <trkpt lat="46.24803" lon="6.39266">
        <ele>971</ele>
        <time>2022-04-27T21:09:55Z</time>
      </trkpt>
      <trkpt lat="46.24818" lon="6.39315">
        <ele>968</ele>
        <time>2022-04-27T21:10:03Z</time>
      </trkpt>
      <trkpt lat="46.24874" lon="6.39423">
        <ele>966</ele>
        <time>2022-04-27T21:10:25Z</time>
      </trkpt>
      <trkpt lat="46.24884" lon="6.39456">
        <ele>964</ele>
        <time>2022-04-27T21:10:31Z</time>
      </trkpt>
      <trkpt lat="46.24903" lon="6.3956">
        <ele>960</ele>
        <time>2022-04-27T21:10:48Z</time>
      </trkpt>
      <trkpt lat="46.24892" lon="6.39599">
        <ele>957</ele>
        <time>2022-04-27T21:10:55Z</time>
      </trkpt>
      <trkpt lat="46.24808" lon="6.39713">
        <ele>948</ele>
        <time>2022-04-27T21:11:22Z</time>
      </trkpt>
      <trkpt lat="46.24808" lon="6.39713">
        <ele>948</ele>
        <time>2022-04-27T21:11:22Z</time>
      </trkpt>
      <trkpt lat="46.24769" lon="6.3977">
        <ele>947</ele>
        <time>2022-04-27T21:11:35Z</time>
      </trkpt>
      <trkpt lat="46.24751" lon="6.39774">
        <ele>947</ele>
        <time>2022-04-27T21:11:39Z</time>
      </trkpt>
      <trkpt lat="46.24751" lon="6.39774">
        <ele>947</ele>
        <time>2022-04-27T21:11:39Z</time>
      </trkpt>
      <trkpt lat="46.24567" lon="6.39718">
        <ele>941</ele>
        <time>2022-04-27T21:12:23Z</time>
      </trkpt>
      <trkpt lat="46.24567" lon="6.39718">
        <ele>941</ele>
        <time>2022-04-27T21:12:23Z</time>
      </trkpt>
      <trkpt lat="46.24563" lon="6.39742">
        <ele>942</ele>
        <time>2022-04-27T21:12:27Z</time>
      </trkpt>
      <trkpt lat="46.24552" lon="6.3976">
        <ele>943</ele>
        <time>2022-04-27T21:12:31Z</time>
      </trkpt>
      <trkpt lat="46.24524" lon="6.39781">
        <ele>947</ele>
        <time>2022-04-27T21:12:38Z</time>
      </trkpt>
      <trkpt lat="46.24507" lon="6.39778">
        <ele>946</ele>
        <time>2022-04-27T21:12:42Z</time>
      </trkpt>
      <trkpt lat="46.24507" lon="6.39778">
        <ele>946</ele>
        <time>2022-04-27T21:12:42Z</time>
      </trkpt>
      <trkpt lat="46.24459" lon="6.39766">
        <ele>946</ele>
        <time>2022-04-27T21:12:54Z</time>
      </trkpt>
      <trkpt lat="46.24459" lon="6.39766">
        <ele>946</ele>
        <time>2022-04-27T21:12:54Z</time>
      </trkpt>
      <trkpt lat="46.2446" lon="6.39779">
        <ele>949</ele>
        <time>2022-04-27T21:12:56Z</time>
      </trkpt>
      <trkpt lat="46.24498" lon="6.39801">
        <ele>951</ele>
        <time>2022-04-27T21:13:05Z</time>
      </trkpt>
      <trkpt lat="46.24513" lon="6.39813">
        <ele>953</ele>
        <time>2022-04-27T21:13:09Z</time>
      </trkpt>
      <trkpt lat="46.24527" lon="6.39832">
        <ele>956</ele>
        <time>2022-04-27T21:13:14Z</time>
      </trkpt>
      <trkpt lat="46.24548" lon="6.39897">
        <ele>971</ele>
        <time>2022-04-27T21:13:25Z</time>
      </trkpt>
      <trkpt lat="46.24553" lon="6.39933">
        <ele>979</ele>
        <time>2022-04-27T21:13:31Z</time>
      </trkpt>
      <trkpt lat="46.24573" lon="6.40014">
        <ele>994</ele>
        <time>2022-04-27T21:13:45Z</time>
      </trkpt>
      <trkpt lat="46.24599" lon="6.40055">
        <ele>998</ele>
        <time>2022-04-27T21:13:54Z</time>
      </trkpt>
      <trkpt lat="46.24603" lon="6.4007">
        <ele>999</ele>
        <time>2022-04-27T21:13:57Z</time>
      </trkpt>
      <trkpt lat="46.24621" lon="6.40151">
        <ele>1011</ele>
        <time>2022-04-27T21:14:11Z</time>
      </trkpt>
      <trkpt lat="46.24623" lon="6.40204">
        <ele>1020</ele>
        <time>2022-04-27T21:14:19Z</time>
      </trkpt>
      <trkpt lat="46.24629" lon="6.40237">
        <ele>1025</ele>
        <time>2022-04-27T21:14:25Z</time>
      </trkpt>
      <trkpt lat="46.24655" lon="6.40266">
        <ele>1030</ele>
        <time>2022-04-27T21:14:32Z</time>
      </trkpt>
      <trkpt lat="46.24706" lon="6.40303">
        <ele>1033</ele>
        <time>2022-04-27T21:14:46Z</time>
      </trkpt>
      <trkpt lat="46.24706" lon="6.40303">
        <ele>1033</ele>
        <time>2022-04-27T21:14:46Z</time>
      </trkpt>
      <trkpt lat="46.24674" lon="6.40326">
        <ele>1040</ele>
        <time>2022-04-27T21:14:54Z</time>
      </trkpt>
      <trkpt lat="46.24671" lon="6.4035">
        <ele>1044</ele>
        <time>2022-04-27T21:14:58Z</time>
      </trkpt>
      <trkpt lat="46.24675" lon="6.40357">
        <ele>1045</ele>
        <time>2022-04-27T21:14:59Z</time>
      </trkpt>
      <trkpt lat="46.24706" lon="6.40362">
        <ele>1044</ele>
        <time>2022-04-27T21:15:07Z</time>
      </trkpt>
      <trkpt lat="46.24723" lon="6.40372">
        <ele>1045</ele>
        <time>2022-04-27T21:15:11Z</time>
      </trkpt>
      <trkpt lat="46.24726" lon="6.40383">
        <ele>1046</ele>
        <time>2022-04-27T21:15:13Z</time>
      </trkpt>
      <trkpt lat="46.24722" lon="6.40394">
        <ele>1048</ele>
        <time>2022-04-27T21:15:15Z</time>
      </trkpt>
      <trkpt lat="46.24698" lon="6.40397">
        <ele>1050</ele>
        <time>2022-04-27T21:15:21Z</time>
      </trkpt>
      <trkpt lat="46.24637" lon="6.40441">
        <ele>1055</ele>
        <time>2022-04-27T21:15:36Z</time>
      </trkpt>
      <trkpt lat="46.24606" lon="6.40446">
        <ele>1055</ele>
        <time>2022-04-27T21:15:44Z</time>
      </trkpt>
      <trkpt lat="46.24592" lon="6.40456">
        <ele>1056</ele>
        <time>2022-04-27T21:15:47Z</time>
      </trkpt>
      <trkpt lat="46.24592" lon="6.40456">
        <ele>1056</ele>
        <time>2022-04-27T21:15:47Z</time>
      </trkpt>
      <trkpt lat="46.246" lon="6.40463">
        <ele>1056</ele>
        <time>2022-04-27T21:15:50Z</time>
      </trkpt>
      <trkpt lat="46.24629" lon="6.40469">
        <ele>1057</ele>
        <time>2022-04-27T21:15:56Z</time>
      </trkpt>
      <trkpt lat="46.24682" lon="6.40503">
        <ele>1060</ele>
        <time>2022-04-27T21:16:10Z</time>
      </trkpt>
      <trkpt lat="46.24749" lon="6.40532">
        <ele>1067</ele>
        <time>2022-04-27T21:16:26Z</time>
      </trkpt>
      <trkpt lat="46.24767" lon="6.40546">
        <ele>1067</ele>
        <time>2022-04-27T21:16:31Z</time>
      </trkpt>
      <trkpt lat="46.24887" lon="6.407">
        <ele>1074</ele>
        <time>2022-04-27T21:17:09Z</time>
      </trkpt>
      <trkpt lat="46.24891" lon="6.40711">
        <ele>1075</ele>
        <time>2022-04-27T21:17:11Z</time>
      </trkpt>
      <trkpt lat="46.24891" lon="6.40726">
        <ele>1078</ele>
        <time>2022-04-27T21:17:13Z</time>
      </trkpt>
      <trkpt lat="46.24887" lon="6.40734">
        <ele>1080</ele>
        <time>2022-04-27T21:17:15Z</time>
      </trkpt>
      <trkpt lat="46.24881" lon="6.40733">
        <ele>1081</ele>
        <time>2022-04-27T21:17:16Z</time>
      </trkpt>
      <trkpt lat="46.24844" lon="6.40689">
        <ele>1080</ele>
        <time>2022-04-27T21:17:27Z</time>
      </trkpt>
      <trkpt lat="46.24791" lon="6.40665">
        <ele>1082</ele>
        <time>2022-04-27T21:17:40Z</time>
      </trkpt>
      <trkpt lat="46.24747" lon="6.40661">
        <ele>1086</ele>
        <time>2022-04-27T21:17:50Z</time>
      </trkpt>
      <trkpt lat="46.24725" lon="6.40652">
        <ele>1086</ele>
        <time>2022-04-27T21:17:56Z</time>
      </trkpt>
      <trkpt lat="46.24718" lon="6.40653">
        <ele>1086</ele>
        <time>2022-04-27T21:17:57Z</time>
      </trkpt>
      <trkpt lat="46.24712" lon="6.40664">
        <ele>1089</ele>
        <time>2022-04-27T21:18:00Z</time>
      </trkpt>
      <trkpt lat="46.24712" lon="6.40664">
        <ele>1089</ele>
        <time>2022-04-27T21:18:00Z</time>
      </trkpt>
      <trkpt lat="46.24713" lon="6.40677">
        <ele>1091</ele>
        <time>2022-04-27T21:18:02Z</time>
      </trkpt>
      <trkpt lat="46.24718" lon="6.40681">
        <ele>1092</ele>
        <time>2022-04-27T21:18:03Z</time>
      </trkpt>
      <trkpt lat="46.24744" lon="6.40689">
        <ele>1091</ele>
        <time>2022-04-27T21:18:09Z</time>
      </trkpt>
      <trkpt lat="46.24765" lon="6.40704">
        <ele>1092</ele>
        <time>2022-04-27T21:18:15Z</time>
      </trkpt>
      <trkpt lat="46.24841" lon="6.40807">
        <ele>1097</ele>
        <time>2022-04-27T21:18:39Z</time>
      </trkpt>
      <trkpt lat="46.24844" lon="6.40821">
        <ele>1098</ele>
        <time>2022-04-27T21:18:42Z</time>
      </trkpt>
      <trkpt lat="46.24837" lon="6.40834">
        <ele>1102</ele>
        <time>2022-04-27T21:18:44Z</time>
      </trkpt>
      <trkpt lat="46.24832" lon="6.40834">
        <ele>1103</ele>
        <time>2022-04-27T21:18:45Z</time>
      </trkpt>
      <trkpt lat="46.24832" lon="6.40834">
        <ele>1103</ele>
        <time>2022-04-27T21:18:45Z</time>
      </trkpt>
      <trkpt lat="46.24811" lon="6.40806">
        <ele>1104</ele>
        <time>2022-04-27T21:18:52Z</time>
      </trkpt>
      <trkpt lat="46.24787" lon="6.40791">
        <ele>1105</ele>
        <time>2022-04-27T21:18:58Z</time>
      </trkpt>
      <trkpt lat="46.24742" lon="6.40782">
        <ele>1110</ele>
        <time>2022-04-27T21:19:09Z</time>
      </trkpt>
      <trkpt lat="46.2471" lon="6.40784">
        <ele>1113</ele>
        <time>2022-04-27T21:19:16Z</time>
      </trkpt>
      <trkpt lat="46.24666" lon="6.40801">
        <ele>1119</ele>
        <time>2022-04-27T21:19:27Z</time>
      </trkpt>
      <trkpt lat="46.24661" lon="6.40809">
        <ele>1121</ele>
        <time>2022-04-27T21:19:29Z</time>
      </trkpt>
      <trkpt lat="46.24646" lon="6.40812">
        <ele>1123</ele>
        <time>2022-04-27T21:19:32Z</time>
      </trkpt>
      <trkpt lat="46.24622" lon="6.40826">
        <ele>1128</ele>
        <time>2022-04-27T21:19:38Z</time>
      </trkpt>
      <trkpt lat="46.24555" lon="6.40851">
        <ele>1139</ele>
        <time>2022-04-27T21:19:54Z</time>
      </trkpt>
      <trkpt lat="46.24508" lon="6.40858">
        <ele>1142</ele>
        <time>2022-04-27T21:20:05Z</time>
      </trkpt>
      <trkpt lat="46.24488" lon="6.4087">
        <ele>1146</ele>
        <time>2022-04-27T21:20:10Z</time>
      </trkpt>
      <trkpt lat="46.24408" lon="6.40868">
        <ele>1156</ele>
        <time>2022-04-27T21:20:29Z</time>
      </trkpt>
      <trkpt lat="46.24319" lon="6.40892">
        <ele>1173</ele>
        <time>2022-04-27T21:20:50Z</time>
      </trkpt>
      <trkpt lat="46.24272" lon="6.40892">
        <ele>1178</ele>
        <time>2022-04-27T21:21:01Z</time>
      </trkpt>
      <trkpt lat="46.2416" lon="6.40921">
        <ele>1190</ele>
        <time>2022-04-27T21:21:28Z</time>
      </trkpt>
      <trkpt lat="46.24139" lon="6.40932">
        <ele>1194</ele>
        <time>2022-04-27T21:21:33Z</time>
      </trkpt>
      <trkpt lat="46.24101" lon="6.40967">
        <ele>1204</ele>
        <time>2022-04-27T21:21:44Z</time>
      </trkpt>
      <trkpt lat="46.24075" lon="6.40979">
        <ele>1207</ele>
        <time>2022-04-27T21:21:50Z</time>
      </trkpt>
      <trkpt lat="46.24045" lon="6.4101">
        <ele>1215</ele>
        <time>2022-04-27T21:21:59Z</time>
      </trkpt>
      <trkpt lat="46.24045" lon="6.4101">
        <ele>1215</ele>
        <time>2022-04-27T21:21:59Z</time>
      </trkpt>
      <trkpt lat="46.24063" lon="6.41028">
        <ele>1220</ele>
        <time>2022-04-27T21:22:04Z</time>
      </trkpt>
      <trkpt lat="46.241" lon="6.41036">
        <ele>1222</ele>
        <time>2022-04-27T21:22:12Z</time>
      </trkpt>
      <trkpt lat="46.24157" lon="6.41064">
        <ele>1223</ele>
        <time>2022-04-27T21:22:26Z</time>
      </trkpt>
      <trkpt lat="46.24187" lon="6.41064">
        <ele>1222</ele>
        <time>2022-04-27T21:22:33Z</time>
      </trkpt>
      <trkpt lat="46.24199" lon="6.4107">
        <ele>1223</ele>
        <time>2022-04-27T21:22:36Z</time>
      </trkpt>
      <trkpt lat="46.24264" lon="6.41135">
        <ele>1230</ele>
        <time>2022-04-27T21:22:55Z</time>
      </trkpt>
      <trkpt lat="46.24264" lon="6.41135">
        <ele>1230</ele>
        <time>2022-04-27T21:22:55Z</time>
      </trkpt>
      <trkpt lat="46.24294" lon="6.41167">
        <ele>1232</ele>
        <time>2022-04-27T21:23:04Z</time>
      </trkpt>
      <trkpt lat="46.24303" lon="6.41186">
        <ele>1234</ele>
        <time>2022-04-27T21:23:07Z</time>
      </trkpt>
      <trkpt lat="46.24302" lon="6.41191">
        <ele>1235</ele>
        <time>2022-04-27T21:23:08Z</time>
      </trkpt>
      <trkpt lat="46.24296" lon="6.41193">
        <ele>1236</ele>
        <time>2022-04-27T21:23:10Z</time>
      </trkpt>
      <trkpt lat="46.24225" lon="6.41174">
        <ele>1238</ele>
        <time>2022-04-27T21:23:26Z</time>
      </trkpt>
      <trkpt lat="46.24133" lon="6.4119">
        <ele>1251</ele>
        <time>2022-04-27T21:23:48Z</time>
      </trkpt>
      <trkpt lat="46.24133" lon="6.4119">
        <ele>1251</ele>
        <time>2022-04-27T21:23:48Z</time>
      </trkpt>
      <trkpt lat="46.24119" lon="6.41194">
        <ele>1255</ele>
        <time>2022-04-27T21:23:51Z</time>
      </trkpt>
      <trkpt lat="46.24169" lon="6.41229">
        <ele>1252</ele>
        <time>2022-04-27T21:24:04Z</time>
      </trkpt>
      <trkpt lat="46.24182" lon="6.41242">
        <ele>1253</ele>
        <time>2022-04-27T21:24:08Z</time>
      </trkpt>
      <trkpt lat="46.24184" lon="6.41254">
        <ele>1255</ele>
        <time>2022-04-27T21:24:10Z</time>
      </trkpt>
      <trkpt lat="46.24191" lon="6.4126">
        <ele>1255</ele>
        <time>2022-04-27T21:24:12Z</time>
      </trkpt>
      <trkpt lat="46.24191" lon="6.4126">
        <ele>1255</ele>
        <time>2022-04-27T21:24:12Z</time>
      </trkpt>
      <trkpt lat="46.24182" lon="6.4128">
        <ele>1260</ele>
        <time>2022-04-27T21:24:16Z</time>
      </trkpt>
      <trkpt lat="46.24181" lon="6.41296">
        <ele>1262</ele>
        <time>2022-04-27T21:24:18Z</time>
      </trkpt>
      <trkpt lat="46.24208" lon="6.41328">
        <ele>1266</ele>
        <time>2022-04-27T21:24:27Z</time>
      </trkpt>
      <trkpt lat="46.24217" lon="6.41372">
        <ele>1272</ele>
        <time>2022-04-27T21:24:34Z</time>
      </trkpt>
      <trkpt lat="46.24236" lon="6.414">
        <ele>1274</ele>
        <time>2022-04-27T21:24:40Z</time>
      </trkpt>
      <trkpt lat="46.24243" lon="6.41437">
        <ele>1278</ele>
        <time>2022-04-27T21:24:47Z</time>
      </trkpt>
      <trkpt lat="46.24265" lon="6.41489">
        <ele>1280</ele>
        <time>2022-04-27T21:24:56Z</time>
      </trkpt>
      <trkpt lat="46.24265" lon="6.41489">
        <ele>1280</ele>
        <time>2022-04-27T21:24:56Z</time>
      </trkpt>
      <trkpt lat="46.24263" lon="6.41514">
        <ele>1281</ele>
        <time>2022-04-27T21:25:00Z</time>
      </trkpt>
      <trkpt lat="46.24243" lon="6.41533">
        <ele>1283</ele>
        <time>2022-04-27T21:25:06Z</time>
      </trkpt>
      <trkpt lat="46.24243" lon="6.41533">
        <ele>1283</ele>
        <time>2022-04-27T21:25:06Z</time>
      </trkpt>
      <trkpt lat="46.24249" lon="6.41571">
        <ele>1284</ele>
        <time>2022-04-27T21:25:12Z</time>
      </trkpt>
      <trkpt lat="46.24243" lon="6.41624">
        <ele>1285</ele>
        <time>2022-04-27T21:25:21Z</time>
      </trkpt>
      <trkpt lat="46.24226" lon="6.41653">
        <ele>1286</ele>
        <time>2022-04-27T21:25:27Z</time>
      </trkpt>
      <trkpt lat="46.2422" lon="6.4168">
        <ele>1288</ele>
        <time>2022-04-27T21:25:32Z</time>
      </trkpt>
      <trkpt lat="46.24219" lon="6.41712">
        <ele>1289</ele>
        <time>2022-04-27T21:25:37Z</time>
      </trkpt>
      <trkpt lat="46.24226" lon="6.41765">
        <ele>1289</ele>
        <time>2022-04-27T21:25:46Z</time>
      </trkpt>
      <trkpt lat="46.24223" lon="6.41778">
        <ele>1288</ele>
        <time>2022-04-27T21:25:48Z</time>
      </trkpt>
      <trkpt lat="46.24194" lon="6.41849">
        <ele>1285</ele>
        <time>2022-04-27T21:26:01Z</time>
      </trkpt>
      <trkpt lat="46.24152" lon="6.41904">
        <ele>1281</ele>
        <time>2022-04-27T21:26:14Z</time>
      </trkpt>
      <trkpt lat="46.24148" lon="6.41913">
        <ele>1281</ele>
        <time>2022-04-27T21:26:16Z</time>
      </trkpt>
      <trkpt lat="46.24145" lon="6.41943">
        <ele>1280</ele>
        <time>2022-04-27T21:26:21Z</time>
      </trkpt>
      <trkpt lat="46.24145" lon="6.41943">
        <ele>1280</ele>
        <time>2022-04-27T21:26:21Z</time>
      </trkpt>
      <trkpt lat="46.24146" lon="6.41963">
        <ele>1279</ele>
        <time>2022-04-27T21:26:24Z</time>
      </trkpt>
      <trkpt lat="46.24164" lon="6.41998">
        <ele>1277</ele>
        <time>2022-04-27T21:26:31Z</time>
      </trkpt>
      <trkpt lat="46.24172" lon="6.42032">
        <ele>1276</ele>
        <time>2022-04-27T21:26:37Z</time>
      </trkpt>
      <trkpt lat="46.24178" lon="6.42042">
        <ele>1276</ele>
        <time>2022-04-27T21:26:39Z</time>
      </trkpt>
      <trkpt lat="46.24225" lon="6.42078">
        <ele>1279</ele>
        <time>2022-04-27T21:26:52Z</time>
      </trkpt>
      <trkpt lat="46.24255" lon="6.42098">
        <ele>1279</ele>
        <time>2022-04-27T21:26:59Z</time>
      </trkpt>
      <trkpt lat="46.2437" lon="6.42156">
        <ele>1284</ele>
        <time>2022-04-27T21:27:28Z</time>
      </trkpt>
      <trkpt lat="46.24424" lon="6.42193">
        <ele>1286</ele>
        <time>2022-04-27T21:27:42Z</time>
      </trkpt>
      <trkpt lat="46.24532" lon="6.42228">
        <ele>1284</ele>
        <time>2022-04-27T21:28:08Z</time>
      </trkpt>
      <trkpt lat="46.24532" lon="6.42228">
        <ele>1284</ele>
        <time>2022-04-27T21:28:08Z</time>
      </trkpt>
      <trkpt lat="46.24555" lon="6.42245">
        <ele>1283</ele>
        <time>2022-04-27T21:28:14Z</time>
      </trkpt>
      <trkpt lat="46.2457" lon="6.42265">
        <ele>1283</ele>
        <time>2022-04-27T21:28:18Z</time>
      </trkpt>
      <trkpt lat="46.246" lon="6.42338">
        <ele>1283</ele>
        <time>2022-04-27T21:28:32Z</time>
      </trkpt>
      <trkpt lat="46.24603" lon="6.42349">
        <ele>1282</ele>
        <time>2022-04-27T21:28:34Z</time>
      </trkpt>
      <trkpt lat="46.24602" lon="6.42368">
        <ele>1280</ele>
        <time>2022-04-27T21:28:37Z</time>
      </trkpt>
      <trkpt lat="46.24602" lon="6.42368">
        <ele>1280</ele>
        <time>2022-04-27T21:28:37Z</time>
      </trkpt>
      <trkpt lat="46.24614" lon="6.42355">
        <ele>1282</ele>
        <time>2022-04-27T21:28:41Z</time>
      </trkpt>
      <trkpt lat="46.24614" lon="6.42355">
        <ele>1282</ele>
        <time>2022-04-27T21:28:41Z</time>
      </trkpt>
      <trkpt lat="46.24602" lon="6.42368">
        <ele>1280</ele>
        <time>2022-04-27T21:28:44Z</time>
      </trkpt>
      <trkpt lat="46.24594" lon="6.42399">
        <ele>1277</ele>
        <time>2022-04-27T21:28:49Z</time>
      </trkpt>
      <trkpt lat="46.24592" lon="6.4246">
        <ele>1269</ele>
        <time>2022-04-27T21:28:59Z</time>
      </trkpt>
      <trkpt lat="46.24572" lon="6.42495">
        <ele>1263</ele>
        <time>2022-04-27T21:29:07Z</time>
      </trkpt>
      <trkpt lat="46.24468" lon="6.42556">
        <ele>1244</ele>
        <time>2022-04-27T21:29:33Z</time>
      </trkpt>
      <trkpt lat="46.24425" lon="6.42589">
        <ele>1232</ele>
        <time>2022-04-27T21:29:44Z</time>
      </trkpt>
      <trkpt lat="46.24425" lon="6.42589">
        <ele>1232</ele>
        <time>2022-04-27T21:29:44Z</time>
      </trkpt>
      <trkpt lat="46.24431" lon="6.42593">
        <ele>1232</ele>
        <time>2022-04-27T21:29:46Z</time>
      </trkpt>
      <trkpt lat="46.24431" lon="6.42593">
        <ele>1232</ele>
        <time>2022-04-27T21:29:46Z</time>
      </trkpt>
      <trkpt lat="46.24505" lon="6.42651">
        <ele>1233</ele>
        <time>2022-04-27T21:30:05Z</time>
      </trkpt>
      <trkpt lat="46.24574" lon="6.42691">
        <ele>1230</ele>
        <time>2022-04-27T21:30:23Z</time>
      </trkpt>
      <trkpt lat="46.2467" lon="6.42703">
        <ele>1226</ele>
        <time>2022-04-27T21:30:45Z</time>
      </trkpt>
      <trkpt lat="46.24691" lon="6.42713">
        <ele>1225</ele>
        <time>2022-04-27T21:30:50Z</time>
      </trkpt>
      <trkpt lat="46.24771" lon="6.42783">
        <ele>1211</ele>
        <time>2022-04-27T21:31:12Z</time>
      </trkpt>
      <trkpt lat="46.24814" lon="6.4283">
        <ele>1200</ele>
        <time>2022-04-27T21:31:25Z</time>
      </trkpt>
      <trkpt lat="46.24891" lon="6.42926">
        <ele>1193</ele>
        <time>2022-04-27T21:31:49Z</time>
      </trkpt>
      <trkpt lat="46.24927" lon="6.42952">
        <ele>1190</ele>
        <time>2022-04-27T21:31:58Z</time>
      </trkpt>
      <trkpt lat="46.24941" lon="6.42952">
        <ele>1190</ele>
        <time>2022-04-27T21:32:01Z</time>
      </trkpt>
      <trkpt lat="46.25014" lon="6.42928">
        <ele>1198</ele>
        <time>2022-04-27T21:32:19Z</time>
      </trkpt>
      <trkpt lat="46.25034" lon="6.42929">
        <ele>1196</ele>
        <time>2022-04-27T21:32:23Z</time>
      </trkpt>
      <trkpt lat="46.25041" lon="6.42943">
        <ele>1192</ele>
        <time>2022-04-27T21:32:26Z</time>
      </trkpt>
      <trkpt lat="46.25048" lon="6.42985">
        <ele>1181</ele>
        <time>2022-04-27T21:32:33Z</time>
      </trkpt>
      <trkpt lat="46.2506" lon="6.43004">
        <ele>1178</ele>
        <time>2022-04-27T21:32:37Z</time>
      </trkpt>
      <trkpt lat="46.2506" lon="6.43004">
        <ele>1178</ele>
        <time>2022-04-27T21:32:37Z</time>
      </trkpt>
      <trkpt lat="46.25072" lon="6.43008">
        <ele>1178</ele>
        <time>2022-04-27T21:32:40Z</time>
      </trkpt>
      <trkpt lat="46.2512" lon="6.42996">
        <ele>1181</ele>
        <time>2022-04-27T21:32:52Z</time>
      </trkpt>
      <trkpt lat="46.25133" lon="6.42998">
        <ele>1181</ele>
        <time>2022-04-27T21:32:55Z</time>
      </trkpt>
      <trkpt lat="46.25147" lon="6.43004">
        <ele>1180</ele>
        <time>2022-04-27T21:32:58Z</time>
      </trkpt>
      <trkpt lat="46.25183" lon="6.43035">
        <ele>1176</ele>
        <time>2022-04-27T21:33:08Z</time>
      </trkpt>
      <trkpt lat="46.25226" lon="6.43063">
        <ele>1174</ele>
        <time>2022-04-27T21:33:19Z</time>
      </trkpt>
      <trkpt lat="46.25295" lon="6.43138">
        <ele>1166</ele>
        <time>2022-04-27T21:33:39Z</time>
      </trkpt>
      <trkpt lat="46.25352" lon="6.43191">
        <ele>1162</ele>
        <time>2022-04-27T21:33:55Z</time>
      </trkpt>
      <trkpt lat="46.25374" lon="6.4322">
        <ele>1158</ele>
        <time>2022-04-27T21:34:02Z</time>
      </trkpt>
      <trkpt lat="46.25381" lon="6.43235">
        <ele>1156</ele>
        <time>2022-04-27T21:34:05Z</time>
      </trkpt>
      <trkpt lat="46.25414" lon="6.43358">
        <ele>1147</ele>
        <time>2022-04-27T21:34:26Z</time>
      </trkpt>
      <trkpt lat="46.25414" lon="6.43358">
        <ele>1147</ele>
        <time>2022-04-27T21:34:26Z</time>
      </trkpt>
      <trkpt lat="46.25424" lon="6.43383">
        <ele>1147</ele>
        <time>2022-04-27T21:34:31Z</time>
      </trkpt>
      <trkpt lat="46.25438" lon="6.43404">
        <ele>1148</ele>
        <time>2022-04-27T21:34:35Z</time>
      </trkpt>
      <trkpt lat="46.25438" lon="6.43404">
        <ele>1148</ele>
        <time>2022-04-27T21:34:35Z</time>
      </trkpt>
      <trkpt lat="46.25453" lon="6.43387">
        <ele>1151</ele>
        <time>2022-04-27T21:34:40Z</time>
      </trkpt>
      <trkpt lat="46.25466" lon="6.43382">
        <ele>1154</ele>
        <time>2022-04-27T21:34:43Z</time>
      </trkpt>
      <trkpt lat="46.25496" lon="6.43384">
        <ele>1158</ele>
        <time>2022-04-27T21:34:50Z</time>
      </trkpt>
      <trkpt lat="46.25526" lon="6.43401">
        <ele>1161</ele>
        <time>2022-04-27T21:34:58Z</time>
      </trkpt>
      <trkpt lat="46.25526" lon="6.43401">
        <ele>1161</ele>
        <time>2022-04-27T21:34:58Z</time>
      </trkpt>
      <trkpt lat="46.25543" lon="6.43405">
        <ele>1163</ele>
        <time>2022-04-27T21:35:02Z</time>
      </trkpt>
      <trkpt lat="46.25543" lon="6.43405">
        <ele>1163</ele>
        <time>2022-04-27T21:35:02Z</time>
      </trkpt>
      <trkpt lat="46.25538" lon="6.43432">
        <ele>1161</ele>
        <time>2022-04-27T21:35:06Z</time>
      </trkpt>
      <trkpt lat="46.25542" lon="6.43471">
        <ele>1158</ele>
        <time>2022-04-27T21:35:12Z</time>
      </trkpt>
      <trkpt lat="46.2556" lon="6.43508">
        <ele>1158</ele>
        <time>2022-04-27T21:35:20Z</time>
      </trkpt>
      <trkpt lat="46.25612" lon="6.43659">
        <ele>1157</ele>
        <time>2022-04-27T21:35:47Z</time>
      </trkpt>
      <trkpt lat="46.25612" lon="6.43659">
        <ele>1157</ele>
        <time>2022-04-27T21:35:47Z</time>
      </trkpt>
      <trkpt lat="46.25627" lon="6.43679">
        <ele>1157</ele>
        <time>2022-04-27T21:35:52Z</time>
      </trkpt>
      <trkpt lat="46.25622" lon="6.43694">
        <ele>1156</ele>
        <time>2022-04-27T21:35:54Z</time>
      </trkpt>
      <trkpt lat="46.25621" lon="6.43746">
        <ele>1153</ele>
        <time>2022-04-27T21:36:03Z</time>
      </trkpt>
      <trkpt lat="46.25607" lon="6.43792">
        <ele>1158</ele>
        <time>2022-04-27T21:36:11Z</time>
      </trkpt>
      <trkpt lat="46.25601" lon="6.43828">
        <ele>1163</ele>
        <time>2022-04-27T21:36:17Z</time>
      </trkpt>
      <trkpt lat="46.25612" lon="6.43864">
        <ele>1167</ele>
        <time>2022-04-27T21:36:23Z</time>
      </trkpt>
      <trkpt lat="46.25616" lon="6.43979">
        <ele>1186</ele>
        <time>2022-04-27T21:36:42Z</time>
      </trkpt>
      <trkpt lat="46.25626" lon="6.44017">
        <ele>1192</ele>
        <time>2022-04-27T21:36:48Z</time>
      </trkpt>
      <trkpt lat="46.25634" lon="6.44089">
        <ele>1205</ele>
        <time>2022-04-27T21:37:00Z</time>
      </trkpt>
      <trkpt lat="46.25618" lon="6.44165">
        <ele>1217</ele>
        <time>2022-04-27T21:37:13Z</time>
      </trkpt>
      <trkpt lat="46.25587" lon="6.44239">
        <ele>1232</ele>
        <time>2022-04-27T21:37:27Z</time>
      </trkpt>
      <trkpt lat="46.25587" lon="6.44239">
        <ele>1232</ele>
        <time>2022-04-27T21:37:27Z</time>
      </trkpt>
      <trkpt lat="46.25549" lon="6.44284">
        <ele>1236</ele>
        <time>2022-04-27T21:37:39Z</time>
      </trkpt>
      <trkpt lat="46.25541" lon="6.44303">
        <ele>1237</ele>
        <time>2022-04-27T21:37:42Z</time>
      </trkpt>
      <trkpt lat="46.25537" lon="6.44332">
        <ele>1238</ele>
        <time>2022-04-27T21:37:47Z</time>
      </trkpt>
      <trkpt lat="46.25564" lon="6.44391">
        <ele>1243</ele>
        <time>2022-04-27T21:37:58Z</time>
      </trkpt>
      <trkpt lat="46.25574" lon="6.44405">
        <ele>1243</ele>
        <time>2022-04-27T21:38:02Z</time>
      </trkpt>
      <trkpt lat="46.25614" lon="6.44553">
        <ele>1228</ele>
        <time>2022-04-27T21:38:27Z</time>
      </trkpt>
      <trkpt lat="46.25616" lon="6.44595">
        <ele>1221</ele>
        <time>2022-04-27T21:38:34Z</time>
      </trkpt>
      <trkpt lat="46.25616" lon="6.44595">
        <ele>1221</ele>
        <time>2022-04-27T21:38:34Z</time>
      </trkpt>
      <trkpt lat="46.25602" lon="6.44671">
        <ele>1210</ele>
        <time>2022-04-27T21:38:47Z</time>
      </trkpt>
      <trkpt lat="46.25591" lon="6.44697">
        <ele>1208</ele>
        <time>2022-04-27T21:38:52Z</time>
      </trkpt>
      <trkpt lat="46.25582" lon="6.44737">
        <ele>1203</ele>
        <time>2022-04-27T21:38:58Z</time>
      </trkpt>
      <trkpt lat="46.25582" lon="6.44737">
        <ele>1203</ele>
        <time>2022-04-27T21:38:58Z</time>
      </trkpt>
      <trkpt lat="46.2559" lon="6.44737">
        <ele>1203</ele>
        <time>2022-04-27T21:39:00Z</time>
      </trkpt>
      <trkpt lat="46.2559" lon="6.44737">
        <ele>1203</ele>
        <time>2022-04-27T21:39:00Z</time>
      </trkpt>
      <trkpt lat="46.25685" lon="6.44701">
        <ele>1201</ele>
        <time>2022-04-27T21:39:23Z</time>
      </trkpt>
      <trkpt lat="46.25744" lon="6.44741">
        <ele>1191</ele>
        <time>2022-04-27T21:39:38Z</time>
      </trkpt>
      <trkpt lat="46.25744" lon="6.44741">
        <ele>1191</ele>
        <time>2022-04-27T21:39:38Z</time>
      </trkpt>
      <trkpt lat="46.25722" lon="6.44795">
        <ele>1194</ele>
        <time>2022-04-27T21:39:49Z</time>
      </trkpt>
      <trkpt lat="46.25716" lon="6.44855">
        <ele>1199</ele>
        <time>2022-04-27T21:39:58Z</time>
      </trkpt>
      <trkpt lat="46.25719" lon="6.44871">
        <ele>1200</ele>
        <time>2022-04-27T21:40:01Z</time>
      </trkpt>
      <trkpt lat="46.25728" lon="6.44888">
        <ele>1202</ele>
        <time>2022-04-27T21:40:05Z</time>
      </trkpt>
      <trkpt lat="46.25743" lon="6.44904">
        <ele>1203</ele>
        <time>2022-04-27T21:40:09Z</time>
      </trkpt>
      <trkpt lat="46.25751" lon="6.44947">
        <ele>1207</ele>
        <time>2022-04-27T21:40:16Z</time>
      </trkpt>
      <trkpt lat="46.25763" lon="6.44986">
        <ele>1207</ele>
        <time>2022-04-27T21:40:23Z</time>
      </trkpt>
      <trkpt lat="46.25775" lon="6.4501">
        <ele>1207</ele>
        <time>2022-04-27T21:40:28Z</time>
      </trkpt>
      <trkpt lat="46.25809" lon="6.45059">
        <ele>1206</ele>
        <time>2022-04-27T21:40:39Z</time>
      </trkpt>
      <trkpt lat="46.25863" lon="6.45119">
        <ele>1201</ele>
        <time>2022-04-27T21:40:55Z</time>
      </trkpt>
      <trkpt lat="46.25863" lon="6.45119">
        <ele>1201</ele>
        <time>2022-04-27T21:40:55Z</time>
      </trkpt>
      <trkpt lat="46.25913" lon="6.45176">
        <ele>1200</ele>
        <time>2022-04-27T21:41:10Z</time>
      </trkpt>
      <trkpt lat="46.25981" lon="6.45204">
        <ele>1188</ele>
        <time>2022-04-27T21:41:26Z</time>
      </trkpt>
      <trkpt lat="46.26038" lon="6.45257">
        <ele>1180</ele>
        <time>2022-04-27T21:41:42Z</time>
      </trkpt>
      <trkpt lat="46.26058" lon="6.45285">
        <ele>1175</ele>
        <time>2022-04-27T21:41:49Z</time>
      </trkpt>
      <trkpt lat="46.26072" lon="6.45344">
        <ele>1172</ele>
        <time>2022-04-27T21:41:59Z</time>
      </trkpt>
      <trkpt lat="46.26076" lon="6.45347">
        <ele>1170</ele>
        <time>2022-04-27T21:42:00Z</time>
      </trkpt>
      <trkpt lat="46.26081" lon="6.4534">
        <ele>1169</ele>
        <time>2022-04-27T21:42:01Z</time>
      </trkpt>
      <trkpt lat="46.26071" lon="6.45288">
        <ele>1170</ele>
        <time>2022-04-27T21:42:10Z</time>
      </trkpt>
      <trkpt lat="46.26053" lon="6.45226">
        <ele>1168</ele>
        <time>2022-04-27T21:42:21Z</time>
      </trkpt>
      <trkpt lat="46.26038" lon="6.45192">
        <ele>1165</ele>
        <time>2022-04-27T21:42:27Z</time>
      </trkpt>
      <trkpt lat="46.2604" lon="6.45188">
        <ele>1164</ele>
        <time>2022-04-27T21:42:28Z</time>
      </trkpt>
      <trkpt lat="46.26048" lon="6.45191">
        <ele>1162</ele>
        <time>2022-04-27T21:42:30Z</time>
      </trkpt>
      <trkpt lat="46.26095" lon="6.45247">
        <ele>1157</ele>
        <time>2022-04-27T21:42:44Z</time>
      </trkpt>
      <trkpt lat="46.26158" lon="6.45349">
        <ele>1141</ele>
        <time>2022-04-27T21:43:06Z</time>
      </trkpt>
      <trkpt lat="46.2616" lon="6.45376">
        <ele>1140</ele>
        <time>2022-04-27T21:43:11Z</time>
      </trkpt>
      <trkpt lat="46.26155" lon="6.4541">
        <ele>1140</ele>
        <time>2022-04-27T21:43:16Z</time>
      </trkpt>
      <trkpt lat="46.26151" lon="6.45501">
        <ele>1127</ele>
        <time>2022-04-27T21:43:31Z</time>
      </trkpt>
      <trkpt lat="46.26158" lon="6.45527">
        <ele>1122</ele>
        <time>2022-04-27T21:43:36Z</time>
      </trkpt>
      <trkpt lat="46.26178" lon="6.45548">
        <ele>1118</ele>
        <time>2022-04-27T21:43:41Z</time>
      </trkpt>
      <trkpt lat="46.26178" lon="6.45548">
        <ele>1118</ele>
        <time>2022-04-27T21:43:41Z</time>
      </trkpt>
      <trkpt lat="46.26194" lon="6.45532">
        <ele>1118</ele>
        <time>2022-04-27T21:43:46Z</time>
      </trkpt>
      <trkpt lat="46.26205" lon="6.4551">
        <ele>1119</ele>
        <time>2022-04-27T21:43:50Z</time>
      </trkpt>
      <trkpt lat="46.26213" lon="6.45505">
        <ele>1119</ele>
        <time>2022-04-27T21:43:52Z</time>
      </trkpt>
      <trkpt lat="46.26213" lon="6.45505">
        <ele>1119</ele>
        <time>2022-04-27T21:43:52Z</time>
      </trkpt>
      <trkpt lat="46.26209" lon="6.45477">
        <ele>1122</ele>
        <time>2022-04-27T21:43:57Z</time>
      </trkpt>
      <trkpt lat="46.26217" lon="6.45411">
        <ele>1127</ele>
        <time>2022-04-27T21:44:08Z</time>
      </trkpt>
      <trkpt lat="46.26212" lon="6.45393">
        <ele>1128</ele>
        <time>2022-04-27T21:44:11Z</time>
      </trkpt>
      <trkpt lat="46.26212" lon="6.45393">
        <ele>1128</ele>
        <time>2022-04-27T21:44:11Z</time>
      </trkpt>
      <trkpt lat="46.26217" lon="6.45411">
        <ele>1127</ele>
        <time>2022-04-27T21:44:14Z</time>
      </trkpt>
      <trkpt lat="46.26209" lon="6.45477">
        <ele>1122</ele>
        <time>2022-04-27T21:44:25Z</time>
      </trkpt>
      <trkpt lat="46.26213" lon="6.45505">
        <ele>1119</ele>
        <time>2022-04-27T21:44:30Z</time>
      </trkpt>
      <trkpt lat="46.26213" lon="6.45505">
        <ele>1119</ele>
        <time>2022-04-27T21:44:30Z</time>
      </trkpt>
      <trkpt lat="46.2622" lon="6.4551">
        <ele>1118</ele>
        <time>2022-04-27T21:44:31Z</time>
      </trkpt>
      <trkpt lat="46.2622" lon="6.4551">
        <ele>1118</ele>
        <time>2022-04-27T21:44:31Z</time>
      </trkpt>
      <trkpt lat="46.26208" lon="6.45578">
        <ele>1113</ele>
        <time>2022-04-27T21:44:43Z</time>
      </trkpt>
      <trkpt lat="46.26208" lon="6.45609">
        <ele>1111</ele>
        <time>2022-04-27T21:44:48Z</time>
      </trkpt>
      <trkpt lat="46.26216" lon="6.45656">
        <ele>1107</ele>
        <time>2022-04-27T21:44:56Z</time>
      </trkpt>
      <trkpt lat="46.26229" lon="6.45687">
        <ele>1104</ele>
        <time>2022-04-27T21:45:01Z</time>
      </trkpt>
      <trkpt lat="46.26255" lon="6.45724">
        <ele>1102</ele>
        <time>2022-04-27T21:45:10Z</time>
      </trkpt>
      <trkpt lat="46.2634" lon="6.45794">
        <ele>1098</ele>
        <time>2022-04-27T21:45:33Z</time>
      </trkpt>
      <trkpt lat="46.26429" lon="6.45888">
        <ele>1097</ele>
        <time>2022-04-27T21:45:58Z</time>
      </trkpt>
      <trkpt lat="46.26429" lon="6.45888">
        <ele>1097</ele>
        <time>2022-04-27T21:45:58Z</time>
      </trkpt>
      <trkpt lat="46.26454" lon="6.45919">
        <ele>1096</ele>
        <time>2022-04-27T21:46:06Z</time>
      </trkpt>
      <trkpt lat="46.26528" lon="6.46037">
        <ele>1085</ele>
        <time>2022-04-27T21:46:32Z</time>
      </trkpt>
      <trkpt lat="46.2656" lon="6.46125">
        <ele>1078</ele>
        <time>2022-04-27T21:46:48Z</time>
      </trkpt>
      <trkpt lat="46.26576" lon="6.46159">
        <ele>1078</ele>
        <time>2022-04-27T21:46:55Z</time>
      </trkpt>
      <trkpt lat="46.2666" lon="6.46268">
        <ele>1072</ele>
        <time>2022-04-27T21:47:21Z</time>
      </trkpt>
      <trkpt lat="46.26758" lon="6.4646">
        <ele>1067</ele>
        <time>2022-04-27T21:47:59Z</time>
      </trkpt>
      <trkpt lat="46.26774" lon="6.46498">
        <ele>1067</ele>
        <time>2022-04-27T21:48:07Z</time>
      </trkpt>
      <trkpt lat="46.26782" lon="6.46528">
        <ele>1066</ele>
        <time>2022-04-27T21:48:12Z</time>
      </trkpt>
      <trkpt lat="46.26784" lon="6.46569">
        <ele>1064</ele>
        <time>2022-04-27T21:48:18Z</time>
      </trkpt>
      <trkpt lat="46.26777" lon="6.46608">
        <ele>1062</ele>
        <time>2022-04-27T21:48:25Z</time>
      </trkpt>
      <trkpt lat="46.26777" lon="6.46608">
        <ele>1062</ele>
        <time>2022-04-27T21:48:25Z</time>
      </trkpt>
      <trkpt lat="46.26759" lon="6.46651">
        <ele>1059</ele>
        <time>2022-04-27T21:48:33Z</time>
      </trkpt>
      <trkpt lat="46.26759" lon="6.46651">
        <ele>1059</ele>
        <time>2022-04-27T21:48:33Z</time>
      </trkpt>
      <trkpt lat="46.2679" lon="6.46685">
        <ele>1065</ele>
        <time>2022-04-27T21:48:42Z</time>
      </trkpt>
      <trkpt lat="46.26798" lon="6.4669">
        <ele>1066</ele>
        <time>2022-04-27T21:48:44Z</time>
      </trkpt>
      <trkpt lat="46.2681" lon="6.46687">
        <ele>1068</ele>
        <time>2022-04-27T21:48:47Z</time>
      </trkpt>
      <trkpt lat="46.2683" lon="6.46652">
        <ele>1070</ele>
        <time>2022-04-27T21:48:54Z</time>
      </trkpt>
      <trkpt lat="46.26842" lon="6.46595">
        <ele>1072</ele>
        <time>2022-04-27T21:49:04Z</time>
      </trkpt>
      <trkpt lat="46.26855" lon="6.46588">
        <ele>1074</ele>
        <time>2022-04-27T21:49:07Z</time>
      </trkpt>
      <trkpt lat="46.26872" lon="6.46604">
        <ele>1076</ele>
        <time>2022-04-27T21:49:12Z</time>
      </trkpt>
      <trkpt lat="46.26912" lon="6.4668">
        <ele>1084</ele>
        <time>2022-04-27T21:49:27Z</time>
      </trkpt>
      <trkpt lat="46.26939" lon="6.46705">
        <ele>1088</ele>
        <time>2022-04-27T21:49:35Z</time>
      </trkpt>
      <trkpt lat="46.27014" lon="6.46725">
        <ele>1095</ele>
        <time>2022-04-27T21:49:53Z</time>
      </trkpt>
      <trkpt lat="46.27094" lon="6.46732">
        <ele>1100</ele>
        <time>2022-04-27T21:50:11Z</time>
      </trkpt>
      <trkpt lat="46.27261" lon="6.46725">
        <ele>1105</ele>
        <time>2022-04-27T21:50:50Z</time>
      </trkpt>
      <trkpt lat="46.27343" lon="6.46693">
        <ele>1107</ele>
        <time>2022-04-27T21:51:10Z</time>
      </trkpt>
      <trkpt lat="46.27389" lon="6.46683">
        <ele>1108</ele>
        <time>2022-04-27T21:51:21Z</time>
      </trkpt>
      <trkpt lat="46.27443" lon="6.4669">
        <ele>1113</ele>
        <time>2022-04-27T21:51:34Z</time>
      </trkpt>
      <trkpt lat="46.27477" lon="6.46708">
        <ele>1118</ele>
        <time>2022-04-27T21:51:42Z</time>
      </trkpt>
      <trkpt lat="46.27477" lon="6.46708">
        <ele>1118</ele>
        <time>2022-04-27T21:51:42Z</time>
      </trkpt>
      <trkpt lat="46.27584" lon="6.4676">
        <ele>1131</ele>
        <time>2022-04-27T21:52:09Z</time>
      </trkpt>
      <trkpt lat="46.27618" lon="6.46771">
        <ele>1134</ele>
        <time>2022-04-27T21:52:17Z</time>
      </trkpt>
      <trkpt lat="46.27651" lon="6.46775">
        <ele>1135</ele>
        <time>2022-04-27T21:52:25Z</time>
      </trkpt>
      <trkpt lat="46.27799" lon="6.46766">
        <ele>1128</ele>
        <time>2022-04-27T21:52:59Z</time>
      </trkpt>
      <trkpt lat="46.27884" lon="6.46789">
        <ele>1125</ele>
        <time>2022-04-27T21:53:19Z</time>
      </trkpt>
      <trkpt lat="46.27884" lon="6.46789">
        <ele>1125</ele>
        <time>2022-04-27T21:53:19Z</time>
      </trkpt>
      <trkpt lat="46.27931" lon="6.46851">
        <ele>1126</ele>
        <time>2022-04-27T21:53:34Z</time>
      </trkpt>
      <trkpt lat="46.27932" lon="6.46873">
        <ele>1128</ele>
        <time>2022-04-27T21:53:38Z</time>
      </trkpt>
      <trkpt lat="46.27929" lon="6.46886">
        <ele>1130</ele>
        <time>2022-04-27T21:53:40Z</time>
      </trkpt>
      <trkpt lat="46.27902" lon="6.46927">
        <ele>1141</ele>
        <time>2022-04-27T21:53:49Z</time>
      </trkpt>
      <trkpt lat="46.27897" lon="6.46945">
        <ele>1145</ele>
        <time>2022-04-27T21:53:52Z</time>
      </trkpt>
      <trkpt lat="46.27898" lon="6.46962">
        <ele>1149</ele>
        <time>2022-04-27T21:53:55Z</time>
      </trkpt>
      <trkpt lat="46.27917" lon="6.47024">
        <ele>1155</ele>
        <time>2022-04-27T21:54:06Z</time>
      </trkpt>
      <trkpt lat="46.27956" lon="6.47118">
        <ele>1158</ele>
        <time>2022-04-27T21:54:24Z</time>
      </trkpt>
      <trkpt lat="46.27956" lon="6.47118">
        <ele>1158</ele>
        <time>2022-04-27T21:54:24Z</time>
      </trkpt>
      <trkpt lat="46.27982" lon="6.47187">
        <ele>1160</ele>
        <time>2022-04-27T21:54:36Z</time>
      </trkpt>
      <trkpt lat="46.28042" lon="6.47293">
        <ele>1158</ele>
        <time>2022-04-27T21:54:58Z</time>
      </trkpt>
      <trkpt lat="46.28065" lon="6.47344">
        <ele>1160</ele>
        <time>2022-04-27T21:55:08Z</time>
      </trkpt>
      <trkpt lat="46.2809" lon="6.47406">
        <ele>1160</ele>
        <time>2022-04-27T21:55:20Z</time>
      </trkpt>
      <trkpt lat="46.28105" lon="6.47452">
        <ele>1158</ele>
        <time>2022-04-27T21:55:28Z</time>
      </trkpt>
      <trkpt lat="46.28112" lon="6.47487">
        <ele>1158</ele>
        <time>2022-04-27T21:55:34Z</time>
      </trkpt>
      <trkpt lat="46.28112" lon="6.47487">
        <ele>1158</ele>
        <time>2022-04-27T21:55:34Z</time>
      </trkpt>
      <trkpt lat="46.28114" lon="6.47523">
        <ele>1158</ele>
        <time>2022-04-27T21:55:40Z</time>
      </trkpt>
      <trkpt lat="46.28102" lon="6.47587">
        <ele>1164</ele>
        <time>2022-04-27T21:55:50Z</time>
      </trkpt>
      <trkpt lat="46.281" lon="6.47634">
        <ele>1170</ele>
        <time>2022-04-27T21:55:58Z</time>
      </trkpt>
      <trkpt lat="46.28116" lon="6.47698">
        <ele>1167</ele>
        <time>2022-04-27T21:56:09Z</time>
      </trkpt>
      <trkpt lat="46.28118" lon="6.47721">
        <ele>1168</ele>
        <time>2022-04-27T21:56:13Z</time>
      </trkpt>
      <trkpt lat="46.28115" lon="6.47732">
        <ele>1170</ele>
        <time>2022-04-27T21:56:15Z</time>
      </trkpt>
      <trkpt lat="46.28089" lon="6.47774">
        <ele>1185</ele>
        <time>2022-04-27T21:56:24Z</time>
      </trkpt>
      <trkpt lat="46.28078" lon="6.47815">
        <ele>1190</ele>
        <time>2022-04-27T21:56:31Z</time>
      </trkpt>
      <trkpt lat="46.28074" lon="6.47842">
        <ele>1193</ele>
        <time>2022-04-27T21:56:35Z</time>
      </trkpt>
      <trkpt lat="46.28076" lon="6.47854">
        <ele>1193</ele>
        <time>2022-04-27T21:56:37Z</time>
      </trkpt>
      <trkpt lat="46.28118" lon="6.47879">
        <ele>1178</ele>
        <time>2022-04-27T21:56:48Z</time>
      </trkpt>
      <trkpt lat="46.28151" lon="6.47921">
        <ele>1172</ele>
        <time>2022-04-27T21:56:58Z</time>
      </trkpt>
      <trkpt lat="46.28161" lon="6.47941">
        <ele>1172</ele>
        <time>2022-04-27T21:57:02Z</time>
      </trkpt>
      <trkpt lat="46.28173" lon="6.47987">
        <ele>1176</ele>
        <time>2022-04-27T21:57:10Z</time>
      </trkpt>
      <trkpt lat="46.2817" lon="6.48013">
        <ele>1183</ele>
        <time>2022-04-27T21:57:14Z</time>
      </trkpt>
      <trkpt lat="46.28158" lon="6.48038">
        <ele>1194</ele>
        <time>2022-04-27T21:57:19Z</time>
      </trkpt>
      <trkpt lat="46.28161" lon="6.48052">
        <ele>1197</ele>
        <time>2022-04-27T21:57:22Z</time>
      </trkpt>
      <trkpt lat="46.28178" lon="6.48057">
        <ele>1193</ele>
        <time>2022-04-27T21:57:26Z</time>
      </trkpt>
      <trkpt lat="46.28218" lon="6.48083">
        <ele>1188</ele>
        <time>2022-04-27T21:57:36Z</time>
      </trkpt>
      <trkpt lat="46.28244" lon="6.48116">
        <ele>1189</ele>
        <time>2022-04-27T21:57:44Z</time>
      </trkpt>
      <trkpt lat="46.28256" lon="6.48121">
        <ele>1187</ele>
        <time>2022-04-27T21:57:47Z</time>
      </trkpt>
      <trkpt lat="46.28277" lon="6.4812">
        <ele>1181</ele>
        <time>2022-04-27T21:57:52Z</time>
      </trkpt>
      <trkpt lat="46.28285" lon="6.48123">
        <ele>1180</ele>
        <time>2022-04-27T21:57:54Z</time>
      </trkpt>
      <trkpt lat="46.28291" lon="6.48132">
        <ele>1181</ele>
        <time>2022-04-27T21:57:56Z</time>
      </trkpt>
      <trkpt lat="46.28292" lon="6.48157">
        <ele>1187</ele>
        <time>2022-04-27T21:58:00Z</time>
      </trkpt>
      <trkpt lat="46.28284" lon="6.48177">
        <ele>1195</ele>
        <time>2022-04-27T21:58:04Z</time>
      </trkpt>
      <trkpt lat="46.28285" lon="6.48191">
        <ele>1199</ele>
        <time>2022-04-27T21:58:06Z</time>
      </trkpt>
      <trkpt lat="46.2832" lon="6.48181">
        <ele>1187</ele>
        <time>2022-04-27T21:58:14Z</time>
      </trkpt>
      <trkpt lat="46.28341" lon="6.48183">
        <ele>1183</ele>
        <time>2022-04-27T21:58:19Z</time>
      </trkpt>
      <trkpt lat="46.28368" lon="6.48208">
        <ele>1187</ele>
        <time>2022-04-27T21:58:27Z</time>
      </trkpt>
      <trkpt lat="46.28405" lon="6.48223">
        <ele>1187</ele>
        <time>2022-04-27T21:58:36Z</time>
      </trkpt>
      <trkpt lat="46.28441" lon="6.4826">
        <ele>1193</ele>
        <time>2022-04-27T21:58:46Z</time>
      </trkpt>
      <trkpt lat="46.28441" lon="6.4826">
        <ele>1193</ele>
        <time>2022-04-27T21:58:46Z</time>
      </trkpt>
      <trkpt lat="46.28492" lon="6.48338">
        <ele>1199</ele>
        <time>2022-04-27T21:59:03Z</time>
      </trkpt>
      <trkpt lat="46.28543" lon="6.48398">
        <ele>1205</ele>
        <time>2022-04-27T21:59:19Z</time>
      </trkpt>
      <trkpt lat="46.28577" lon="6.48414">
        <ele>1199</ele>
        <time>2022-04-27T21:59:27Z</time>
      </trkpt>
      <trkpt lat="46.28608" lon="6.48422">
        <ele>1193</ele>
        <time>2022-04-27T21:59:34Z</time>
      </trkpt>
      <trkpt lat="46.28683" lon="6.48482">
        <ele>1189</ele>
        <time>2022-04-27T21:59:54Z</time>
      </trkpt>
      <trkpt lat="46.28722" lon="6.48504">
        <ele>1185</ele>
        <time>2022-04-27T22:00:04Z</time>
      </trkpt>
      <trkpt lat="46.28743" lon="6.48502">
        <ele>1180</ele>
        <time>2022-04-27T22:00:09Z</time>
      </trkpt>
      <trkpt lat="46.28792" lon="6.48473">
        <ele>1176</ele>
        <time>2022-04-27T22:00:21Z</time>
      </trkpt>
      <trkpt lat="46.2881" lon="6.48469">
        <ele>1176</ele>
        <time>2022-04-27T22:00:26Z</time>
      </trkpt>
      <trkpt lat="46.289" lon="6.48543">
        <ele>1193</ele>
        <time>2022-04-27T22:00:50Z</time>
      </trkpt>
      <trkpt lat="46.2893" lon="6.48551">
        <ele>1195</ele>
        <time>2022-04-27T22:00:57Z</time>
      </trkpt>
      <trkpt lat="46.2902" lon="6.48651">
        <ele>1200</ele>
        <time>2022-04-27T22:01:23Z</time>
      </trkpt>
      <trkpt lat="46.29062" lon="6.48686">
        <ele>1205</ele>
        <time>2022-04-27T22:01:35Z</time>
      </trkpt>
      <trkpt lat="46.29091" lon="6.48703">
        <ele>1207</ele>
        <time>2022-04-27T22:01:42Z</time>
      </trkpt>
      <trkpt lat="46.29156" lon="6.48724">
        <ele>1210</ele>
        <time>2022-04-27T22:01:58Z</time>
      </trkpt>
      <trkpt lat="46.29181" lon="6.48742">
        <ele>1207</ele>
        <time>2022-04-27T22:02:04Z</time>
      </trkpt>
      <trkpt lat="46.29181" lon="6.48742">
        <ele>1207</ele>
        <time>2022-04-27T22:02:04Z</time>
      </trkpt>
      <trkpt lat="46.29202" lon="6.48768">
        <ele>1204</ele>
        <time>2022-04-27T22:02:10Z</time>
      </trkpt>
      <trkpt lat="46.29279" lon="6.48828">
        <ele>1195</ele>
        <time>2022-04-27T22:02:31Z</time>
      </trkpt>
      <trkpt lat="46.29357" lon="6.48932">
        <ele>1194</ele>
        <time>2022-04-27T22:02:56Z</time>
      </trkpt>
      <trkpt lat="46.29444" lon="6.4902">
        <ele>1191</ele>
        <time>2022-04-27T22:03:20Z</time>
      </trkpt>
      <trkpt lat="46.2945" lon="6.49032">
        <ele>1191</ele>
        <time>2022-04-27T22:03:23Z</time>
      </trkpt>
      <trkpt lat="46.29469" lon="6.49047">
        <ele>1190</ele>
        <time>2022-04-27T22:03:28Z</time>
      </trkpt>
      <trkpt lat="46.29479" lon="6.49064">
        <ele>1190</ele>
        <time>2022-04-27T22:03:32Z</time>
      </trkpt>
      <trkpt lat="46.29497" lon="6.49124">
        <ele>1184</ele>
        <time>2022-04-27T22:03:42Z</time>
      </trkpt>
      <trkpt lat="46.2951" lon="6.49137">
        <ele>1181</ele>
        <time>2022-04-27T22:03:46Z</time>
      </trkpt>
      <trkpt lat="46.29527" lon="6.49168">
        <ele>1175</ele>
        <time>2022-04-27T22:03:52Z</time>
      </trkpt>
      <trkpt lat="46.29568" lon="6.49195">
        <ele>1170</ele>
        <time>2022-04-27T22:04:03Z</time>
      </trkpt>
      <trkpt lat="46.29615" lon="6.49198">
        <ele>1162</ele>
        <time>2022-04-27T22:04:14Z</time>
      </trkpt>
      <trkpt lat="46.29615" lon="6.49198">
        <ele>1162</ele>
        <time>2022-04-27T22:04:14Z</time>
      </trkpt>
      <trkpt lat="46.29641" lon="6.49204">
        <ele>1158</ele>
        <time>2022-04-27T22:04:20Z</time>
      </trkpt>
      <trkpt lat="46.29653" lon="6.49217">
        <ele>1155</ele>
        <time>2022-04-27T22:04:23Z</time>
      </trkpt>
      <trkpt lat="46.29661" lon="6.49236">
        <ele>1153</ele>
        <time>2022-04-27T22:04:27Z</time>
      </trkpt>
      <trkpt lat="46.29679" lon="6.49332">
        <ele>1154</ele>
        <time>2022-04-27T22:04:43Z</time>
      </trkpt>
      <trkpt lat="46.2968" lon="6.49389">
        <ele>1156</ele>
        <time>2022-04-27T22:04:52Z</time>
      </trkpt>
      <trkpt lat="46.2968" lon="6.49389">
        <ele>1156</ele>
        <time>2022-04-27T22:04:52Z</time>
      </trkpt>
      <trkpt lat="46.29685" lon="6.49428">
        <ele>1153</ele>
        <time>2022-04-27T22:04:59Z</time>
      </trkpt>
      <trkpt lat="46.29682" lon="6.49455">
        <ele>1149</ele>
        <time>2022-04-27T22:05:03Z</time>
      </trkpt>
      <trkpt lat="46.29655" lon="6.49502">
        <ele>1150</ele>
        <time>2022-04-27T22:05:13Z</time>
      </trkpt>
      <trkpt lat="46.29596" lon="6.49648">
        <ele>1148</ele>
        <time>2022-04-27T22:05:40Z</time>
      </trkpt>
      <trkpt lat="46.29589" lon="6.49676">
        <ele>1145</ele>
        <time>2022-04-27T22:05:45Z</time>
      </trkpt>
      <trkpt lat="46.29585" lon="6.49716">
        <ele>1140</ele>
        <time>2022-04-27T22:05:51Z</time>
      </trkpt>
      <trkpt lat="46.29565" lon="6.49745">
        <ele>1147</ele>
        <time>2022-04-27T22:05:58Z</time>
      </trkpt>
      <trkpt lat="46.29561" lon="6.49764">
        <ele>1150</ele>
        <time>2022-04-27T22:06:01Z</time>
      </trkpt>
      <trkpt lat="46.29568" lon="6.49794">
        <ele>1149</ele>
        <time>2022-04-27T22:06:06Z</time>
      </trkpt>
      <trkpt lat="46.29596" lon="6.49826">
        <ele>1136</ele>
        <time>2022-04-27T22:06:15Z</time>
      </trkpt>
      <trkpt lat="46.29619" lon="6.4988">
        <ele>1133</ele>
        <time>2022-04-27T22:06:25Z</time>
      </trkpt>
      <trkpt lat="46.2965" lon="6.50009">
        <ele>1137</ele>
        <time>2022-04-27T22:06:47Z</time>
      </trkpt>
      <trkpt lat="46.29661" lon="6.50134">
        <ele>1145</ele>
        <time>2022-04-27T22:07:07Z</time>
      </trkpt>
      <trkpt lat="46.29684" lon="6.50226">
        <ele>1126</ele>
        <time>2022-04-27T22:07:23Z</time>
      </trkpt>
      <trkpt lat="46.29684" lon="6.50226">
        <ele>1126</ele>
        <time>2022-04-27T22:07:23Z</time>
      </trkpt>
      <trkpt lat="46.2968" lon="6.50235">
        <ele>1128</ele>
        <time>2022-04-27T22:07:25Z</time>
      </trkpt>
      <trkpt lat="46.29641" lon="6.50256">
        <ele>1144</ele>
        <time>2022-04-27T22:07:35Z</time>
      </trkpt>
      <trkpt lat="46.29624" lon="6.50284">
        <ele>1144</ele>
        <time>2022-04-27T22:07:41Z</time>
      </trkpt>
      <trkpt lat="46.2959" lon="6.5032">
        <ele>1149</ele>
        <time>2022-04-27T22:07:50Z</time>
      </trkpt>
      <trkpt lat="46.29542" lon="6.50385">
        <ele>1145</ele>
        <time>2022-04-27T22:08:06Z</time>
      </trkpt>
      <trkpt lat="46.2952" lon="6.50406">
        <ele>1147</ele>
        <time>2022-04-27T22:08:12Z</time>
      </trkpt>
      <trkpt lat="46.2952" lon="6.50406">
        <ele>1147</ele>
        <time>2022-04-27T22:08:12Z</time>
      </trkpt>
      <trkpt lat="46.29432" lon="6.50471">
        <ele>1143</ele>
        <time>2022-04-27T22:08:35Z</time>
      </trkpt>
      <trkpt lat="46.29407" lon="6.50512">
        <ele>1136</ele>
        <time>2022-04-27T22:08:44Z</time>
      </trkpt>
      <trkpt lat="46.29398" lon="6.50547">
        <ele>1138</ele>
        <time>2022-04-27T22:08:50Z</time>
      </trkpt>
      <trkpt lat="46.29395" lon="6.50605">
        <ele>1137</ele>
        <time>2022-04-27T22:08:59Z</time>
      </trkpt>
      <trkpt lat="46.29426" lon="6.50719">
        <ele>1129</ele>
        <time>2022-04-27T22:09:19Z</time>
      </trkpt>
      <trkpt lat="46.29434" lon="6.50781">
        <ele>1126</ele>
        <time>2022-04-27T22:09:29Z</time>
      </trkpt>
      <trkpt lat="46.29432" lon="6.50862">
        <ele>1126</ele>
        <time>2022-04-27T22:09:42Z</time>
      </trkpt>
      <trkpt lat="46.29423" lon="6.50889">
        <ele>1126</ele>
        <time>2022-04-27T22:09:47Z</time>
      </trkpt>
      <trkpt lat="46.29423" lon="6.50889">
        <ele>1126</ele>
        <time>2022-04-27T22:09:47Z</time>
      </trkpt>
      <trkpt lat="46.29407" lon="6.5086">
        <ele>1128</ele>
        <time>2022-04-27T22:09:53Z</time>
      </trkpt>
      <trkpt lat="46.29384" lon="6.50837">
        <ele>1128</ele>
        <time>2022-04-27T22:10:00Z</time>
      </trkpt>
      <trkpt lat="46.29354" lon="6.50827">
        <ele>1129</ele>
        <time>2022-04-27T22:10:07Z</time>
      </trkpt>
      <trkpt lat="46.29308" lon="6.50831">
        <ele>1124</ele>
        <time>2022-04-27T22:10:18Z</time>
      </trkpt>
      <trkpt lat="46.29308" lon="6.50831">
        <ele>1124</ele>
        <time>2022-04-27T22:10:18Z</time>
      </trkpt>
      <trkpt lat="46.29299" lon="6.5082">
        <ele>1125</ele>
        <time>2022-04-27T22:10:20Z</time>
      </trkpt>
      <trkpt lat="46.29282" lon="6.50762">
        <ele>1132</ele>
        <time>2022-04-27T22:10:30Z</time>
      </trkpt>
      <trkpt lat="46.29186" lon="6.50627">
        <ele>1146</ele>
        <time>2022-04-27T22:11:02Z</time>
      </trkpt>
      <trkpt lat="46.29117" lon="6.5057">
        <ele>1148</ele>
        <time>2022-04-27T22:11:20Z</time>
      </trkpt>
      <trkpt lat="46.2906" lon="6.50511">
        <ele>1155</ele>
        <time>2022-04-27T22:11:37Z</time>
      </trkpt>
      <trkpt lat="46.29031" lon="6.50496">
        <ele>1158</ele>
        <time>2022-04-27T22:11:44Z</time>
      </trkpt>
      <trkpt lat="46.28957" lon="6.50445">
        <ele>1168</ele>
        <time>2022-04-27T22:12:03Z</time>
      </trkpt>
      <trkpt lat="46.28873" lon="6.50414">
        <ele>1171</ele>
        <time>2022-04-27T22:12:23Z</time>
      </trkpt>
      <trkpt lat="46.2884" lon="6.50409">
        <ele>1173</ele>
        <time>2022-04-27T22:12:31Z</time>
      </trkpt>
      <trkpt lat="46.28833" lon="6.50398">
        <ele>1174</ele>
        <time>2022-04-27T22:12:33Z</time>
      </trkpt>
      <trkpt lat="46.28836" lon="6.50383">
        <ele>1175</ele>
        <time>2022-04-27T22:12:36Z</time>
      </trkpt>
      <trkpt lat="46.28836" lon="6.50383">
        <ele>1175</ele>
        <time>2022-04-27T22:12:36Z</time>
      </trkpt>
      <trkpt lat="46.28865" lon="6.50379">
        <ele>1176</ele>
        <time>2022-04-27T22:12:43Z</time>
      </trkpt>
      <trkpt lat="46.28886" lon="6.50366">
        <ele>1177</ele>
        <time>2022-04-27T22:12:48Z</time>
      </trkpt>
      <trkpt lat="46.28896" lon="6.50354">
        <ele>1179</ele>
        <time>2022-04-27T22:12:51Z</time>
      </trkpt>
      <trkpt lat="46.28909" lon="6.50311">
        <ele>1189</ele>
        <time>2022-04-27T22:12:59Z</time>
      </trkpt>
      <trkpt lat="46.28909" lon="6.50311">
        <ele>1189</ele>
        <time>2022-04-27T22:12:59Z</time>
      </trkpt>
      <trkpt lat="46.28925" lon="6.50274">
        <ele>1201</ele>
        <time>2022-04-27T22:13:06Z</time>
      </trkpt>
      <trkpt lat="46.28939" lon="6.50259">
        <ele>1205</ele>
        <time>2022-04-27T22:13:10Z</time>
      </trkpt>
      <trkpt lat="46.28974" lon="6.50276">
        <ele>1199</ele>
        <time>2022-04-27T22:13:18Z</time>
      </trkpt>
      <trkpt lat="46.28982" lon="6.50275">
        <ele>1200</ele>
        <time>2022-04-27T22:13:20Z</time>
      </trkpt>
      <trkpt lat="46.28987" lon="6.50266">
        <ele>1202</ele>
        <time>2022-04-27T22:13:22Z</time>
      </trkpt>
      <trkpt lat="46.28983" lon="6.50251">
        <ele>1206</ele>
        <time>2022-04-27T22:13:25Z</time>
      </trkpt>
      <trkpt lat="46.28953" lon="6.50236">
        <ele>1212</ele>
        <time>2022-04-27T22:13:32Z</time>
      </trkpt>
      <trkpt lat="46.2894" lon="6.50223">
        <ele>1216</ele>
        <time>2022-04-27T22:13:36Z</time>
      </trkpt>
      <trkpt lat="46.28921" lon="6.50222">
        <ele>1216</ele>
        <time>2022-04-27T22:13:40Z</time>
      </trkpt>
      <trkpt lat="46.28921" lon="6.50222">
        <ele>1216</ele>
        <time>2022-04-27T22:13:40Z</time>
      </trkpt>
      <trkpt lat="46.28942" lon="6.50155">
        <ele>1238</ele>
        <time>2022-04-27T22:13:52Z</time>
      </trkpt>
      <trkpt lat="46.2894" lon="6.50137">
        <ele>1243</ele>
        <time>2022-04-27T22:13:55Z</time>
      </trkpt>
      <trkpt lat="46.28921" lon="6.50108">
        <ele>1252</ele>
        <time>2022-04-27T22:14:02Z</time>
      </trkpt>
      <trkpt lat="46.28921" lon="6.50108">
        <ele>1252</ele>
        <time>2022-04-27T22:14:02Z</time>
      </trkpt>
      <trkpt lat="46.28974" lon="6.5007">
        <ele>1264</ele>
        <time>2022-04-27T22:14:15Z</time>
      </trkpt>
      <trkpt lat="46.29024" lon="6.50048">
        <ele>1274</ele>
        <time>2022-04-27T22:14:28Z</time>
      </trkpt>
      <trkpt lat="46.29052" lon="6.50044">
        <ele>1281</ele>
        <time>2022-04-27T22:14:34Z</time>
      </trkpt>
      <trkpt lat="46.29052" lon="6.50044">
        <ele>1281</ele>
        <time>2022-04-27T22:14:34Z</time>
      </trkpt>
      <trkpt lat="46.29025" lon="6.49998">
        <ele>1285</ele>
        <time>2022-04-27T22:14:44Z</time>
      </trkpt>
      <trkpt lat="46.28979" lon="6.49936">
        <ele>1301</ele>
        <time>2022-04-27T22:14:59Z</time>
      </trkpt>
      <trkpt lat="46.28979" lon="6.49936">
        <ele>1301</ele>
        <time>2022-04-27T22:14:59Z</time>
      </trkpt>
      <trkpt lat="46.28969" lon="6.49918">
        <ele>1308</ele>
        <time>2022-04-27T22:15:02Z</time>
      </trkpt>
      <trkpt lat="46.28966" lon="6.49899">
        <ele>1312</ele>
        <time>2022-04-27T22:15:05Z</time>
      </trkpt>
      <trkpt lat="46.28969" lon="6.49863">
        <ele>1317</ele>
        <time>2022-04-27T22:15:11Z</time>
      </trkpt>
      <trkpt lat="46.28966" lon="6.49708">
        <ele>1331</ele>
        <time>2022-04-27T22:15:36Z</time>
      </trkpt>
      <trkpt lat="46.28979" lon="6.4965">
        <ele>1326</ele>
        <time>2022-04-27T22:15:46Z</time>
      </trkpt>
      <trkpt lat="46.28975" lon="6.49637">
        <ele>1326</ele>
        <time>2022-04-27T22:15:48Z</time>
      </trkpt>
      <trkpt lat="46.28951" lon="6.49598">
        <ele>1330</ele>
        <time>2022-04-27T22:15:57Z</time>
      </trkpt>
      <trkpt lat="46.28951" lon="6.49598">
        <ele>1330</ele>
        <time>2022-04-27T22:15:57Z</time>
      </trkpt>
      <trkpt lat="46.28921" lon="6.49539">
        <ele>1333</ele>
        <time>2022-04-27T22:16:09Z</time>
      </trkpt>
      <trkpt lat="46.28889" lon="6.4945">
        <ele>1334</ele>
        <time>2022-04-27T22:16:25Z</time>
      </trkpt>
      <trkpt lat="46.28882" lon="6.49442">
        <ele>1335</ele>
        <time>2022-04-27T22:16:27Z</time>
      </trkpt>
      <trkpt lat="46.28873" lon="6.49443">
        <ele>1337</ele>
        <time>2022-04-27T22:16:29Z</time>
      </trkpt>
      <trkpt lat="46.28868" lon="6.49454">
        <ele>1339</ele>
        <time>2022-04-27T22:16:31Z</time>
      </trkpt>
      <trkpt lat="46.28887" lon="6.49552">
        <ele>1344</ele>
        <time>2022-04-27T22:16:48Z</time>
      </trkpt>
      <trkpt lat="46.28888" lon="6.49572">
        <ele>1347</ele>
        <time>2022-04-27T22:16:51Z</time>
      </trkpt>
      <trkpt lat="46.28882" lon="6.49585">
        <ele>1350</ele>
        <time>2022-04-27T22:16:53Z</time>
      </trkpt>
      <trkpt lat="46.2887" lon="6.49582">
        <ele>1353</ele>
        <time>2022-04-27T22:16:56Z</time>
      </trkpt>
      <trkpt lat="46.28859" lon="6.4955">
        <ele>1352</ele>
        <time>2022-04-27T22:17:02Z</time>
      </trkpt>
      <trkpt lat="46.28832" lon="6.49504">
        <ele>1352</ele>
        <time>2022-04-27T22:17:12Z</time>
      </trkpt>
      <trkpt lat="46.28813" lon="6.49451">
        <ele>1352</ele>
        <time>2022-04-27T22:17:21Z</time>
      </trkpt>
      <trkpt lat="46.28797" lon="6.4939">
        <ele>1355</ele>
        <time>2022-04-27T22:17:32Z</time>
      </trkpt>
      <trkpt lat="46.28747" lon="6.49322">
        <ele>1364</ele>
        <time>2022-04-27T22:17:48Z</time>
      </trkpt>
      <trkpt lat="46.28615" lon="6.4919">
        <ele>1364</ele>
        <time>2022-04-27T22:18:25Z</time>
      </trkpt>
      <trkpt lat="46.28537" lon="6.49144">
        <ele>1358</ele>
        <time>2022-04-27T22:18:45Z</time>
      </trkpt>
      <trkpt lat="46.28474" lon="6.49049">
        <ele>1353</ele>
        <time>2022-04-27T22:19:06Z</time>
      </trkpt>
      <trkpt lat="46.28443" lon="6.48975">
        <ele>1352</ele>
        <time>2022-04-27T22:19:20Z</time>
      </trkpt>
      <trkpt lat="46.28425" lon="6.48953">
        <ele>1350</ele>
        <time>2022-04-27T22:19:26Z</time>
      </trkpt>
      <trkpt lat="46.28425" lon="6.48953">
        <ele>1350</ele>
        <time>2022-04-27T22:19:26Z</time>
      </trkpt>
      <trkpt lat="46.28415" lon="6.48936">
        <ele>1349</ele>
        <time>2022-04-27T22:19:29Z</time>
      </trkpt>
      <trkpt lat="46.28415" lon="6.48936">
        <ele>1349</ele>
        <time>2022-04-27T22:19:29Z</time>
      </trkpt>
      <trkpt lat="46.28375" lon="6.48975">
        <ele>1349</ele>
        <time>2022-04-27T22:19:41Z</time>
      </trkpt>
      <trkpt lat="46.28355" lon="6.48979">
        <ele>1349</ele>
        <time>2022-04-27T22:19:45Z</time>
      </trkpt>
      <trkpt lat="46.28334" lon="6.48994">
        <ele>1350</ele>
        <time>2022-04-27T22:19:51Z</time>
      </trkpt>
      <trkpt lat="46.28334" lon="6.48994">
        <ele>1350</ele>
        <time>2022-04-27T22:19:51Z</time>
      </trkpt>
      <trkpt lat="46.28319" lon="6.49005">
        <ele>1355</ele>
        <time>2022-04-27T22:19:55Z</time>
      </trkpt>
      <trkpt lat="46.28319" lon="6.49005">
        <ele>1355</ele>
        <time>2022-04-27T22:19:55Z</time>
      </trkpt>
      <trkpt lat="46.28315" lon="6.49045">
        <ele>1357</ele>
        <time>2022-04-27T22:20:01Z</time>
      </trkpt>
      <trkpt lat="46.283" lon="6.49107">
        <ele>1364</ele>
        <time>2022-04-27T22:20:12Z</time>
      </trkpt>
      <trkpt lat="46.28291" lon="6.49128">
        <ele>1369</ele>
        <time>2022-04-27T22:20:16Z</time>
      </trkpt>
      <trkpt lat="46.28291" lon="6.49128">
        <ele>1369</ele>
        <time>2022-04-27T22:20:16Z</time>
      </trkpt>
      <trkpt lat="46.28283" lon="6.49157">
        <ele>1375</ele>
        <time>2022-04-27T22:20:21Z</time>
      </trkpt>
      <trkpt lat="46.28265" lon="6.49183">
        <ele>1386</ele>
        <time>2022-04-27T22:20:27Z</time>
      </trkpt>
      <trkpt lat="46.28265" lon="6.49183">
        <ele>1386</ele>
        <time>2022-04-27T22:20:27Z</time>
      </trkpt>
      <trkpt lat="46.28254" lon="6.49177">
        <ele>1390</ele>
        <time>2022-04-27T22:20:30Z</time>
      </trkpt>
      <trkpt lat="46.28184" lon="6.49017">
        <ele>1398</ele>
        <time>2022-04-27T22:21:00Z</time>
      </trkpt>
      <trkpt lat="46.28144" lon="6.4897">
        <ele>1402</ele>
        <time>2022-04-27T22:21:12Z</time>
      </trkpt>
      <trkpt lat="46.28144" lon="6.4897">
        <ele>1402</ele>
        <time>2022-04-27T22:21:12Z</time>
      </trkpt>
      <trkpt lat="46.28119" lon="6.48955">
        <ele>1406</ele>
        <time>2022-04-27T22:21:18Z</time>
      </trkpt>
      <trkpt lat="46.28107" lon="6.48957">
        <ele>1410</ele>
        <time>2022-04-27T22:21:21Z</time>
      </trkpt>
      <trkpt lat="46.28125" lon="6.48986">
        <ele>1414</ele>
        <time>2022-04-27T22:21:28Z</time>
      </trkpt>
      <trkpt lat="46.28152" lon="6.49088">
        <ele>1428</ele>
        <time>2022-04-27T22:21:45Z</time>
      </trkpt>
      <trkpt lat="46.28168" lon="6.49179">
        <ele>1436</ele>
        <time>2022-04-27T22:22:00Z</time>
      </trkpt>
      <trkpt lat="46.28168" lon="6.49205">
        <ele>1438</ele>
        <time>2022-04-27T22:22:05Z</time>
      </trkpt>
      <trkpt lat="46.28165" lon="6.49212">
        <ele>1439</ele>
        <time>2022-04-27T22:22:06Z</time>
      </trkpt>
      <trkpt lat="46.28158" lon="6.49212">
        <ele>1441</ele>
        <time>2022-04-27T22:22:08Z</time>
      </trkpt>
      <trkpt lat="46.28139" lon="6.49193">
        <ele>1446</ele>
        <time>2022-04-27T22:22:13Z</time>
      </trkpt>
      <trkpt lat="46.28029" lon="6.49023">
        <ele>1454</ele>
        <time>2022-04-27T22:22:51Z</time>
      </trkpt>
      <trkpt lat="46.28013" lon="6.49015">
        <ele>1456</ele>
        <time>2022-04-27T22:22:54Z</time>
      </trkpt>
      <trkpt lat="46.28013" lon="6.49015">
        <ele>1456</ele>
        <time>2022-04-27T22:22:54Z</time>
      </trkpt>
      <trkpt lat="46.28003" lon="6.49016">
        <ele>1459</ele>
        <time>2022-04-27T22:22:57Z</time>
      </trkpt>
      <trkpt lat="46.27999" lon="6.49023">
        <ele>1461</ele>
        <time>2022-04-27T22:22:58Z</time>
      </trkpt>
      <trkpt lat="46.28002" lon="6.49077">
        <ele>1469</ele>
        <time>2022-04-27T22:23:07Z</time>
      </trkpt>
      <trkpt lat="46.28009" lon="6.49104">
        <ele>1470</ele>
        <time>2022-04-27T22:23:12Z</time>
      </trkpt>
      <trkpt lat="46.28008" lon="6.49125">
        <ele>1472</ele>
        <time>2022-04-27T22:23:15Z</time>
      </trkpt>
      <trkpt lat="46.28003" lon="6.4913">
        <ele>1473</ele>
        <time>2022-04-27T22:23:16Z</time>
      </trkpt>
      <trkpt lat="46.27965" lon="6.49122">
        <ele>1480</ele>
        <time>2022-04-27T22:23:25Z</time>
      </trkpt>
      <trkpt lat="46.27937" lon="6.49095">
        <ele>1486</ele>
        <time>2022-04-27T22:23:33Z</time>
      </trkpt>
      <trkpt lat="46.27893" lon="6.49032">
        <ele>1487</ele>
        <time>2022-04-27T22:23:48Z</time>
      </trkpt>
      <trkpt lat="46.27848" lon="6.49013">
        <ele>1494</ele>
        <time>2022-04-27T22:23:59Z</time>
      </trkpt>
      <trkpt lat="46.27823" lon="6.48991">
        <ele>1494</ele>
        <time>2022-04-27T22:24:06Z</time>
      </trkpt>
      <trkpt lat="46.27816" lon="6.48992">
        <ele>1496</ele>
        <time>2022-04-27T22:24:07Z</time>
      </trkpt>
      <trkpt lat="46.27795" lon="6.49039">
        <ele>1502</ele>
        <time>2022-04-27T22:24:16Z</time>
      </trkpt>
      <trkpt lat="46.27795" lon="6.49039">
        <ele>1502</ele>
        <time>2022-04-27T22:24:16Z</time>
      </trkpt>
      <trkpt lat="46.27782" lon="6.49052">
        <ele>1504</ele>
        <time>2022-04-27T22:24:20Z</time>
      </trkpt>
      <trkpt lat="46.27768" lon="6.49055">
        <ele>1505</ele>
        <time>2022-04-27T22:24:23Z</time>
      </trkpt>
      <trkpt lat="46.27736" lon="6.49054">
        <ele>1504</ele>
        <time>2022-04-27T22:24:31Z</time>
      </trkpt>
      <trkpt lat="46.27711" lon="6.49046">
        <ele>1501</ele>
        <time>2022-04-27T22:24:37Z</time>
      </trkpt>
      <trkpt lat="46.2767" lon="6.49013">
        <ele>1502</ele>
        <time>2022-04-27T22:24:48Z</time>
      </trkpt>
      <trkpt lat="46.27629" lon="6.48993">
        <ele>1502</ele>
        <time>2022-04-27T22:24:58Z</time>
      </trkpt>
      <trkpt lat="46.27505" lon="6.48913">
        <ele>1507</ele>
        <time>2022-04-27T22:25:29Z</time>
      </trkpt>
      <trkpt lat="46.27453" lon="6.48864">
        <ele>1505</ele>
        <time>2022-04-27T22:25:44Z</time>
      </trkpt>
      <trkpt lat="46.27407" lon="6.48835">
        <ele>1518</ele>
        <time>2022-04-27T22:25:56Z</time>
      </trkpt>
      <trkpt lat="46.27407" lon="6.48835">
        <ele>1518</ele>
        <time>2022-04-27T22:25:56Z</time>
      </trkpt>
      <trkpt lat="46.27368" lon="6.48836">
        <ele>1517</ele>
        <time>2022-04-27T22:26:05Z</time>
      </trkpt>
      <trkpt lat="46.2735" lon="6.48817">
        <ele>1513</ele>
        <time>2022-04-27T22:26:10Z</time>
      </trkpt>
      <trkpt lat="46.2735" lon="6.48817">
        <ele>1513</ele>
        <time>2022-04-27T22:26:10Z</time>
      </trkpt>
      <trkpt lat="46.27368" lon="6.48836">
        <ele>1517</ele>
        <time>2022-04-27T22:26:15Z</time>
      </trkpt>
      <trkpt lat="46.27397" lon="6.48833">
        <ele>1518</ele>
        <time>2022-04-27T22:26:22Z</time>
      </trkpt>
      <trkpt lat="46.27416" lon="6.48839">
        <ele>1518</ele>
        <time>2022-04-27T22:26:27Z</time>
      </trkpt>
      <trkpt lat="46.27427" lon="6.48851">
        <ele>1513</ele>
        <time>2022-04-27T22:26:30Z</time>
      </trkpt>
      <trkpt lat="46.27453" lon="6.48864">
        <ele>1505</ele>
        <time>2022-04-27T22:26:36Z</time>
      </trkpt>
      <trkpt lat="46.27505" lon="6.48913">
        <ele>1507</ele>
        <time>2022-04-27T22:26:51Z</time>
      </trkpt>
      <trkpt lat="46.27629" lon="6.48993">
        <ele>1502</ele>
        <time>2022-04-27T22:27:22Z</time>
      </trkpt>
      <trkpt lat="46.2767" lon="6.49013">
        <ele>1502</ele>
        <time>2022-04-27T22:27:32Z</time>
      </trkpt>
      <trkpt lat="46.2767" lon="6.49013">
        <ele>1502</ele>
        <time>2022-04-27T22:27:32Z</time>
      </trkpt>
      <trkpt lat="46.27711" lon="6.49046">
        <ele>1501</ele>
        <time>2022-04-27T22:27:43Z</time>
      </trkpt>
      <trkpt lat="46.27736" lon="6.49054">
        <ele>1504</ele>
        <time>2022-04-27T22:27:49Z</time>
      </trkpt>
      <trkpt lat="46.27768" lon="6.49055">
        <ele>1505</ele>
        <time>2022-04-27T22:27:57Z</time>
      </trkpt>
      <trkpt lat="46.27782" lon="6.49052">
        <ele>1504</ele>
        <time>2022-04-27T22:28:00Z</time>
      </trkpt>
      <trkpt lat="46.27793" lon="6.49042">
        <ele>1503</ele>
        <time>2022-04-27T22:28:03Z</time>
      </trkpt>
      <trkpt lat="46.27816" lon="6.48992">
        <ele>1496</ele>
        <time>2022-04-27T22:28:13Z</time>
      </trkpt>
      <trkpt lat="46.27823" lon="6.48991">
        <ele>1494</ele>
        <time>2022-04-27T22:28:15Z</time>
      </trkpt>
      <trkpt lat="46.27848" lon="6.49013">
        <ele>1494</ele>
        <time>2022-04-27T22:28:21Z</time>
      </trkpt>
      <trkpt lat="46.27893" lon="6.49032">
        <ele>1487</ele>
        <time>2022-04-27T22:28:32Z</time>
      </trkpt>
      <trkpt lat="46.27937" lon="6.49095">
        <ele>1486</ele>
        <time>2022-04-27T22:28:47Z</time>
      </trkpt>
      <trkpt lat="46.27965" lon="6.49122">
        <ele>1480</ele>
        <time>2022-04-27T22:28:55Z</time>
      </trkpt>
      <trkpt lat="46.27993" lon="6.49131">
        <ele>1475</ele>
        <time>2022-04-27T22:29:01Z</time>
      </trkpt>
      <trkpt lat="46.28008" lon="6.49125">
        <ele>1472</ele>
        <time>2022-04-27T22:29:05Z</time>
      </trkpt>
      <trkpt lat="46.28009" lon="6.49104">
        <ele>1470</ele>
        <time>2022-04-27T22:29:08Z</time>
      </trkpt>
      <trkpt lat="46.28002" lon="6.49077">
        <ele>1469</ele>
        <time>2022-04-27T22:29:13Z</time>
      </trkpt>
      <trkpt lat="46.27999" lon="6.49023">
        <ele>1461</ele>
        <time>2022-04-27T22:29:22Z</time>
      </trkpt>
      <trkpt lat="46.28003" lon="6.49016">
        <ele>1459</ele>
        <time>2022-04-27T22:29:23Z</time>
      </trkpt>
      <trkpt lat="46.28016" lon="6.49015">
        <ele>1455</ele>
        <time>2022-04-27T22:29:26Z</time>
      </trkpt>
      <trkpt lat="46.28029" lon="6.49023">
        <ele>1454</ele>
        <time>2022-04-27T22:29:30Z</time>
      </trkpt>
      <trkpt lat="46.28109" lon="6.4915">
        <ele>1452</ele>
        <time>2022-04-27T22:29:57Z</time>
      </trkpt>
      <trkpt lat="46.28109" lon="6.4915">
        <ele>1452</ele>
        <time>2022-04-27T22:29:57Z</time>
      </trkpt>
      <trkpt lat="46.28147" lon="6.49202">
        <ele>1444</ele>
        <time>2022-04-27T22:30:10Z</time>
      </trkpt>
      <trkpt lat="46.28158" lon="6.49212">
        <ele>1441</ele>
        <time>2022-04-27T22:30:13Z</time>
      </trkpt>
      <trkpt lat="46.28165" lon="6.49212">
        <ele>1439</ele>
        <time>2022-04-27T22:30:14Z</time>
      </trkpt>
      <trkpt lat="46.28168" lon="6.49205">
        <ele>1438</ele>
        <time>2022-04-27T22:30:16Z</time>
      </trkpt>
      <trkpt lat="46.28168" lon="6.49179">
        <ele>1436</ele>
        <time>2022-04-27T22:30:20Z</time>
      </trkpt>
      <trkpt lat="46.28152" lon="6.49088">
        <ele>1428</ele>
        <time>2022-04-27T22:30:35Z</time>
      </trkpt>
      <trkpt lat="46.28125" lon="6.48986">
        <ele>1414</ele>
        <time>2022-04-27T22:30:53Z</time>
      </trkpt>
      <trkpt lat="46.28109" lon="6.48964">
        <ele>1412</ele>
        <time>2022-04-27T22:30:58Z</time>
      </trkpt>
      <trkpt lat="46.28108" lon="6.48954">
        <ele>1409</ele>
        <time>2022-04-27T22:30:59Z</time>
      </trkpt>
      <trkpt lat="46.28128" lon="6.48959">
        <ele>1404</ele>
        <time>2022-04-27T22:31:04Z</time>
      </trkpt>
      <trkpt lat="46.28156" lon="6.4898">
        <ele>1400</ele>
        <time>2022-04-27T22:31:11Z</time>
      </trkpt>
      <trkpt lat="46.28184" lon="6.49017">
        <ele>1398</ele>
        <time>2022-04-27T22:31:20Z</time>
      </trkpt>
      <trkpt lat="46.28195" lon="6.49043">
        <ele>1399</ele>
        <time>2022-04-27T22:31:25Z</time>
      </trkpt>
      <trkpt lat="46.28195" lon="6.49043">
        <ele>1399</ele>
        <time>2022-04-27T22:31:25Z</time>
      </trkpt>
      <trkpt lat="46.28274" lon="6.4905">
        <ele>1369</ele>
        <time>2022-04-27T22:31:44Z</time>
      </trkpt>
      <trkpt lat="46.28319" lon="6.49005">
        <ele>1355</ele>
        <time>2022-04-27T22:31:56Z</time>
      </trkpt>
      <trkpt lat="46.28319" lon="6.49005">
        <ele>1355</ele>
        <time>2022-04-27T22:31:56Z</time>
      </trkpt>
      <trkpt lat="46.28309" lon="6.4893">
        <ele>1349</ele>
        <time>2022-04-27T22:32:09Z</time>
      </trkpt>
      <trkpt lat="46.28309" lon="6.4893">
        <ele>1349</ele>
        <time>2022-04-27T22:32:09Z</time>
      </trkpt>
      <trkpt lat="46.28303" lon="6.4889">
        <ele>1347</ele>
        <time>2022-04-27T22:32:15Z</time>
      </trkpt>
      <trkpt lat="46.28262" lon="6.48836">
        <ele>1344</ele>
        <time>2022-04-27T22:32:28Z</time>
      </trkpt>
      <trkpt lat="46.28229" lon="6.48815">
        <ele>1345</ele>
        <time>2022-04-27T22:32:37Z</time>
      </trkpt>
      <trkpt lat="46.28172" lon="6.48756">
        <ele>1341</ele>
        <time>2022-04-27T22:32:53Z</time>
      </trkpt>
      <trkpt lat="46.28121" lon="6.48733">
        <ele>1342</ele>
        <time>2022-04-27T22:33:06Z</time>
      </trkpt>
      <trkpt lat="46.281" lon="6.48718">
        <ele>1342</ele>
        <time>2022-04-27T22:33:11Z</time>
      </trkpt>
      <trkpt lat="46.281" lon="6.48718">
        <ele>1342</ele>
        <time>2022-04-27T22:33:11Z</time>
      </trkpt>
      <trkpt lat="46.28068" lon="6.48699">
        <ele>1343</ele>
        <time>2022-04-27T22:33:19Z</time>
      </trkpt>
      <trkpt lat="46.28016" lon="6.48681">
        <ele>1345</ele>
        <time>2022-04-27T22:33:32Z</time>
      </trkpt>
      <trkpt lat="46.27991" lon="6.48663">
        <ele>1344</ele>
        <time>2022-04-27T22:33:38Z</time>
      </trkpt>
      <trkpt lat="46.27979" lon="6.48661">
        <ele>1346</ele>
        <time>2022-04-27T22:33:41Z</time>
      </trkpt>
      <trkpt lat="46.2789" lon="6.48656">
        <ele>1359</ele>
        <time>2022-04-27T22:34:02Z</time>
      </trkpt>
      <trkpt lat="46.27834" lon="6.48643">
        <ele>1363</ele>
        <time>2022-04-27T22:34:15Z</time>
      </trkpt>
      <trkpt lat="46.27777" lon="6.48658">
        <ele>1370</ele>
        <time>2022-04-27T22:34:29Z</time>
      </trkpt>
      <trkpt lat="46.27745" lon="6.48672">
        <ele>1375</ele>
        <time>2022-04-27T22:34:36Z</time>
      </trkpt>
      <trkpt lat="46.27679" lon="6.48673">
        <ele>1383</ele>
        <time>2022-04-27T22:34:52Z</time>
      </trkpt>
      <trkpt lat="46.27642" lon="6.48646">
        <ele>1386</ele>
        <time>2022-04-27T22:35:01Z</time>
      </trkpt>
      <trkpt lat="46.27627" lon="6.48644">
        <ele>1388</ele>
        <time>2022-04-27T22:35:05Z</time>
      </trkpt>
      <trkpt lat="46.27627" lon="6.48644">
        <ele>1388</ele>
        <time>2022-04-27T22:35:05Z</time>
      </trkpt>
      <trkpt lat="46.27608" lon="6.48642">
        <ele>1391</ele>
        <time>2022-04-27T22:35:09Z</time>
      </trkpt>
      <trkpt lat="46.27536" lon="6.48579">
        <ele>1407</ele>
        <time>2022-04-27T22:35:29Z</time>
      </trkpt>
      <trkpt lat="46.27507" lon="6.48518">
        <ele>1418</ele>
        <time>2022-04-27T22:35:41Z</time>
      </trkpt>
      <trkpt lat="46.27486" lon="6.48486">
        <ele>1425</ele>
        <time>2022-04-27T22:35:48Z</time>
      </trkpt>
      <trkpt lat="46.27458" lon="6.4847">
        <ele>1428</ele>
        <time>2022-04-27T22:35:55Z</time>
      </trkpt>
      <trkpt lat="46.27432" lon="6.48465">
        <ele>1428</ele>
        <time>2022-04-27T22:36:01Z</time>
      </trkpt>
      <trkpt lat="46.27412" lon="6.4847">
        <ele>1425</ele>
        <time>2022-04-27T22:36:06Z</time>
      </trkpt>
      <trkpt lat="46.27412" lon="6.4847">
        <ele>1425</ele>
        <time>2022-04-27T22:36:06Z</time>
      </trkpt>
      <trkpt lat="46.27399" lon="6.48478">
        <ele>1421</ele>
        <time>2022-04-27T22:36:09Z</time>
      </trkpt>
      <trkpt lat="46.27372" lon="6.48508">
        <ele>1416</ele>
        <time>2022-04-27T22:36:17Z</time>
      </trkpt>
      <trkpt lat="46.27351" lon="6.48514">
        <ele>1412</ele>
        <time>2022-04-27T22:36:22Z</time>
      </trkpt>
      <trkpt lat="46.27302" lon="6.48502">
        <ele>1394</ele>
        <time>2022-04-27T22:36:34Z</time>
      </trkpt>
      <trkpt lat="46.27288" lon="6.48503">
        <ele>1390</ele>
        <time>2022-04-27T22:36:37Z</time>
      </trkpt>
      <trkpt lat="46.27275" lon="6.48511">
        <ele>1389</ele>
        <time>2022-04-27T22:36:40Z</time>
      </trkpt>
      <trkpt lat="46.27266" lon="6.48509">
        <ele>1385</ele>
        <time>2022-04-27T22:36:43Z</time>
      </trkpt>
      <trkpt lat="46.27219" lon="6.48466">
        <ele>1363</ele>
        <time>2022-04-27T22:36:56Z</time>
      </trkpt>
      <trkpt lat="46.27202" lon="6.48469">
        <ele>1359</ele>
        <time>2022-04-27T22:37:00Z</time>
      </trkpt>
      <trkpt lat="46.27125" lon="6.48446">
        <ele>1334</ele>
        <time>2022-04-27T22:37:18Z</time>
      </trkpt>
      <trkpt lat="46.27092" lon="6.4847">
        <ele>1330</ele>
        <time>2022-04-27T22:37:27Z</time>
      </trkpt>
      <trkpt lat="46.27082" lon="6.4847">
        <ele>1328</ele>
        <time>2022-04-27T22:37:29Z</time>
      </trkpt>
      <trkpt lat="46.2707" lon="6.48461">
        <ele>1323</ele>
        <time>2022-04-27T22:37:32Z</time>
      </trkpt>
      <trkpt lat="46.2707" lon="6.48461">
        <ele>1323</ele>
        <time>2022-04-27T22:37:32Z</time>
      </trkpt>
      <trkpt lat="46.27031" lon="6.48428">
        <ele>1305</ele>
        <time>2022-04-27T22:37:43Z</time>
      </trkpt>
      <trkpt lat="46.27005" lon="6.48354">
        <ele>1280</ele>
        <time>2022-04-27T22:37:56Z</time>
      </trkpt>
      <trkpt lat="46.27001" lon="6.48316">
        <ele>1271</ele>
        <time>2022-04-27T22:38:02Z</time>
      </trkpt>
      <trkpt lat="46.26996" lon="6.48304">
        <ele>1267</ele>
        <time>2022-04-27T22:38:04Z</time>
      </trkpt>
      <trkpt lat="46.26996" lon="6.48304">
        <ele>1267</ele>
        <time>2022-04-27T22:38:04Z</time>
      </trkpt>
      <trkpt lat="46.2699" lon="6.48289">
        <ele>1263</ele>
        <time>2022-04-27T22:38:07Z</time>
      </trkpt>
      <trkpt lat="46.26981" lon="6.48282">
        <ele>1259</ele>
        <time>2022-04-27T22:38:10Z</time>
      </trkpt>
      <trkpt lat="46.26888" lon="6.4826">
        <ele>1229</ele>
        <time>2022-04-27T22:38:32Z</time>
      </trkpt>
      <trkpt lat="46.26861" lon="6.48234">
        <ele>1219</ele>
        <time>2022-04-27T22:38:39Z</time>
      </trkpt>
      <trkpt lat="46.26849" lon="6.4823">
        <ele>1216</ele>
        <time>2022-04-27T22:38:42Z</time>
      </trkpt>
      <trkpt lat="46.26804" lon="6.48243">
        <ele>1212</ele>
        <time>2022-04-27T22:38:53Z</time>
      </trkpt>
      <trkpt lat="46.26778" lon="6.48241">
        <ele>1209</ele>
        <time>2022-04-27T22:38:59Z</time>
      </trkpt>
      <trkpt lat="46.26759" lon="6.4822">
        <ele>1201</ele>
        <time>2022-04-27T22:39:04Z</time>
      </trkpt>
      <trkpt lat="46.26722" lon="6.48158">
        <ele>1185</ele>
        <time>2022-04-27T22:39:18Z</time>
      </trkpt>
      <trkpt lat="46.26722" lon="6.48158">
        <ele>1185</ele>
        <time>2022-04-27T22:39:18Z</time>
      </trkpt>
      <trkpt lat="46.2669" lon="6.4811">
        <ele>1174</ele>
        <time>2022-04-27T22:39:28Z</time>
      </trkpt>
      <trkpt lat="46.26682" lon="6.48084">
        <ele>1167</ele>
        <time>2022-04-27T22:39:33Z</time>
      </trkpt>
      <trkpt lat="46.26679" lon="6.48022">
        <ele>1159</ele>
        <time>2022-04-27T22:39:43Z</time>
      </trkpt>
      <trkpt lat="46.26663" lon="6.47956">
        <ele>1151</ele>
        <time>2022-04-27T22:39:54Z</time>
      </trkpt>
      <trkpt lat="46.26647" lon="6.47801">
        <ele>1149</ele>
        <time>2022-04-27T22:40:20Z</time>
      </trkpt>
      <trkpt lat="46.26657" lon="6.47711">
        <ele>1151</ele>
        <time>2022-04-27T22:40:34Z</time>
      </trkpt>
      <trkpt lat="46.26646" lon="6.47657">
        <ele>1145</ele>
        <time>2022-04-27T22:40:43Z</time>
      </trkpt>
      <trkpt lat="46.26641" lon="6.4759">
        <ele>1145</ele>
        <time>2022-04-27T22:40:54Z</time>
      </trkpt>
      <trkpt lat="46.26641" lon="6.4759">
        <ele>1145</ele>
        <time>2022-04-27T22:40:54Z</time>
      </trkpt>
      <trkpt lat="46.26625" lon="6.47491">
        <ele>1134</ele>
        <time>2022-04-27T22:41:11Z</time>
      </trkpt>
      <trkpt lat="46.26624" lon="6.47435">
        <ele>1129</ele>
        <time>2022-04-27T22:41:20Z</time>
      </trkpt>
      <trkpt lat="46.26649" lon="6.47358">
        <ele>1126</ele>
        <time>2022-04-27T22:41:34Z</time>
      </trkpt>
      <trkpt lat="46.26661" lon="6.47293">
        <ele>1118</ele>
        <time>2022-04-27T22:41:44Z</time>
      </trkpt>
      <trkpt lat="46.26671" lon="6.47276">
        <ele>1118</ele>
        <time>2022-04-27T22:41:48Z</time>
      </trkpt>
      <trkpt lat="46.26703" lon="6.47251">
        <ele>1126</ele>
        <time>2022-04-27T22:41:57Z</time>
      </trkpt>
      <trkpt lat="46.26714" lon="6.47222">
        <ele>1128</ele>
        <time>2022-04-27T22:42:02Z</time>
      </trkpt>
      <trkpt lat="46.26714" lon="6.47222">
        <ele>1128</ele>
        <time>2022-04-27T22:42:02Z</time>
      </trkpt>
      <trkpt lat="46.26722" lon="6.47155">
        <ele>1125</ele>
        <time>2022-04-27T22:42:13Z</time>
      </trkpt>
      <trkpt lat="46.26717" lon="6.47078">
        <ele>1116</ele>
        <time>2022-04-27T22:42:25Z</time>
      </trkpt>
      <trkpt lat="46.26724" lon="6.47042">
        <ele>1112</ele>
        <time>2022-04-27T22:42:31Z</time>
      </trkpt>
      <trkpt lat="46.26752" lon="6.46994">
        <ele>1113</ele>
        <time>2022-04-27T22:42:41Z</time>
      </trkpt>
      <trkpt lat="46.26798" lon="6.46929">
        <ele>1107</ele>
        <time>2022-04-27T22:42:57Z</time>
      </trkpt>
      <trkpt lat="46.26812" lon="6.46902">
        <ele>1103</ele>
        <time>2022-04-27T22:43:02Z</time>
      </trkpt>
      <trkpt lat="46.26821" lon="6.46874">
        <ele>1098</ele>
        <time>2022-04-27T22:43:07Z</time>
      </trkpt>
      <trkpt lat="46.26883" lon="6.46795">
        <ele>1090</ele>
        <time>2022-04-27T22:43:26Z</time>
      </trkpt>
      <trkpt lat="46.26899" lon="6.46764">
        <ele>1088</ele>
        <time>2022-04-27T22:43:32Z</time>
      </trkpt>
      <trkpt lat="46.2691" lon="6.4673">
        <ele>1087</ele>
        <time>2022-04-27T22:43:39Z</time>
      </trkpt>
      <trkpt lat="46.2691" lon="6.4673">
        <ele>1087</ele>
        <time>2022-04-27T22:43:39Z</time>
      </trkpt>
      <trkpt lat="46.26913" lon="6.46715">
        <ele>1086</ele>
        <time>2022-04-27T22:43:41Z</time>
      </trkpt>
      <trkpt lat="46.26912" lon="6.4668">
        <ele>1084</ele>
        <time>2022-04-27T22:43:47Z</time>
      </trkpt>
      <trkpt lat="46.26912" lon="6.4668">
        <ele>1084</ele>
        <time>2022-04-27T22:43:47Z</time>
      </trkpt>
      <trkpt lat="46.26872" lon="6.46604">
        <ele>1076</ele>
        <time>2022-04-27T22:44:02Z</time>
      </trkpt>
      <trkpt lat="46.26855" lon="6.46588">
        <ele>1074</ele>
        <time>2022-04-27T22:44:07Z</time>
      </trkpt>
      <trkpt lat="46.26842" lon="6.46595">
        <ele>1072</ele>
        <time>2022-04-27T22:44:10Z</time>
      </trkpt>
      <trkpt lat="46.2683" lon="6.46652">
        <ele>1070</ele>
        <time>2022-04-27T22:44:20Z</time>
      </trkpt>
      <trkpt lat="46.2681" lon="6.46687">
        <ele>1068</ele>
        <time>2022-04-27T22:44:27Z</time>
      </trkpt>
      <trkpt lat="46.26798" lon="6.4669">
        <ele>1066</ele>
        <time>2022-04-27T22:44:30Z</time>
      </trkpt>
      <trkpt lat="46.2679" lon="6.46685">
        <ele>1065</ele>
        <time>2022-04-27T22:44:32Z</time>
      </trkpt>
      <trkpt lat="46.26759" lon="6.46651">
        <ele>1059</ele>
        <time>2022-04-27T22:44:41Z</time>
      </trkpt>
      <trkpt lat="46.26759" lon="6.46651">
        <ele>1059</ele>
        <time>2022-04-27T22:44:41Z</time>
      </trkpt>
      <trkpt lat="46.2678" lon="6.46597">
        <ele>1063</ele>
        <time>2022-04-27T22:44:51Z</time>
      </trkpt>
      <trkpt lat="46.26784" lon="6.46569">
        <ele>1064</ele>
        <time>2022-04-27T22:44:56Z</time>
      </trkpt>
      <trkpt lat="46.26782" lon="6.46528">
        <ele>1066</ele>
        <time>2022-04-27T22:45:02Z</time>
      </trkpt>
      <trkpt lat="46.2677" lon="6.46487">
        <ele>1067</ele>
        <time>2022-04-27T22:45:09Z</time>
      </trkpt>
      <trkpt lat="46.2677" lon="6.46487">
        <ele>1067</ele>
        <time>2022-04-27T22:45:09Z</time>
      </trkpt>
      <trkpt lat="46.26666" lon="6.46278">
        <ele>1072</ele>
        <time>2022-04-27T22:45:51Z</time>
      </trkpt>
      <trkpt lat="46.26576" lon="6.46159">
        <ele>1078</ele>
        <time>2022-04-27T22:46:20Z</time>
      </trkpt>
      <trkpt lat="46.2656" lon="6.46125">
        <ele>1078</ele>
        <time>2022-04-27T22:46:26Z</time>
      </trkpt>
      <trkpt lat="46.26528" lon="6.46037">
        <ele>1085</ele>
        <time>2022-04-27T22:46:42Z</time>
      </trkpt>
      <trkpt lat="46.26454" lon="6.45919">
        <ele>1096</ele>
        <time>2022-04-27T22:47:08Z</time>
      </trkpt>
      <trkpt lat="46.26362" lon="6.45815">
        <ele>1098</ele>
        <time>2022-04-27T22:47:35Z</time>
      </trkpt>
      <trkpt lat="46.26255" lon="6.45724">
        <ele>1102</ele>
        <time>2022-04-27T22:48:04Z</time>
      </trkpt>
      <trkpt lat="46.26229" lon="6.45687">
        <ele>1104</ele>
        <time>2022-04-27T22:48:13Z</time>
      </trkpt>
      <trkpt lat="46.26212" lon="6.45639">
        <ele>1108</ele>
        <time>2022-04-27T22:48:21Z</time>
      </trkpt>
      <trkpt lat="46.26208" lon="6.45578">
        <ele>1113</ele>
        <time>2022-04-27T22:48:31Z</time>
      </trkpt>
      <trkpt lat="46.26212" lon="6.45546">
        <ele>1116</ele>
        <time>2022-04-27T22:48:37Z</time>
      </trkpt>
      <trkpt lat="46.26251" lon="6.45378">
        <ele>1120</ele>
        <time>2022-04-27T22:49:05Z</time>
      </trkpt>
      <trkpt lat="46.26253" lon="6.4534">
        <ele>1119</ele>
        <time>2022-04-27T22:49:11Z</time>
      </trkpt>
      <trkpt lat="46.2624" lon="6.45293">
        <ele>1119</ele>
        <time>2022-04-27T22:49:19Z</time>
      </trkpt>
      <trkpt lat="46.26225" lon="6.45264">
        <ele>1122</ele>
        <time>2022-04-27T22:49:25Z</time>
      </trkpt>
      <trkpt lat="46.26212" lon="6.45249">
        <ele>1124</ele>
        <time>2022-04-27T22:49:29Z</time>
      </trkpt>
      <trkpt lat="46.26212" lon="6.45249">
        <ele>1124</ele>
        <time>2022-04-27T22:49:29Z</time>
      </trkpt>
      <trkpt lat="46.26157" lon="6.45196">
        <ele>1126</ele>
        <time>2022-04-27T22:49:45Z</time>
      </trkpt>
      <trkpt lat="46.26127" lon="6.45138">
        <ele>1122</ele>
        <time>2022-04-27T22:49:56Z</time>
      </trkpt>
      <trkpt lat="46.2607" lon="6.45045">
        <ele>1116</ele>
        <time>2022-04-27T22:50:16Z</time>
      </trkpt>
      <trkpt lat="46.26048" lon="6.44992">
        <ele>1112</ele>
        <time>2022-04-27T22:50:26Z</time>
      </trkpt>
      <trkpt lat="46.26044" lon="6.44967">
        <ele>1109</ele>
        <time>2022-04-27T22:50:31Z</time>
      </trkpt>
      <trkpt lat="46.26058" lon="6.44829">
        <ele>1096</ele>
        <time>2022-04-27T22:50:53Z</time>
      </trkpt>
      <trkpt lat="46.26069" lon="6.44777">
        <ele>1095</ele>
        <time>2022-04-27T22:51:02Z</time>
      </trkpt>
      <trkpt lat="46.26086" lon="6.44752">
        <ele>1092</ele>
        <time>2022-04-27T22:51:08Z</time>
      </trkpt>
      <trkpt lat="46.26148" lon="6.44689">
        <ele>1090</ele>
        <time>2022-04-27T22:51:25Z</time>
      </trkpt>
      <trkpt lat="46.26165" lon="6.44678">
        <ele>1088</ele>
        <time>2022-04-27T22:51:30Z</time>
      </trkpt>
      <trkpt lat="46.26182" lon="6.44677">
        <ele>1086</ele>
        <time>2022-04-27T22:51:34Z</time>
      </trkpt>
      <trkpt lat="46.26198" lon="6.44685">
        <ele>1083</ele>
        <time>2022-04-27T22:51:37Z</time>
      </trkpt>
      <trkpt lat="46.2621" lon="6.44702">
        <ele>1081</ele>
        <time>2022-04-27T22:51:41Z</time>
      </trkpt>
      <trkpt lat="46.26218" lon="6.44728">
        <ele>1079</ele>
        <time>2022-04-27T22:51:46Z</time>
      </trkpt>
      <trkpt lat="46.26218" lon="6.44765">
        <ele>1078</ele>
        <time>2022-04-27T22:51:52Z</time>
      </trkpt>
      <trkpt lat="46.26201" lon="6.44812">
        <ele>1078</ele>
        <time>2022-04-27T22:52:01Z</time>
      </trkpt>
      <trkpt lat="46.26198" lon="6.44835">
        <ele>1078</ele>
        <time>2022-04-27T22:52:04Z</time>
      </trkpt>
      <trkpt lat="46.26205" lon="6.44884">
        <ele>1076</ele>
        <time>2022-04-27T22:52:12Z</time>
      </trkpt>
      <trkpt lat="46.26205" lon="6.44884">
        <ele>1076</ele>
        <time>2022-04-27T22:52:12Z</time>
      </trkpt>
      <trkpt lat="46.26216" lon="6.4488">
        <ele>1075</ele>
        <time>2022-04-27T22:52:15Z</time>
      </trkpt>
      <trkpt lat="46.26225" lon="6.44866">
        <ele>1073</ele>
        <time>2022-04-27T22:52:18Z</time>
      </trkpt>
      <trkpt lat="46.26235" lon="6.44816">
        <ele>1073</ele>
        <time>2022-04-27T22:52:27Z</time>
      </trkpt>
      <trkpt lat="46.26254" lon="6.44777">
        <ele>1072</ele>
        <time>2022-04-27T22:52:34Z</time>
      </trkpt>
      <trkpt lat="46.26271" lon="6.44761">
        <ele>1071</ele>
        <time>2022-04-27T22:52:39Z</time>
      </trkpt>
      <trkpt lat="46.26296" lon="6.4475">
        <ele>1069</ele>
        <time>2022-04-27T22:52:45Z</time>
      </trkpt>
      <trkpt lat="46.26296" lon="6.4475">
        <ele>1069</ele>
        <time>2022-04-27T22:52:45Z</time>
      </trkpt>
      <trkpt lat="46.26324" lon="6.44742">
        <ele>1066</ele>
        <time>2022-04-27T22:52:52Z</time>
      </trkpt>
      <trkpt lat="46.26344" lon="6.4473">
        <ele>1063</ele>
        <time>2022-04-27T22:52:57Z</time>
      </trkpt>
      <trkpt lat="46.26419" lon="6.44673">
        <ele>1052</ele>
        <time>2022-04-27T22:53:17Z</time>
      </trkpt>
      <trkpt lat="46.26436" lon="6.44654">
        <ele>1049</ele>
        <time>2022-04-27T22:53:22Z</time>
      </trkpt>
      <trkpt lat="46.26448" lon="6.44629">
        <ele>1048</ele>
        <time>2022-04-27T22:53:27Z</time>
      </trkpt>
      <trkpt lat="46.26478" lon="6.44489">
        <ele>1045</ele>
        <time>2022-04-27T22:53:50Z</time>
      </trkpt>
      <trkpt lat="46.26494" lon="6.44456">
        <ele>1049</ele>
        <time>2022-04-27T22:53:57Z</time>
      </trkpt>
      <trkpt lat="46.26565" lon="6.44393">
        <ele>1043</ele>
        <time>2022-04-27T22:54:16Z</time>
      </trkpt>
      <trkpt lat="46.26601" lon="6.44332">
        <ele>1042</ele>
        <time>2022-04-27T22:54:29Z</time>
      </trkpt>
      <trkpt lat="46.26615" lon="6.44316">
        <ele>1039</ele>
        <time>2022-04-27T22:54:33Z</time>
      </trkpt>
      <trkpt lat="46.26656" lon="6.44295">
        <ele>1026</ele>
        <time>2022-04-27T22:54:43Z</time>
      </trkpt>
      <trkpt lat="46.26676" lon="6.44258">
        <ele>1024</ele>
        <time>2022-04-27T22:54:51Z</time>
      </trkpt>
      <trkpt lat="46.26686" lon="6.44195">
        <ele>1023</ele>
        <time>2022-04-27T22:55:01Z</time>
      </trkpt>
      <trkpt lat="46.26685" lon="6.44132">
        <ele>1022</ele>
        <time>2022-04-27T22:55:12Z</time>
      </trkpt>
      <trkpt lat="46.26659" lon="6.43989">
        <ele>1005</ele>
        <time>2022-04-27T22:55:35Z</time>
      </trkpt>
      <trkpt lat="46.26644" lon="6.4396">
        <ele>999</ele>
        <time>2022-04-27T22:55:41Z</time>
      </trkpt>
      <trkpt lat="46.26624" lon="6.43941">
        <ele>996</ele>
        <time>2022-04-27T22:55:47Z</time>
      </trkpt>
      <trkpt lat="46.26553" lon="6.43924">
        <ele>1006</ele>
        <time>2022-04-27T22:56:04Z</time>
      </trkpt>
      <trkpt lat="46.26553" lon="6.43924">
        <ele>1006</ele>
        <time>2022-04-27T22:56:04Z</time>
      </trkpt>
      <trkpt lat="46.26528" lon="6.439">
        <ele>1006</ele>
        <time>2022-04-27T22:56:11Z</time>
      </trkpt>
      <trkpt lat="46.26471" lon="6.43816">
        <ele>996</ele>
        <time>2022-04-27T22:56:30Z</time>
      </trkpt>
      <trkpt lat="46.26433" lon="6.43773">
        <ele>989</ele>
        <time>2022-04-27T22:56:41Z</time>
      </trkpt>
      <trkpt lat="46.26389" lon="6.437">
        <ele>981</ele>
        <time>2022-04-27T22:56:57Z</time>
      </trkpt>
      <trkpt lat="46.26383" lon="6.4368">
        <ele>979</ele>
        <time>2022-04-27T22:57:00Z</time>
      </trkpt>
      <trkpt lat="46.26387" lon="6.43635">
        <ele>971</ele>
        <time>2022-04-27T22:57:07Z</time>
      </trkpt>
      <trkpt lat="46.26383" lon="6.43588">
        <ele>968</ele>
        <time>2022-04-27T22:57:15Z</time>
      </trkpt>
      <trkpt lat="46.26378" lon="6.43562">
        <ele>968</ele>
        <time>2022-04-27T22:57:19Z</time>
      </trkpt>
      <trkpt lat="46.26351" lon="6.43495">
        <ele>976</ele>
        <time>2022-04-27T22:57:32Z</time>
      </trkpt>
      <trkpt lat="46.26346" lon="6.43474">
        <ele>979</ele>
        <time>2022-04-27T22:57:36Z</time>
      </trkpt>
      <trkpt lat="46.26347" lon="6.4345">
        <ele>979</ele>
        <time>2022-04-27T22:57:39Z</time>
      </trkpt>
      <trkpt lat="46.2636" lon="6.43395">
        <ele>975</ele>
        <time>2022-04-27T22:57:49Z</time>
      </trkpt>
      <trkpt lat="46.26374" lon="6.433">
        <ele>970</ele>
        <time>2022-04-27T22:58:05Z</time>
      </trkpt>
      <trkpt lat="46.26417" lon="6.43211">
        <ele>947</ele>
        <time>2022-04-27T22:58:22Z</time>
      </trkpt>
      <trkpt lat="46.26429" lon="6.43177">
        <ele>946</ele>
        <time>2022-04-27T22:58:28Z</time>
      </trkpt>
      <trkpt lat="46.26434" lon="6.43146">
        <ele>946</ele>
        <time>2022-04-27T22:58:33Z</time>
      </trkpt>
      <trkpt lat="46.26436" lon="6.43067">
        <ele>948</ele>
        <time>2022-04-27T22:58:46Z</time>
      </trkpt>
      <trkpt lat="46.26444" lon="6.4302">
        <ele>947</ele>
        <time>2022-04-27T22:58:54Z</time>
      </trkpt>
      <trkpt lat="46.26444" lon="6.4302">
        <ele>947</ele>
        <time>2022-04-27T22:58:54Z</time>
      </trkpt>
      <trkpt lat="46.26473" lon="6.42912">
        <ele>943</ele>
        <time>2022-04-27T22:59:13Z</time>
      </trkpt>
      <trkpt lat="46.26476" lon="6.42876">
        <ele>940</ele>
        <time>2022-04-27T22:59:19Z</time>
      </trkpt>
      <trkpt lat="46.26475" lon="6.42653">
        <ele>926</ele>
        <time>2022-04-27T22:59:55Z</time>
      </trkpt>
      <trkpt lat="46.2645" lon="6.42586">
        <ele>921</ele>
        <time>2022-04-27T23:00:07Z</time>
      </trkpt>
      <trkpt lat="46.26447" lon="6.42518">
        <ele>916</ele>
        <time>2022-04-27T23:00:18Z</time>
      </trkpt>
      <trkpt lat="46.26452" lon="6.42494">
        <ele>912</ele>
        <time>2022-04-27T23:00:22Z</time>
      </trkpt>
      <trkpt lat="46.26475" lon="6.42434">
        <ele>900</ele>
        <time>2022-04-27T23:00:33Z</time>
      </trkpt>
      <trkpt lat="46.26489" lon="6.42403">
        <ele>894</ele>
        <time>2022-04-27T23:00:39Z</time>
      </trkpt>
      <trkpt lat="46.26505" lon="6.42385">
        <ele>889</ele>
        <time>2022-04-27T23:00:44Z</time>
      </trkpt>
      <trkpt lat="46.2651" lon="6.4236">
        <ele>885</ele>
        <time>2022-04-27T23:00:48Z</time>
      </trkpt>
      <trkpt lat="46.26488" lon="6.423">
        <ele>883</ele>
        <time>2022-04-27T23:00:59Z</time>
      </trkpt>
      <trkpt lat="46.26478" lon="6.42258">
        <ele>877</ele>
        <time>2022-04-27T23:01:06Z</time>
      </trkpt>
      <trkpt lat="46.26471" lon="6.42247">
        <ele>875</ele>
        <time>2022-04-27T23:01:08Z</time>
      </trkpt>
      <trkpt lat="46.26455" lon="6.42245">
        <ele>874</ele>
        <time>2022-04-27T23:01:12Z</time>
      </trkpt>
      <trkpt lat="46.26413" lon="6.4227">
        <ele>879</ele>
        <time>2022-04-27T23:01:23Z</time>
      </trkpt>
      <trkpt lat="46.26394" lon="6.42276">
        <ele>880</ele>
        <time>2022-04-27T23:01:27Z</time>
      </trkpt>
      <trkpt lat="46.26379" lon="6.42265">
        <ele>878</ele>
        <time>2022-04-27T23:01:31Z</time>
      </trkpt>
      <trkpt lat="46.26328" lon="6.42094">
        <ele>862</ele>
        <time>2022-04-27T23:02:01Z</time>
      </trkpt>
      <trkpt lat="46.26331" lon="6.42075">
        <ele>859</ele>
        <time>2022-04-27T23:02:04Z</time>
      </trkpt>
      <trkpt lat="46.26345" lon="6.42044">
        <ele>855</ele>
        <time>2022-04-27T23:02:10Z</time>
      </trkpt>
      <trkpt lat="46.26345" lon="6.42026">
        <ele>853</ele>
        <time>2022-04-27T23:02:13Z</time>
      </trkpt>
      <trkpt lat="46.26336" lon="6.42005">
        <ele>853</ele>
        <time>2022-04-27T23:02:17Z</time>
      </trkpt>
      <trkpt lat="46.2631" lon="6.41974">
        <ele>856</ele>
        <time>2022-04-27T23:02:25Z</time>
      </trkpt>
      <trkpt lat="46.26305" lon="6.41962">
        <ele>855</ele>
        <time>2022-04-27T23:02:27Z</time>
      </trkpt>
      <trkpt lat="46.26306" lon="6.41952">
        <ele>853</ele>
        <time>2022-04-27T23:02:29Z</time>
      </trkpt>
      <trkpt lat="46.26311" lon="6.41945">
        <ele>851</ele>
        <time>2022-04-27T23:02:31Z</time>
      </trkpt>
      <trkpt lat="46.26355" lon="6.4195">
        <ele>842</ele>
        <time>2022-04-27T23:02:41Z</time>
      </trkpt>
      <trkpt lat="46.26388" lon="6.41964">
        <ele>839</ele>
        <time>2022-04-27T23:02:49Z</time>
      </trkpt>
      <trkpt lat="46.26412" lon="6.41962">
        <ele>835</ele>
        <time>2022-04-27T23:02:55Z</time>
      </trkpt>
      <trkpt lat="46.26438" lon="6.41946">
        <ele>830</ele>
        <time>2022-04-27T23:03:01Z</time>
      </trkpt>
      <trkpt lat="46.26438" lon="6.41946">
        <ele>830</ele>
        <time>2022-04-27T23:03:01Z</time>
      </trkpt>
      <trkpt lat="46.26473" lon="6.41935">
        <ele>825</ele>
        <time>2022-04-27T23:03:10Z</time>
      </trkpt>
      <trkpt lat="46.26493" lon="6.41946">
        <ele>824</ele>
        <time>2022-04-27T23:03:15Z</time>
      </trkpt>
      <trkpt lat="46.26509" lon="6.41968">
        <ele>824</ele>
        <time>2022-04-27T23:03:20Z</time>
      </trkpt>
      <trkpt lat="46.26517" lon="6.41966">
        <ele>822</ele>
        <time>2022-04-27T23:03:22Z</time>
      </trkpt>
      <trkpt lat="46.2652" lon="6.41958">
        <ele>820</ele>
        <time>2022-04-27T23:03:23Z</time>
      </trkpt>
      <trkpt lat="46.26517" lon="6.41906">
        <ele>814</ele>
        <time>2022-04-27T23:03:32Z</time>
      </trkpt>
      <trkpt lat="46.2651" lon="6.41883">
        <ele>813</ele>
        <time>2022-04-27T23:03:36Z</time>
      </trkpt>
      <trkpt lat="46.26475" lon="6.41809">
        <ele>810</ele>
        <time>2022-04-27T23:03:50Z</time>
      </trkpt>
      <trkpt lat="46.26468" lon="6.41764">
        <ele>805</ele>
        <time>2022-04-27T23:03:58Z</time>
      </trkpt>
      <trkpt lat="46.26461" lon="6.41752">
        <ele>805</ele>
        <time>2022-04-27T23:04:00Z</time>
      </trkpt>
      <trkpt lat="46.26445" lon="6.41738">
        <ele>805</ele>
        <time>2022-04-27T23:04:04Z</time>
      </trkpt>
      <trkpt lat="46.2636" lon="6.41684">
        <ele>809</ele>
        <time>2022-04-27T23:04:26Z</time>
      </trkpt>
      <trkpt lat="46.26328" lon="6.4167">
        <ele>813</ele>
        <time>2022-04-27T23:04:34Z</time>
      </trkpt>
      <trkpt lat="46.26325" lon="6.41661">
        <ele>813</ele>
        <time>2022-04-27T23:04:36Z</time>
      </trkpt>
      <trkpt lat="46.26329" lon="6.41645">
        <ele>810</ele>
        <time>2022-04-27T23:04:38Z</time>
      </trkpt>
      <trkpt lat="46.26361" lon="6.41634">
        <ele>802</ele>
        <time>2022-04-27T23:04:46Z</time>
      </trkpt>
      <trkpt lat="46.26413" lon="6.41605">
        <ele>786</ele>
        <time>2022-04-27T23:04:59Z</time>
      </trkpt>
      <trkpt lat="46.26444" lon="6.41595">
        <ele>779</ele>
        <time>2022-04-27T23:05:06Z</time>
      </trkpt>
      <trkpt lat="46.26508" lon="6.41605">
        <ele>774</ele>
        <time>2022-04-27T23:05:21Z</time>
      </trkpt>
      <trkpt lat="46.2652" lon="6.41611">
        <ele>773</ele>
        <time>2022-04-27T23:05:24Z</time>
      </trkpt>
      <trkpt lat="46.26549" lon="6.41641">
        <ele>774</ele>
        <time>2022-04-27T23:05:33Z</time>
      </trkpt>
      <trkpt lat="46.26597" lon="6.4165">
        <ele>768</ele>
        <time>2022-04-27T23:05:44Z</time>
      </trkpt>
      <trkpt lat="46.2662" lon="6.41661">
        <ele>764</ele>
        <time>2022-04-27T23:05:50Z</time>
      </trkpt>
      <trkpt lat="46.26655" lon="6.41718">
        <ele>767</ele>
        <time>2022-04-27T23:06:02Z</time>
      </trkpt>
      <trkpt lat="46.26704" lon="6.41774">
        <ele>764</ele>
        <time>2022-04-27T23:06:17Z</time>
      </trkpt>
      <trkpt lat="46.26722" lon="6.41813">
        <ele>760</ele>
        <time>2022-04-27T23:06:24Z</time>
      </trkpt>
      <trkpt lat="46.26733" lon="6.41887">
        <ele>758</ele>
        <time>2022-04-27T23:06:36Z</time>
      </trkpt>
      <trkpt lat="46.26739" lon="6.4195">
        <ele>756</ele>
        <time>2022-04-27T23:06:47Z</time>
      </trkpt>
      <trkpt lat="46.26739" lon="6.41988">
        <ele>756</ele>
        <time>2022-04-27T23:06:53Z</time>
      </trkpt>
      <trkpt lat="46.26741" lon="6.42">
        <ele>755</ele>
        <time>2022-04-27T23:06:55Z</time>
      </trkpt>
      <trkpt lat="46.26746" lon="6.42005">
        <ele>753</ele>
        <time>2022-04-27T23:06:56Z</time>
      </trkpt>
      <trkpt lat="46.26752" lon="6.42004">
        <ele>751</ele>
        <time>2022-04-27T23:06:58Z</time>
      </trkpt>
      <trkpt lat="46.26759" lon="6.41989">
        <ele>749</ele>
        <time>2022-04-27T23:07:01Z</time>
      </trkpt>
      <trkpt lat="46.26763" lon="6.41948">
        <ele>749</ele>
        <time>2022-04-27T23:07:07Z</time>
      </trkpt>
      <trkpt lat="46.26789" lon="6.41869">
        <ele>741</ele>
        <time>2022-04-27T23:07:21Z</time>
      </trkpt>
      <trkpt lat="46.26797" lon="6.41818">
        <ele>738</ele>
        <time>2022-04-27T23:07:30Z</time>
      </trkpt>
      <trkpt lat="46.26815" lon="6.41785">
        <ele>732</ele>
        <time>2022-04-27T23:07:37Z</time>
      </trkpt>
      <trkpt lat="46.26824" lon="6.41759">
        <ele>730</ele>
        <time>2022-04-27T23:07:41Z</time>
      </trkpt>
      <trkpt lat="46.26828" lon="6.41645">
        <ele>726</ele>
        <time>2022-04-27T23:08:00Z</time>
      </trkpt>
      <trkpt lat="46.26818" lon="6.41615">
        <ele>724</ele>
        <time>2022-04-27T23:08:05Z</time>
      </trkpt>
      <trkpt lat="46.26787" lon="6.41565">
        <ele>723</ele>
        <time>2022-04-27T23:08:16Z</time>
      </trkpt>
      <trkpt lat="46.26779" lon="6.41539">
        <ele>721</ele>
        <time>2022-04-27T23:08:20Z</time>
      </trkpt>
      <trkpt lat="46.26774" lon="6.41496">
        <ele>717</ele>
        <time>2022-04-27T23:08:28Z</time>
      </trkpt>
      <trkpt lat="46.26777" lon="6.41432">
        <ele>710</ele>
        <time>2022-04-27T23:08:38Z</time>
      </trkpt>
      <trkpt lat="46.26763" lon="6.41384">
        <ele>706</ele>
        <time>2022-04-27T23:08:46Z</time>
      </trkpt>
      <trkpt lat="46.26728" lon="6.41312">
        <ele>696</ele>
        <time>2022-04-27T23:09:01Z</time>
      </trkpt>
      <trkpt lat="46.26689" lon="6.41267">
        <ele>689</ele>
        <time>2022-04-27T23:09:12Z</time>
      </trkpt>
      <trkpt lat="46.26673" lon="6.41242">
        <ele>685</ele>
        <time>2022-04-27T23:09:18Z</time>
      </trkpt>
      <trkpt lat="46.26636" lon="6.41209">
        <ele>683</ele>
        <time>2022-04-27T23:09:28Z</time>
      </trkpt>
      <trkpt lat="46.26621" lon="6.41173">
        <ele>677</ele>
        <time>2022-04-27T23:09:35Z</time>
      </trkpt>
      <trkpt lat="46.2662" lon="6.41156">
        <ele>675</ele>
        <time>2022-04-27T23:09:37Z</time>
      </trkpt>
      <trkpt lat="46.2662" lon="6.41156">
        <ele>675</ele>
        <time>2022-04-27T23:09:37Z</time>
      </trkpt>
      <trkpt lat="46.26624" lon="6.41147">
        <ele>673</ele>
        <time>2022-04-27T23:09:39Z</time>
      </trkpt>
      <trkpt lat="46.26632" lon="6.41143">
        <ele>671</ele>
        <time>2022-04-27T23:09:41Z</time>
      </trkpt>
      <trkpt lat="46.26667" lon="6.41161">
        <ele>669</ele>
        <time>2022-04-27T23:09:50Z</time>
      </trkpt>
      <trkpt lat="46.26753" lon="6.41164">
        <ele>661</ele>
        <time>2022-04-27T23:10:10Z</time>
      </trkpt>
      <trkpt lat="46.26821" lon="6.41176">
        <ele>653</ele>
        <time>2022-04-27T23:10:26Z</time>
      </trkpt>
      <trkpt lat="46.26875" lon="6.4122">
        <ele>649</ele>
        <time>2022-04-27T23:10:40Z</time>
      </trkpt>
      <trkpt lat="46.26905" lon="6.41232">
        <ele>645</ele>
        <time>2022-04-27T23:10:48Z</time>
      </trkpt>
      <trkpt lat="46.26964" lon="6.41268">
        <ele>639</ele>
        <time>2022-04-27T23:11:03Z</time>
      </trkpt>
      <trkpt lat="46.26983" lon="6.41294">
        <ele>637</ele>
        <time>2022-04-27T23:11:09Z</time>
      </trkpt>
      <trkpt lat="46.27002" lon="6.41333">
        <ele>636</ele>
        <time>2022-04-27T23:11:16Z</time>
      </trkpt>
      <trkpt lat="46.27015" lon="6.41347">
        <ele>636</ele>
        <time>2022-04-27T23:11:20Z</time>
      </trkpt>
      <trkpt lat="46.27056" lon="6.41358">
        <ele>630</ele>
        <time>2022-04-27T23:11:30Z</time>
      </trkpt>
      <trkpt lat="46.27095" lon="6.4138">
        <ele>627</ele>
        <time>2022-04-27T23:11:40Z</time>
      </trkpt>
      <trkpt lat="46.27123" lon="6.41412">
        <ele>624</ele>
        <time>2022-04-27T23:11:48Z</time>
      </trkpt>
      <trkpt lat="46.27162" lon="6.41468">
        <ele>618</ele>
        <time>2022-04-27T23:12:01Z</time>
      </trkpt>
      <trkpt lat="46.27162" lon="6.41468">
        <ele>618</ele>
        <time>2022-04-27T23:12:01Z</time>
      </trkpt>
      <trkpt lat="46.2718" lon="6.41486">
        <ele>617</ele>
        <time>2022-04-27T23:12:06Z</time>
      </trkpt>
      <trkpt lat="46.27193" lon="6.41486">
        <ele>615</ele>
        <time>2022-04-27T23:12:09Z</time>
      </trkpt>
      <trkpt lat="46.27221" lon="6.41468">
        <ele>611</ele>
        <time>2022-04-27T23:12:16Z</time>
      </trkpt>
      <trkpt lat="46.27261" lon="6.41431">
        <ele>605</ele>
        <time>2022-04-27T23:12:27Z</time>
      </trkpt>
      <trkpt lat="46.27284" lon="6.41395">
        <ele>601</ele>
        <time>2022-04-27T23:12:35Z</time>
      </trkpt>
      <trkpt lat="46.27357" lon="6.41233">
        <ele>589</ele>
        <time>2022-04-27T23:13:06Z</time>
      </trkpt>
      <trkpt lat="46.2746" lon="6.4116">
        <ele>583</ele>
        <time>2022-04-27T23:13:33Z</time>
      </trkpt>
      <trkpt lat="46.27476" lon="6.4114">
        <ele>583</ele>
        <time>2022-04-27T23:13:38Z</time>
      </trkpt>
      <trkpt lat="46.27476" lon="6.4114">
        <ele>583</ele>
        <time>2022-04-27T23:13:38Z</time>
      </trkpt>
      <trkpt lat="46.27465" lon="6.41127">
        <ele>583</ele>
        <time>2022-04-27T23:13:41Z</time>
      </trkpt>
      <trkpt lat="46.27433" lon="6.4104">
        <ele>584</ele>
        <time>2022-04-27T23:13:57Z</time>
      </trkpt>
      <trkpt lat="46.27433" lon="6.4104">
        <ele>584</ele>
        <time>2022-04-27T23:13:57Z</time>
      </trkpt>
      <trkpt lat="46.27346" lon="6.40816">
        <ele>580</ele>
        <time>2022-04-27T23:14:39Z</time>
      </trkpt>
      <trkpt lat="46.27316" lon="6.40689">
        <ele>577</ele>
        <time>2022-04-27T23:15:00Z</time>
      </trkpt>
      <trkpt lat="46.27259" lon="6.40584">
        <ele>577</ele>
        <time>2022-04-27T23:15:22Z</time>
      </trkpt>
      <trkpt lat="46.27208" lon="6.40457">
        <ele>577</ele>
        <time>2022-04-27T23:15:46Z</time>
      </trkpt>
      <trkpt lat="46.2716" lon="6.40371">
        <ele>578</ele>
        <time>2022-04-27T23:16:04Z</time>
      </trkpt>
      <trkpt lat="46.27054" lon="6.40114">
        <ele>579</ele>
        <time>2022-04-27T23:16:52Z</time>
      </trkpt>
      <trkpt lat="46.27054" lon="6.40114">
        <ele>579</ele>
        <time>2022-04-27T23:16:52Z</time>
      </trkpt>
      <trkpt lat="46.2696" lon="6.39874">
        <ele>579</ele>
        <time>2022-04-27T23:17:36Z</time>
      </trkpt>
      <trkpt lat="46.26941" lon="6.39849">
        <ele>580</ele>
        <time>2022-04-27T23:17:42Z</time>
      </trkpt>
      <trkpt lat="46.26885" lon="6.3981">
        <ele>582</ele>
        <time>2022-04-27T23:17:57Z</time>
      </trkpt>
      <trkpt lat="46.26856" lon="6.39763">
        <ele>582</ele>
        <time>2022-04-27T23:18:07Z</time>
      </trkpt>
      <trkpt lat="46.26798" lon="6.39604">
        <ele>581</ele>
        <time>2022-04-27T23:18:36Z</time>
      </trkpt>
      <trkpt lat="46.26767" lon="6.39466">
        <ele>579</ele>
        <time>2022-04-27T23:18:59Z</time>
      </trkpt>
      <trkpt lat="46.26738" lon="6.39397">
        <ele>580</ele>
        <time>2022-04-27T23:19:13Z</time>
      </trkpt>
      <trkpt lat="46.2668" lon="6.39227">
        <ele>583</ele>
        <time>2022-04-27T23:19:43Z</time>
      </trkpt>
      <trkpt lat="46.2668" lon="6.39227">
        <ele>583</ele>
        <time>2022-04-27T23:19:43Z</time>
      </trkpt>
      <trkpt lat="46.26711" lon="6.39099">
        <ele>579</ele>
        <time>2022-04-27T23:20:05Z</time>
      </trkpt>
      <trkpt lat="46.26715" lon="6.3907">
        <ele>577</ele>
        <time>2022-04-27T23:20:10Z</time>
      </trkpt>
      <trkpt lat="46.26713" lon="6.3904">
        <ele>576</ele>
        <time>2022-04-27T23:20:15Z</time>
      </trkpt>
      <trkpt lat="46.26707" lon="6.38999">
        <ele>575</ele>
        <time>2022-04-27T23:20:21Z</time>
      </trkpt>
      <trkpt lat="46.26695" lon="6.38955">
        <ele>573</ele>
        <time>2022-04-27T23:20:29Z</time>
      </trkpt>
      <trkpt lat="46.26661" lon="6.38874">
        <ele>572</ele>
        <time>2022-04-27T23:20:44Z</time>
      </trkpt>
      <trkpt lat="46.26638" lon="6.38804">
        <ele>569</ele>
        <time>2022-04-27T23:20:57Z</time>
      </trkpt>
      <trkpt lat="46.26629" lon="6.38788">
        <ele>569</ele>
        <time>2022-04-27T23:21:00Z</time>
      </trkpt>
      <trkpt lat="46.26629" lon="6.38788">
        <ele>569</ele>
        <time>2022-04-27T23:21:00Z</time>
      </trkpt>
      <trkpt lat="46.26628" lon="6.38776">
        <ele>568</ele>
        <time>2022-04-27T23:21:02Z</time>
      </trkpt>
      <trkpt lat="46.26628" lon="6.38776">
        <ele>568</ele>
        <time>2022-04-27T23:21:02Z</time>
      </trkpt>
      <trkpt lat="46.26615" lon="6.3866">
        <ele>564</ele>
        <time>2022-04-27T23:21:21Z</time>
      </trkpt>
      <trkpt lat="46.26619" lon="6.38599">
        <ele>563</ele>
        <time>2022-04-27T23:21:31Z</time>
      </trkpt>
      <trkpt lat="46.26615" lon="6.38523">
        <ele>562</ele>
        <time>2022-04-27T23:21:43Z</time>
      </trkpt>
      <trkpt lat="46.26623" lon="6.38423">
        <ele>558</ele>
        <time>2022-04-27T23:22:00Z</time>
      </trkpt>
      <trkpt lat="46.26632" lon="6.38353">
        <ele>558</ele>
        <time>2022-04-27T23:22:11Z</time>
      </trkpt>
      <trkpt lat="46.26638" lon="6.38336">
        <ele>558</ele>
        <time>2022-04-27T23:22:14Z</time>
      </trkpt>
      <trkpt lat="46.26679" lon="6.38275">
        <ele>556</ele>
        <time>2022-04-27T23:22:28Z</time>
      </trkpt>
      <trkpt lat="46.26709" lon="6.38191">
        <ele>556</ele>
        <time>2022-04-27T23:22:43Z</time>
      </trkpt>
      <trkpt lat="46.26719" lon="6.3814">
        <ele>556</ele>
        <time>2022-04-27T23:22:52Z</time>
      </trkpt>
      <trkpt lat="46.26726" lon="6.37996">
        <ele>555</ele>
        <time>2022-04-27T23:23:15Z</time>
      </trkpt>
      <trkpt lat="46.26725" lon="6.37913">
        <ele>556</ele>
        <time>2022-04-27T23:23:28Z</time>
      </trkpt>
      <trkpt lat="46.26688" lon="6.37786">
        <ele>558</ele>
        <time>2022-04-27T23:23:51Z</time>
      </trkpt>
      <trkpt lat="46.26665" lon="6.37601">
        <ele>561</ele>
        <time>2022-04-27T23:24:21Z</time>
      </trkpt>
      <trkpt lat="46.2667" lon="6.37591">
        <ele>561</ele>
        <time>2022-04-27T23:24:23Z</time>
      </trkpt>
      <trkpt lat="46.2667" lon="6.37591">
        <ele>561</ele>
        <time>2022-04-27T23:24:23Z</time>
      </trkpt>
      <trkpt lat="46.26615" lon="6.37448">
        <ele>564</ele>
        <time>2022-04-27T23:24:49Z</time>
      </trkpt>
      <trkpt lat="46.26599" lon="6.37402">
        <ele>564</ele>
        <time>2022-04-27T23:24:58Z</time>
      </trkpt>
      <trkpt lat="46.26599" lon="6.37391">
        <ele>563</ele>
        <time>2022-04-27T23:25:00Z</time>
      </trkpt>
      <trkpt lat="46.26556" lon="6.37272">
        <ele>563</ele>
        <time>2022-04-27T23:25:21Z</time>
      </trkpt>
      <trkpt lat="46.26556" lon="6.37272">
        <ele>563</ele>
        <time>2022-04-27T23:25:21Z</time>
      </trkpt>
      <trkpt lat="46.26482" lon="6.3707">
        <ele>566</ele>
        <time>2022-04-27T23:25:58Z</time>
      </trkpt>
      <trkpt lat="46.26482" lon="6.3707">
        <ele>566</ele>
        <time>2022-04-27T23:25:58Z</time>
      </trkpt>
      <trkpt lat="46.26561" lon="6.37016">
        <ele>559</ele>
        <time>2022-04-27T23:26:19Z</time>
      </trkpt>
      <trkpt lat="46.269" lon="6.36678">
        <ele>549</ele>
        <time>2022-04-27T23:27:55Z</time>
      </trkpt>
      <trkpt lat="46.26939" lon="6.36603">
        <ele>549</ele>
        <time>2022-04-27T23:28:10Z</time>
      </trkpt>
      <trkpt lat="46.27024" lon="6.36396">
        <ele>546</ele>
        <time>2022-04-27T23:28:49Z</time>
      </trkpt>
      <trkpt lat="46.27024" lon="6.36396">
        <ele>546</ele>
        <time>2022-04-27T23:28:49Z</time>
      </trkpt>
      <trkpt lat="46.27086" lon="6.36247">
        <ele>547</ele>
        <time>2022-04-27T23:29:17Z</time>
      </trkpt>
      <trkpt lat="46.27099" lon="6.36228">
        <ele>548</ele>
        <time>2022-04-27T23:29:21Z</time>
      </trkpt>
      <trkpt lat="46.27146" lon="6.36186">
        <ele>547</ele>
        <time>2022-04-27T23:29:34Z</time>
      </trkpt>
      <trkpt lat="46.27146" lon="6.36186">
        <ele>547</ele>
        <time>2022-04-27T23:29:34Z</time>
      </trkpt>
      <trkpt lat="46.27153" lon="6.36184">
        <ele>546</ele>
        <time>2022-04-27T23:29:36Z</time>
      </trkpt>
      <trkpt lat="46.27168" lon="6.36162">
        <ele>546</ele>
        <time>2022-04-27T23:29:41Z</time>
      </trkpt>
      <trkpt lat="46.27197" lon="6.36144">
        <ele>547</ele>
        <time>2022-04-27T23:29:48Z</time>
      </trkpt>
      <trkpt lat="46.272" lon="6.36137">
        <ele>548</ele>
        <time>2022-04-27T23:29:49Z</time>
      </trkpt>
      <trkpt lat="46.2722" lon="6.36123">
        <ele>549</ele>
        <time>2022-04-27T23:29:55Z</time>
      </trkpt>
      <trkpt lat="46.27264" lon="6.36106">
        <ele>549</ele>
        <time>2022-04-27T23:30:05Z</time>
      </trkpt>
      <trkpt lat="46.27288" lon="6.36108">
        <ele>548</ele>
        <time>2022-04-27T23:30:11Z</time>
      </trkpt>
      <trkpt lat="46.27482" lon="6.36159">
        <ele>545</ele>
        <time>2022-04-27T23:30:57Z</time>
      </trkpt>
      <trkpt lat="46.27525" lon="6.3616">
        <ele>545</ele>
        <time>2022-04-27T23:31:07Z</time>
      </trkpt>
      <trkpt lat="46.27551" lon="6.36145">
        <ele>545</ele>
        <time>2022-04-27T23:31:13Z</time>
      </trkpt>
      <trkpt lat="46.27696" lon="6.36029">
        <ele>546</ele>
        <time>2022-04-27T23:31:52Z</time>
      </trkpt>
      <trkpt lat="46.27696" lon="6.36029">
        <ele>546</ele>
        <time>2022-04-27T23:31:52Z</time>
      </trkpt>
      <trkpt lat="46.27732" lon="6.35998">
        <ele>546</ele>
        <time>2022-04-27T23:32:02Z</time>
      </trkpt>
      <trkpt lat="46.27758" lon="6.35962">
        <ele>545</ele>
        <time>2022-04-27T23:32:10Z</time>
      </trkpt>
      <trkpt lat="46.27962" lon="6.35502">
        <ele>538</ele>
        <time>2022-04-27T23:33:39Z</time>
      </trkpt>
      <trkpt lat="46.28006" lon="6.35435">
        <ele>537</ele>
        <time>2022-04-27T23:33:53Z</time>
      </trkpt>
      <trkpt lat="46.2803" lon="6.3539">
        <ele>537</ele>
        <time>2022-04-27T23:34:03Z</time>
      </trkpt>
      <trkpt lat="46.28103" lon="6.35165">
        <ele>533</ele>
        <time>2022-04-27T23:34:43Z</time>
      </trkpt>
      <trkpt lat="46.28124" lon="6.35116">
        <ele>535</ele>
        <time>2022-04-27T23:34:52Z</time>
      </trkpt>
      <trkpt lat="46.28137" lon="6.35095">
        <ele>535</ele>
        <time>2022-04-27T23:34:57Z</time>
      </trkpt>
      <trkpt lat="46.28208" lon="6.3501">
        <ele>542</ele>
        <time>2022-04-27T23:35:18Z</time>
      </trkpt>
      <trkpt lat="46.28208" lon="6.3501">
        <ele>542</ele>
        <time>2022-04-27T23:35:18Z</time>
      </trkpt>
      <trkpt lat="46.28236" lon="6.34966">
        <ele>544</ele>
        <time>2022-04-27T23:35:28Z</time>
      </trkpt>
      <trkpt lat="46.28248" lon="6.34929">
        <ele>545</ele>
        <time>2022-04-27T23:35:34Z</time>
      </trkpt>
      <trkpt lat="46.28266" lon="6.34834">
        <ele>544</ele>
        <time>2022-04-27T23:35:50Z</time>
      </trkpt>
      <trkpt lat="46.28288" lon="6.34769">
        <ele>545</ele>
        <time>2022-04-27T23:36:02Z</time>
      </trkpt>
      <trkpt lat="46.28373" lon="6.34575">
        <ele>551</ele>
        <time>2022-04-27T23:36:39Z</time>
      </trkpt>
      <trkpt lat="46.28403" lon="6.34517">
        <ele>554</ele>
        <time>2022-04-27T23:36:51Z</time>
      </trkpt>
      <trkpt lat="46.28473" lon="6.3441">
        <ele>559</ele>
        <time>2022-04-27T23:37:14Z</time>
      </trkpt>
      <trkpt lat="46.28543" lon="6.34307">
        <ele>569</ele>
        <time>2022-04-27T23:37:38Z</time>
      </trkpt>
      <trkpt lat="46.28573" lon="6.34272">
        <ele>572</ele>
        <time>2022-04-27T23:37:47Z</time>
      </trkpt>
      <trkpt lat="46.28609" lon="6.34249">
        <ele>574</ele>
        <time>2022-04-27T23:37:56Z</time>
      </trkpt>
      <trkpt lat="46.28635" lon="6.34244">
        <ele>575</ele>
        <time>2022-04-27T23:38:02Z</time>
      </trkpt>
      <trkpt lat="46.28652" lon="6.34247">
        <ele>576</ele>
        <time>2022-04-27T23:38:06Z</time>
      </trkpt>
      <trkpt lat="46.28945" lon="6.34375">
        <ele>590</ele>
        <time>2022-04-27T23:39:18Z</time>
      </trkpt>
      <trkpt lat="46.28966" lon="6.34383">
        <ele>590</ele>
        <time>2022-04-27T23:39:23Z</time>
      </trkpt>
      <trkpt lat="46.28986" lon="6.34378">
        <ele>590</ele>
        <time>2022-04-27T23:39:27Z</time>
      </trkpt>
      <trkpt lat="46.28986" lon="6.34378">
        <ele>590</ele>
        <time>2022-04-27T23:39:27Z</time>
      </trkpt>
      <trkpt lat="46.28996" lon="6.3437">
        <ele>590</ele>
        <time>2022-04-27T23:39:30Z</time>
      </trkpt>
      <trkpt lat="46.2901" lon="6.34341">
        <ele>591</ele>
        <time>2022-04-27T23:39:36Z</time>
      </trkpt>
      <trkpt lat="46.29012" lon="6.34313">
        <ele>593</ele>
        <time>2022-04-27T23:39:40Z</time>
      </trkpt>
      <trkpt lat="46.28963" lon="6.34122">
        <ele>600</ele>
        <time>2022-04-27T23:40:13Z</time>
      </trkpt>
      <trkpt lat="46.28956" lon="6.3407">
        <ele>603</ele>
        <time>2022-04-27T23:40:22Z</time>
      </trkpt>
      <trkpt lat="46.2899" lon="6.33794">
        <ele>611</ele>
        <time>2022-04-27T23:41:07Z</time>
      </trkpt>
      <trkpt lat="46.29003" lon="6.33736">
        <ele>611</ele>
        <time>2022-04-27T23:41:17Z</time>
      </trkpt>
      <trkpt lat="46.29022" lon="6.33704">
        <ele>612</ele>
        <time>2022-04-27T23:41:24Z</time>
      </trkpt>
      <trkpt lat="46.2906" lon="6.33666">
        <ele>612</ele>
        <time>2022-04-27T23:41:34Z</time>
      </trkpt>
      <trkpt lat="46.29076" lon="6.33657">
        <ele>612</ele>
        <time>2022-04-27T23:41:38Z</time>
      </trkpt>
      <trkpt lat="46.29119" lon="6.33651">
        <ele>613</ele>
        <time>2022-04-27T23:41:49Z</time>
      </trkpt>
      <trkpt lat="46.29179" lon="6.3366">
        <ele>613</ele>
        <time>2022-04-27T23:42:03Z</time>
      </trkpt>
      <trkpt lat="46.29214" lon="6.3366">
        <ele>612</ele>
        <time>2022-04-27T23:42:11Z</time>
      </trkpt>
      <trkpt lat="46.29229" lon="6.33656">
        <ele>612</ele>
        <time>2022-04-27T23:42:14Z</time>
      </trkpt>
      <trkpt lat="46.29255" lon="6.33636">
        <ele>612</ele>
        <time>2022-04-27T23:42:21Z</time>
      </trkpt>
      <trkpt lat="46.29278" lon="6.336">
        <ele>613</ele>
        <time>2022-04-27T23:42:29Z</time>
      </trkpt>
      <trkpt lat="46.29319" lon="6.33497">
        <ele>613</ele>
        <time>2022-04-27T23:42:48Z</time>
      </trkpt>
      <trkpt lat="46.2934" lon="6.33367">
        <ele>610</ele>
        <time>2022-04-27T23:43:10Z</time>
      </trkpt>
      <trkpt lat="46.2934" lon="6.33367">
        <ele>610</ele>
        <time>2022-04-27T23:43:10Z</time>
      </trkpt>
      <trkpt lat="46.29359" lon="6.33334">
        <ele>609</ele>
        <time>2022-04-27T23:43:17Z</time>
      </trkpt>
      <trkpt lat="46.29465" lon="6.33216">
        <ele>607</ele>
        <time>2022-04-27T23:43:48Z</time>
      </trkpt>
      <trkpt lat="46.29506" lon="6.33145">
        <ele>606</ele>
        <time>2022-04-27T23:44:03Z</time>
      </trkpt>
      <trkpt lat="46.29543" lon="6.33103">
        <ele>603</ele>
        <time>2022-04-27T23:44:14Z</time>
      </trkpt>
      <trkpt lat="46.29543" lon="6.33103">
        <ele>603</ele>
        <time>2022-04-27T23:44:14Z</time>
      </trkpt>
      <trkpt lat="46.29539" lon="6.33096">
        <ele>603</ele>
        <time>2022-04-27T23:44:15Z</time>
      </trkpt>
      <trkpt lat="46.29539" lon="6.33096">
        <ele>603</ele>
        <time>2022-04-27T23:44:15Z</time>
      </trkpt>
      <trkpt lat="46.2955" lon="6.33">
        <ele>598</ele>
        <time>2022-04-27T23:44:31Z</time>
      </trkpt>
      <trkpt lat="46.29556" lon="6.32974">
        <ele>596</ele>
        <time>2022-04-27T23:44:36Z</time>
      </trkpt>
      <trkpt lat="46.29556" lon="6.32974">
        <ele>596</ele>
        <time>2022-04-27T23:44:36Z</time>
      </trkpt>
      <trkpt lat="46.29577" lon="6.32904">
        <ele>590</ele>
        <time>2022-04-27T23:44:48Z</time>
      </trkpt>
      <trkpt lat="46.29597" lon="6.32681">
        <ele>576</ele>
        <time>2022-04-27T23:45:24Z</time>
      </trkpt>
      <trkpt lat="46.29597" lon="6.32681">
        <ele>576</ele>
        <time>2022-04-27T23:45:24Z</time>
      </trkpt>
      <trkpt lat="46.29646" lon="6.32688">
        <ele>577</ele>
        <time>2022-04-27T23:45:36Z</time>
      </trkpt>
      <trkpt lat="46.29876" lon="6.32763">
        <ele>590</ele>
        <time>2022-04-27T23:46:31Z</time>
      </trkpt>
      <trkpt lat="46.29876" lon="6.32763">
        <ele>590</ele>
        <time>2022-04-27T23:46:31Z</time>
      </trkpt>
      <trkpt lat="46.29883" lon="6.3272">
        <ele>587</ele>
        <time>2022-04-27T23:46:38Z</time>
      </trkpt>
      <trkpt lat="46.29899" lon="6.32689">
        <ele>585</ele>
        <time>2022-04-27T23:46:44Z</time>
      </trkpt>
      <trkpt lat="46.29911" lon="6.32675">
        <ele>585</ele>
        <time>2022-04-27T23:46:48Z</time>
      </trkpt>
      <trkpt lat="46.29945" lon="6.32655">
        <ele>583</ele>
        <time>2022-04-27T23:46:56Z</time>
      </trkpt>
      <trkpt lat="46.30033" lon="6.32628">
        <ele>580</ele>
        <time>2022-04-27T23:47:17Z</time>
      </trkpt>
      <trkpt lat="46.30062" lon="6.32607">
        <ele>579</ele>
        <time>2022-04-27T23:47:25Z</time>
      </trkpt>
      <trkpt lat="46.30086" lon="6.32577">
        <ele>577</ele>
        <time>2022-04-27T23:47:32Z</time>
      </trkpt>
      <trkpt lat="46.3011" lon="6.32536">
        <ele>574</ele>
        <time>2022-04-27T23:47:41Z</time>
      </trkpt>
      <trkpt lat="46.30117" lon="6.32514">
        <ele>573</ele>
        <time>2022-04-27T23:47:45Z</time>
      </trkpt>
      <trkpt lat="46.30116" lon="6.32482">
        <ele>571</ele>
        <time>2022-04-27T23:47:50Z</time>
      </trkpt>
      <trkpt lat="46.30104" lon="6.32453">
        <ele>568</ele>
        <time>2022-04-27T23:47:55Z</time>
      </trkpt>
      <trkpt lat="46.30084" lon="6.32436">
        <ele>566</ele>
        <time>2022-04-27T23:48:01Z</time>
      </trkpt>
      <trkpt lat="46.30029" lon="6.32432">
        <ele>564</ele>
        <time>2022-04-27T23:48:14Z</time>
      </trkpt>
      <trkpt lat="46.29998" lon="6.32419">
        <ele>562</ele>
        <time>2022-04-27T23:48:21Z</time>
      </trkpt>
      <trkpt lat="46.29977" lon="6.32393">
        <ele>561</ele>
        <time>2022-04-27T23:48:28Z</time>
      </trkpt>
      <trkpt lat="46.29926" lon="6.32287">
        <ele>557</ele>
        <time>2022-04-27T23:48:49Z</time>
      </trkpt>
      <trkpt lat="46.29899" lon="6.32251">
        <ele>554</ele>
        <time>2022-04-27T23:48:57Z</time>
      </trkpt>
      <trkpt lat="46.29727" lon="6.32133">
        <ele>543</ele>
        <time>2022-04-27T23:49:42Z</time>
      </trkpt>
      <trkpt lat="46.29727" lon="6.32133">
        <ele>543</ele>
        <time>2022-04-27T23:49:42Z</time>
      </trkpt>
      <trkpt lat="46.29873" lon="6.321">
        <ele>535</ele>
        <time>2022-04-27T23:50:16Z</time>
      </trkpt>
      <trkpt lat="46.29873" lon="6.321">
        <ele>535</ele>
        <time>2022-04-27T23:50:16Z</time>
      </trkpt>
      <trkpt lat="46.2993" lon="6.32085">
        <ele>533</ele>
        <time>2022-04-27T23:50:30Z</time>
      </trkpt>
      <trkpt lat="46.29952" lon="6.3207">
        <ele>529</ele>
        <time>2022-04-27T23:50:35Z</time>
      </trkpt>
      <trkpt lat="46.29952" lon="6.3207">
        <ele>529</ele>
        <time>2022-04-27T23:50:35Z</time>
      </trkpt>
      <trkpt lat="46.29956" lon="6.32051">
        <ele>526</ele>
        <time>2022-04-27T23:50:38Z</time>
      </trkpt>
      <trkpt lat="46.29948" lon="6.3203">
        <ele>524</ele>
        <time>2022-04-27T23:50:42Z</time>
      </trkpt>
      <trkpt lat="46.29948" lon="6.3203">
        <ele>524</ele>
        <time>2022-04-27T23:50:42Z</time>
      </trkpt>
      <trkpt lat="46.30023" lon="6.32034">
        <ele>519</ele>
        <time>2022-04-27T23:51:00Z</time>
      </trkpt>
      <trkpt lat="46.30023" lon="6.32034">
        <ele>519</ele>
        <time>2022-04-27T23:51:00Z</time>
      </trkpt>
      <trkpt lat="46.30015" lon="6.32009">
        <ele>516</ele>
        <time>2022-04-27T23:51:04Z</time>
      </trkpt>
      <trkpt lat="46.29994" lon="6.31968">
        <ele>512</ele>
        <time>2022-04-27T23:51:13Z</time>
      </trkpt>
      <trkpt lat="46.29994" lon="6.31968">
        <ele>512</ele>
        <time>2022-04-27T23:51:13Z</time>
      </trkpt>
      <trkpt lat="46.30015" lon="6.32009">
        <ele>516</ele>
        <time>2022-04-27T23:51:21Z</time>
      </trkpt>
      <trkpt lat="46.30023" lon="6.32034">
        <ele>519</ele>
        <time>2022-04-27T23:51:25Z</time>
      </trkpt>
      <trkpt lat="46.30023" lon="6.32034">
        <ele>519</ele>
        <time>2022-04-27T23:51:25Z</time>
      </trkpt>
      <trkpt lat="46.29948" lon="6.3203">
        <ele>524</ele>
        <time>2022-04-27T23:51:43Z</time>
      </trkpt>
      <trkpt lat="46.29948" lon="6.3203">
        <ele>524</ele>
        <time>2022-04-27T23:51:43Z</time>
      </trkpt>
      <trkpt lat="46.29907" lon="6.31949">
        <ele>517</ele>
        <time>2022-04-27T23:51:59Z</time>
      </trkpt>
      <trkpt lat="46.29885" lon="6.31925">
        <ele>515</ele>
        <time>2022-04-27T23:52:05Z</time>
      </trkpt>
      <trkpt lat="46.29829" lon="6.31893">
        <ele>512</ele>
        <time>2022-04-27T23:52:19Z</time>
      </trkpt>
      <trkpt lat="46.29739" lon="6.31857">
        <ele>508</ele>
        <time>2022-04-27T23:52:41Z</time>
      </trkpt>
      <trkpt lat="46.29727" lon="6.31844">
        <ele>507</ele>
        <time>2022-04-27T23:52:45Z</time>
      </trkpt>
      <trkpt lat="46.29716" lon="6.31821">
        <ele>505</ele>
        <time>2022-04-27T23:52:49Z</time>
      </trkpt>
      <trkpt lat="46.29716" lon="6.31821">
        <ele>505</ele>
        <time>2022-04-27T23:52:49Z</time>
      </trkpt>
      <trkpt lat="46.29804" lon="6.31552">
        <ele>471</ele>
        <time>2022-04-27T23:53:37Z</time>
      </trkpt>
      <trkpt lat="46.29807" lon="6.31515">
        <ele>468</ele>
        <time>2022-04-27T23:53:43Z</time>
      </trkpt>
      <trkpt lat="46.29807" lon="6.31515">
        <ele>468</ele>
        <time>2022-04-27T23:53:43Z</time>
      </trkpt>
      <trkpt lat="46.2991" lon="6.31591">
        <ele>469</ele>
        <time>2022-04-27T23:54:10Z</time>
      </trkpt>
      <trkpt lat="46.2991" lon="6.31591">
        <ele>469</ele>
        <time>2022-04-27T23:54:10Z</time>
      </trkpt>
      <trkpt lat="46.29937" lon="6.31503">
        <ele>460</ele>
        <time>2022-04-27T23:54:26Z</time>
      </trkpt>
      <trkpt lat="46.29975" lon="6.31433">
        <ele>453</ele>
        <time>2022-04-27T23:54:40Z</time>
      </trkpt>
      <trkpt lat="46.29993" lon="6.31411">
        <ele>451</ele>
        <time>2022-04-27T23:54:46Z</time>
      </trkpt>
      <trkpt lat="46.30013" lon="6.31418">
        <ele>450</ele>
        <time>2022-04-27T23:54:51Z</time>
      </trkpt>
      <trkpt lat="46.30027" lon="6.3143">
        <ele>450</ele>
        <time>2022-04-27T23:54:54Z</time>
      </trkpt>
      <trkpt lat="46.30074" lon="6.3149">
        <ele>449</ele>
        <time>2022-04-27T23:55:09Z</time>
      </trkpt>
      <trkpt lat="46.30096" lon="6.31494">
        <ele>448</ele>
        <time>2022-04-27T23:55:14Z</time>
      </trkpt>
      <trkpt lat="46.30096" lon="6.31494">
        <ele>448</ele>
        <time>2022-04-27T23:55:14Z</time>
      </trkpt>
      <trkpt lat="46.30095" lon="6.31527">
        <ele>449</ele>
        <time>2022-04-27T23:55:19Z</time>
      </trkpt>
      <trkpt lat="46.3012" lon="6.31608">
        <ele>452</ele>
        <time>2022-04-27T23:55:34Z</time>
      </trkpt>
      <trkpt lat="46.30124" lon="6.31635">
        <ele>454</ele>
        <time>2022-04-27T23:55:38Z</time>
      </trkpt>
      <trkpt lat="46.30122" lon="6.31654">
        <ele>456</ele>
        <time>2022-04-27T23:55:41Z</time>
      </trkpt>
      <trkpt lat="46.30102" lon="6.31695">
        <ele>461</ele>
        <time>2022-04-27T23:55:49Z</time>
      </trkpt>
      <trkpt lat="46.30083" lon="6.3182">
        <ele>476</ele>
        <time>2022-04-27T23:56:10Z</time>
      </trkpt>
      <trkpt lat="46.30083" lon="6.3182">
        <ele>476</ele>
        <time>2022-04-27T23:56:10Z</time>
      </trkpt>
      <trkpt lat="46.30086" lon="6.31829">
        <ele>477</ele>
        <time>2022-04-27T23:56:12Z</time>
      </trkpt>
      <trkpt lat="46.30086" lon="6.31829">
        <ele>477</ele>
        <time>2022-04-27T23:56:12Z</time>
      </trkpt>
      <trkpt lat="46.30084" lon="6.3181">
        <ele>475</ele>
        <time>2022-04-27T23:56:15Z</time>
      </trkpt>
      <trkpt lat="46.30104" lon="6.3169">
        <ele>461</ele>
        <time>2022-04-27T23:56:35Z</time>
      </trkpt>
      <trkpt lat="46.30104" lon="6.3169">
        <ele>461</ele>
        <time>2022-04-27T23:56:35Z</time>
      </trkpt>
      <trkpt lat="46.30122" lon="6.31654">
        <ele>456</ele>
        <time>2022-04-27T23:56:42Z</time>
      </trkpt>
      <trkpt lat="46.30124" lon="6.31624">
        <ele>453</ele>
        <time>2022-04-27T23:56:47Z</time>
      </trkpt>
      <trkpt lat="46.30102" lon="6.31553">
        <ele>451</ele>
        <time>2022-04-27T23:56:59Z</time>
      </trkpt>
      <trkpt lat="46.30102" lon="6.31553">
        <ele>451</ele>
        <time>2022-04-27T23:56:59Z</time>
      </trkpt>
      <trkpt lat="46.30095" lon="6.31527">
        <ele>449</ele>
        <time>2022-04-27T23:57:04Z</time>
      </trkpt>
      <trkpt lat="46.30097" lon="6.3149">
        <ele>447</ele>
        <time>2022-04-27T23:57:10Z</time>
      </trkpt>
      <trkpt lat="46.3014" lon="6.31439">
        <ele>447</ele>
        <time>2022-04-27T23:57:23Z</time>
      </trkpt>
      <trkpt lat="46.30153" lon="6.31416">
        <ele>447</ele>
        <time>2022-04-27T23:57:28Z</time>
      </trkpt>
      <trkpt lat="46.30173" lon="6.31365">
        <ele>445</ele>
        <time>2022-04-27T23:57:37Z</time>
      </trkpt>
      <trkpt lat="46.30173" lon="6.31365">
        <ele>445</ele>
        <time>2022-04-27T23:57:37Z</time>
      </trkpt>
      <trkpt lat="46.30184" lon="6.31364">
        <ele>444</ele>
        <time>2022-04-27T23:57:40Z</time>
      </trkpt>
      <trkpt lat="46.30184" lon="6.31364">
        <ele>444</ele>
        <time>2022-04-27T23:57:40Z</time>
      </trkpt>
      <trkpt lat="46.30221" lon="6.31336">
        <ele>442</ele>
        <time>2022-04-27T23:57:49Z</time>
      </trkpt>
      <trkpt lat="46.30263" lon="6.31284">
        <ele>437</ele>
        <time>2022-04-27T23:58:02Z</time>
      </trkpt>
      <trkpt lat="46.30271" lon="6.31266">
        <ele>436</ele>
        <time>2022-04-27T23:58:06Z</time>
      </trkpt>
      <trkpt lat="46.30271" lon="6.31266">
        <ele>436</ele>
        <time>2022-04-27T23:58:06Z</time>
      </trkpt>
      <trkpt lat="46.30286" lon="6.3123">
        <ele>435</ele>
        <time>2022-04-27T23:58:13Z</time>
      </trkpt>
      <trkpt lat="46.3045" lon="6.3099">
        <ele>429</ele>
        <time>2022-04-27T23:59:07Z</time>
      </trkpt>
      <trkpt lat="46.3045" lon="6.3099">
        <ele>429</ele>
        <time>2022-04-27T23:59:07Z</time>
      </trkpt>
      <trkpt lat="46.30472" lon="6.3103">
        <ele>429</ele>
        <time>2022-04-27T23:59:15Z</time>
      </trkpt>
    </trkseg>
  </trk>
</gpx>